Time,TemperatureF,DewpointF,PressureIn,WindDirection,WindDirectionDegrees,WindSpeedMPH,WindSpeedGustMPH,Humidity,HourlyPrecipIn,Conditions,Clouds,dailyrainin,SolarRadiationWatts/m^2,SoftwareType,DateUTC
2013-06-05 00:00:00,63.5,60.2,29.84,NE,55,0.0,0.0,89,0.00,,,0.00,0.00,VWS V14.01,2013-06-05 04:00:00,
2013-06-05 00:01:00,63.5,60.2,29.84,NE,55,0.0,0.0,89,0.00,,,0.00,0.00,VWS V14.01,2013-06-05 04:01:00,
2013-06-05 00:02:00,63.5,60.2,29.85,NE,55,0.0,0.0,89,0.00,,,0.00,0.00,VWS V14.01,2013-06-05 04:02:00,
2013-06-05 00:03:00,63.5,60.2,29.85,NE,55,0.0,0.0,89,0.00,,,0.00,0.00,VWS V14.01,2013-06-05 04:03:00,
2013-06-05 00:04:00,63.5,60.2,29.85,NE,55,0.0,0.0,89,0.00,,,0.00,0.00,VWS V14.01,2013-06-05 04:04:00,
2013-06-05 00:05:00,63.4,60.4,29.84,NE,55,0.0,0.0,90,0.00,,,0.00,0.00,VWS V14.01,2013-06-05 04:05:00,
2013-06-05 00:06:00,63.5,60.2,29.84,NE,55,0.0,0.0,89,0.00,,,0.00,0.00,VWS V14.01,2013-06-05 04:06:00,
2013-06-05 00:07:00,63.5,60.2,29.84,NE,55,0.0,0.0,89,0.00,,,0.00,0.00,VWS V14.01,2013-06-05 04:07:00,
2013-06-05 00:08:00,63.4,60.4,29.84,NE,55,0.0,0.0,90,0.00,,,0.00,0.00,VWS V14.01,2013-06-05 04:08:00,
2013-06-05 00:09:00,63.4,60.4,29.84,NE,55,0.0,0.0,90,0.00,,,0.00,0.00,VWS V14.01,2013-06-05 04:09:00,
2013-06-05 00:10:00,63.4,60.4,29.84,NE,55,0.0,0.0,90,0.00,,,0.00,0.00,VWS V14.01,2013-06-05 04:10:00,
2013-06-05 00:11:00,63.4,60.4,29.84,NE,55,0.0,0.0,90,0.00,,,0.00,0.00,VWS V14.01,2013-06-05 04:11:00,
2013-06-05 00:12:00,63.4,60.4,29.84,NE,55,0.0,0.0,90,0.00,,,0.00,0.00,VWS V14.01,2013-06-05 04:12:00,
2013-06-05 00:13:00,63.4,60.4,29.84,NE,55,0.0,0.0,90,0.00,,,0.00,0.00,VWS V14.01,2013-06-05 04:13:00,
2013-06-05 00:14:00,63.4,60.4,29.84,NE,55,0.0,0.0,90,0.00,,,0.00,0.00,VWS V14.01,2013-06-05 04:14:00,
2013-06-05 00:15:00,63.2,60.2,29.84,NE,55,0.0,0.0,90,0.00,,,0.00,0.00,VWS V14.01,2013-06-05 04:15:00,
2013-06-05 00:16:00,63.2,60.2,29.84,NE,55,0.0,0.0,90,0.00,,,0.00,0.00,VWS V14.01,2013-06-05 04:16:00,
2013-06-05 00:17:00,63.2,60.2,29.84,NE,55,0.0,0.0,90,0.00,,,0.00,0.00,VWS V14.01,2013-06-05 04:17:00,
2013-06-05 00:18:00,63.2,60.2,29.84,NE,55,0.0,0.0,90,0.00,,,0.00,0.00,VWS V14.01,2013-06-05 04:18:00,
2013-06-05 00:19:00,63.4,60.4,29.84,NE,55,0.0,0.0,90,0.00,,,0.00,0.00,VWS V14.01,2013-06-05 04:19:00,
2013-06-05 00:20:00,63.2,60.2,29.84,NE,55,0.0,0.0,90,0.00,,,0.00,0.00,VWS V14.01,2013-06-05 04:20:00,
2013-06-05 00:21:00,63.2,60.2,29.84,NE,55,0.0,0.0,90,0.00,,,0.00,0.00,VWS V14.01,2013-06-05 04:21:00,
2013-06-05 00:22:00,63.2,60.2,29.84,NE,55,0.0,0.0,90,0.00,,,0.00,0.00,VWS V14.01,2013-06-05 04:22:00,
2013-06-05 00:23:00,63.1,60.1,29.84,NE,55,0.0,0.0,90,0.00,,,0.00,0.00,VWS V14.01,2013-06-05 04:23:00,
2013-06-05 00:24:00,63.2,60.2,29.84,NE,55,0.0,0.0,90,0.00,,,0.00,0.00,VWS V14.01,2013-06-05 04:24:00,
2013-06-05 00:25:00,63.1,60.1,29.84,NE,55,0.0,0.0,90,0.00,,,0.00,0.00,VWS V14.01,2013-06-05 04:25:00,
2013-06-05 00:26:00,63.1,60.1,29.84,NE,55,0.0,0.0,90,0.00,,,0.00,0.00,VWS V14.01,2013-06-05 04:26:00,
2013-06-05 00:27:00,62.9,59.9,29.84,NE,55,0.0,0.0,90,0.00,,,0.00,0.00,VWS V14.01,2013-06-05 04:27:00,
2013-06-05 00:28:00,62.9,59.9,29.84,NE,55,0.0,0.0,90,0.00,,,0.00,0.00,VWS V14.01,2013-06-05 04:28:00,
2013-06-05 00:29:00,62.9,59.9,29.84,NE,55,0.0,0.0,90,0.00,,,0.00,0.00,VWS V14.01,2013-06-05 04:29:00,
2013-06-05 00:30:00,63.1,60.1,29.84,NE,55,0.0,0.0,90,0.00,,,0.00,0.00,VWS V14.01,2013-06-05 04:30:00,
2013-06-05 00:31:00,62.7,59.7,29.85,NE,55,0.0,0.0,90,0.00,,,0.00,0.00,VWS V14.01,2013-06-05 04:31:00,
2013-06-05 00:32:00,62.7,59.7,29.85,NE,55,0.0,0.0,90,0.00,,,0.00,0.00,VWS V14.01,2013-06-05 04:32:00,
2013-06-05 00:33:00,62.7,59.7,29.85,NE,55,0.0,0.0,90,0.00,,,0.00,0.00,VWS V14.01,2013-06-05 04:33:00,
2013-06-05 00:34:00,62.7,59.7,29.85,NE,55,0.0,0.0,90,0.00,,,0.00,0.00,VWS V14.01,2013-06-05 04:34:00,
2013-06-05 00:35:00,62.7,59.7,29.85,NE,55,0.0,0.0,90,0.00,,,0.00,0.00,VWS V14.01,2013-06-05 04:35:00,
2013-06-05 00:36:00,62.7,59.7,29.85,NE,55,0.0,0.0,90,0.00,,,0.00,0.00,VWS V14.01,2013-06-05 04:36:00,
2013-06-05 00:37:00,62.6,59.6,29.85,NE,55,0.0,0.0,90,0.00,,,0.00,0.00,VWS V14.01,2013-06-05 04:37:00,
2013-06-05 00:38:00,62.6,59.6,29.85,NE,55,0.0,0.0,90,0.00,,,0.00,0.00,VWS V14.01,2013-06-05 04:38:00,
2013-06-05 00:39:00,62.6,59.6,29.85,NE,55,0.0,0.0,90,0.00,,,0.00,0.00,VWS V14.01,2013-06-05 04:39:00,
2013-06-05 00:40:00,62.6,59.6,29.85,NE,55,0.0,0.0,90,0.00,,,0.00,0.00,VWS V14.01,2013-06-05 04:40:00,
2013-06-05 00:41:00,62.6,59.6,29.85,NE,55,0.0,0.0,90,0.00,,,0.00,0.00,VWS V14.01,2013-06-05 04:41:00,
2013-06-05 00:42:00,62.6,59.6,29.85,NE,55,0.0,0.0,90,0.00,,,0.00,0.00,VWS V14.01,2013-06-05 04:42:00,
2013-06-05 00:43:00,62.4,59.4,29.85,NE,55,0.0,0.0,90,0.00,,,0.00,0.00,VWS V14.01,2013-06-05 04:43:00,
2013-06-05 00:44:00,62.4,59.4,29.85,NE,55,0.0,0.0,90,0.00,,,0.00,0.00,VWS V14.01,2013-06-05 04:44:00,
2013-06-05 00:45:00,62.4,59.4,29.85,NE,55,0.0,0.0,90,0.00,,,0.00,0.00,VWS V14.01,2013-06-05 04:45:00,
2013-06-05 00:46:00,62.4,59.7,29.85,NE,55,0.0,0.0,91,0.00,,,0.00,0.00,VWS V14.01,2013-06-05 04:46:00,
2013-06-05 00:47:00,62.4,59.4,29.85,NE,55,0.0,0.0,90,0.00,,,0.00,0.00,VWS V14.01,2013-06-05 04:47:00,
2013-06-05 00:48:00,62.3,59.6,29.85,NE,55,0.0,0.0,91,0.00,,,0.00,0.00,VWS V14.01,2013-06-05 04:48:00,
2013-06-05 00:49:00,62.3,59.6,29.85,NE,55,0.0,0.0,91,0.00,,,0.00,0.00,VWS V14.01,2013-06-05 04:49:00,
2013-06-05 00:50:00,62.1,59.5,29.85,NE,55,0.0,0.0,91,0.00,,,0.00,0.00,VWS V14.01,2013-06-05 04:50:00,
2013-06-05 00:51:00,62.1,59.5,29.85,NE,55,0.0,0.0,91,0.00,,,0.00,0.00,VWS V14.01,2013-06-05 04:51:00,
2013-06-05 00:52:00,62.3,59.6,29.85,NE,55,0.0,0.0,91,0.00,,,0.00,0.00,VWS V14.01,2013-06-05 04:52:00,
2013-06-05 00:53:00,62.0,59.3,29.85,NE,55,0.0,0.0,91,0.00,,,0.00,0.00,VWS V14.01,2013-06-05 04:53:00,
2013-06-05 00:54:00,62.0,59.3,29.85,NE,55,0.0,0.0,91,0.00,,,0.00,0.00,VWS V14.01,2013-06-05 04:54:00,
2013-06-05 00:55:00,61.8,59.5,29.85,NE,55,0.0,0.0,92,0.00,,,0.00,0.00,VWS V14.01,2013-06-05 04:55:00,
2013-06-05 00:56:00,61.8,59.5,29.85,NE,55,0.0,0.0,92,0.00,,,0.00,0.00,VWS V14.01,2013-06-05 04:56:00,
2013-06-05 00:57:00,62.0,59.3,29.85,NE,55,0.0,0.0,91,0.00,,,0.00,0.00,VWS V14.01,2013-06-05 04:57:00,
2013-06-05 00:58:00,61.8,59.5,29.85,NE,55,0.0,0.0,92,0.00,,,0.00,0.00,VWS V14.01,2013-06-05 04:58:00,
2013-06-05 00:59:00,61.8,59.5,29.85,NE,55,0.0,0.0,92,0.00,,,0.00,0.00,VWS V14.01,2013-06-05 04:59:00,
2013-06-05 01:00:00,61.8,59.5,29.85,NE,55,0.0,0.0,92,0.00,,,0.00,0.00,VWS V14.01,2013-06-05 05:00:00,
2013-06-05 01:01:00,61.6,59.3,29.85,NE,55,0.0,0.0,92,0.00,,,0.00,0.00,VWS V14.01,2013-06-05 05:01:00,
2013-06-05 01:02:00,61.6,59.3,29.85,NE,55,0.0,0.0,92,0.00,,,0.00,0.00,VWS V14.01,2013-06-05 05:02:00,
2013-06-05 01:03:00,61.8,59.5,29.85,NE,55,0.0,0.0,92,0.00,,,0.00,0.00,VWS V14.01,2013-06-05 05:03:00,
2013-06-05 01:04:00,61.6,59.3,29.85,NE,55,0.0,0.0,92,0.00,,,0.00,0.00,VWS V14.01,2013-06-05 05:04:00,
2013-06-05 01:05:00,61.6,59.3,29.85,NE,55,0.0,0.0,92,0.00,,,0.00,0.00,VWS V14.01,2013-06-05 05:05:00,
2013-06-05 01:06:00,61.5,59.2,29.85,NE,55,0.0,0.0,92,0.00,,,0.00,0.00,VWS V14.01,2013-06-05 05:06:00,
2013-06-05 01:07:00,61.5,59.2,29.85,NE,55,0.0,0.0,92,0.00,,,0.00,0.00,VWS V14.01,2013-06-05 05:07:00,
2013-06-05 01:08:00,61.5,59.2,29.85,NE,55,0.0,0.0,92,0.00,,,0.00,0.00,VWS V14.01,2013-06-05 05:08:00,
2013-06-05 01:09:00,61.6,59.3,29.85,NE,55,0.0,0.0,92,0.00,,,0.00,0.00,VWS V14.01,2013-06-05 05:09:00,
2013-06-05 01:10:00,61.5,59.2,29.85,NE,55,0.0,0.0,92,0.00,,,0.00,0.00,VWS V14.01,2013-06-05 05:10:00,
2013-06-05 01:11:00,61.5,59.5,29.85,NE,55,0.0,0.0,93,0.00,,,0.00,0.00,VWS V14.01,2013-06-05 05:11:00,
2013-06-05 01:12:00,61.5,59.5,29.85,NE,55,0.0,0.0,93,0.00,,,0.00,0.00,VWS V14.01,2013-06-05 05:12:00,
2013-06-05 01:13:00,61.5,59.5,29.85,NE,55,0.0,0.0,93,0.00,,,0.00,0.00,VWS V14.01,2013-06-05 05:13:00,
2013-06-05 01:14:00,61.5,59.5,29.85,NE,55,0.0,0.0,93,0.00,,,0.00,0.00,VWS V14.01,2013-06-05 05:14:00,
2013-06-05 01:15:00,61.5,59.2,29.85,NE,55,0.0,0.0,92,0.00,,,0.00,0.00,VWS V14.01,2013-06-05 05:15:00,
2013-06-05 01:16:00,61.5,59.5,29.85,NE,55,0.0,0.0,93,0.00,,,0.00,0.00,VWS V14.01,2013-06-05 05:16:00,
2013-06-05 01:17:00,61.5,59.5,29.85,NE,55,0.0,0.0,93,0.00,,,0.00,0.00,VWS V14.01,2013-06-05 05:17:00,
2013-06-05 01:18:00,61.5,59.5,29.85,NE,55,0.0,0.0,93,0.00,,,0.00,0.00,VWS V14.01,2013-06-05 05:18:00,
2013-06-05 01:19:00,61.3,59.3,29.85,NE,55,0.0,0.0,93,0.00,,,0.00,0.00,VWS V14.01,2013-06-05 05:19:00,
2013-06-05 01:20:00,61.5,59.5,29.85,NE,55,0.0,0.0,93,0.00,,,0.00,0.00,VWS V14.01,2013-06-05 05:20:00,
2013-06-05 01:21:00,61.3,59.3,29.85,NE,55,0.0,0.0,93,0.00,,,0.00,0.00,VWS V14.01,2013-06-05 05:21:00,
2013-06-05 01:22:00,61.3,59.3,29.85,NE,55,0.0,0.0,93,0.00,,,0.00,0.00,VWS V14.01,2013-06-05 05:22:00,
2013-06-05 01:23:00,61.3,59.3,29.85,NE,55,0.0,0.0,93,0.00,,,0.00,0.00,VWS V14.01,2013-06-05 05:23:00,
2013-06-05 01:24:00,61.3,59.3,29.85,NE,55,0.0,0.0,93,0.00,,,0.00,0.00,VWS V14.01,2013-06-05 05:24:00,
2013-06-05 01:25:00,61.3,59.3,29.85,NE,55,0.0,0.0,93,0.00,,,0.00,0.00,VWS V14.01,2013-06-05 05:25:00,
2013-06-05 01:26:00,61.3,59.3,29.85,NE,55,0.0,0.0,93,0.00,,,0.00,0.00,VWS V14.01,2013-06-05 05:26:00,
2013-06-05 01:27:00,61.3,59.6,29.85,NE,55,0.0,0.0,94,0.00,,,0.00,0.00,VWS V14.01,2013-06-05 05:27:00,
2013-06-05 01:28:00,61.3,59.6,29.85,NE,55,0.0,0.0,94,0.00,,,0.00,0.00,VWS V14.01,2013-06-05 05:28:00,
2013-06-05 01:29:00,61.3,59.6,29.85,NE,55,0.0,0.0,94,0.00,,,0.00,0.00,VWS V14.01,2013-06-05 05:29:00,
2013-06-05 01:30:00,61.3,59.6,29.84,NE,55,0.0,0.0,94,0.00,,,0.00,0.00,VWS V14.01,2013-06-05 05:30:00,
2013-06-05 01:31:00,61.3,59.3,29.85,NE,55,0.0,0.0,93,0.00,,,0.00,0.00,VWS V14.01,2013-06-05 05:31:00,
2013-06-05 01:32:00,61.3,59.6,29.84,NE,55,0.0,0.0,94,0.00,,,0.00,0.00,VWS V14.01,2013-06-05 05:32:00,
2013-06-05 01:33:00,61.3,59.6,29.84,NE,55,0.0,0.0,94,0.00,,,0.00,0.00,VWS V14.01,2013-06-05 05:33:00,
2013-06-05 01:34:00,61.5,59.8,29.84,NE,55,0.0,0.0,94,0.00,,,0.00,0.00,VWS V14.01,2013-06-05 05:34:00,
2013-06-05 01:35:00,61.3,59.6,29.84,NE,55,0.0,0.0,94,0.00,,,0.00,0.00,VWS V14.01,2013-06-05 05:35:00,
2013-06-05 01:36:00,61.3,59.6,29.84,NE,55,0.0,0.0,94,0.00,,,0.00,0.00,VWS V14.01,2013-06-05 05:36:00,
2013-06-05 01:37:00,61.3,59.6,29.84,NE,55,0.0,0.0,94,0.00,,,0.00,0.00,VWS V14.01,2013-06-05 05:37:00,
2013-06-05 01:38:00,61.3,59.6,29.84,NE,55,0.0,0.0,94,0.00,,,0.00,0.00,VWS V14.01,2013-06-05 05:38:00,
2013-06-05 01:39:00,61.3,59.6,29.84,NE,55,0.0,0.0,94,0.00,,,0.00,0.00,VWS V14.01,2013-06-05 05:39:00,
2013-06-05 01:40:00,61.5,59.8,29.84,NE,55,0.0,0.0,94,0.00,,,0.00,0.00,VWS V14.01,2013-06-05 05:40:00,
2013-06-05 01:41:00,61.5,59.8,29.84,NE,55,0.0,0.0,94,0.00,,,0.00,0.00,VWS V14.01,2013-06-05 05:41:00,
2013-06-05 01:42:00,61.3,59.6,29.84,NE,55,0.0,0.0,94,0.00,,,0.00,0.00,VWS V14.01,2013-06-05 05:42:00,
2013-06-05 01:43:00,61.3,59.6,29.84,NE,55,0.0,0.0,94,0.00,,,0.00,0.00,VWS V14.01,2013-06-05 05:43:00,
2013-06-05 01:44:00,61.3,59.6,29.84,NE,55,0.0,0.0,94,0.00,,,0.00,0.00,VWS V14.01,2013-06-05 05:44:00,
2013-06-05 01:45:00,61.3,59.6,29.84,NE,55,0.0,0.0,94,0.00,,,0.00,0.00,VWS V14.01,2013-06-05 05:45:00,
2013-06-05 01:46:00,61.3,59.6,29.84,NE,55,0.0,0.0,94,0.00,,,0.00,0.00,VWS V14.01,2013-06-05 05:46:00,
2013-06-05 01:47:00,61.3,59.6,29.84,NE,55,0.0,0.0,94,0.00,,,0.00,0.00,VWS V14.01,2013-06-05 05:47:00,
2013-06-05 01:48:00,61.3,59.9,29.84,NE,55,0.0,0.0,95,0.00,,,0.00,0.00,VWS V14.01,2013-06-05 05:48:00,
2013-06-05 01:49:00,61.3,59.9,29.84,NE,55,0.0,0.0,95,0.00,,,0.00,0.00,VWS V14.01,2013-06-05 05:49:00,
2013-06-05 01:50:00,61.3,59.9,29.84,NE,55,0.0,0.0,95,0.00,,,0.00,0.00,VWS V14.01,2013-06-05 05:50:00,
2013-06-05 01:51:00,61.3,59.9,29.84,NE,55,0.0,0.0,95,0.00,,,0.00,0.00,VWS V14.01,2013-06-05 05:51:00,
2013-06-05 01:52:00,61.3,59.6,29.84,NE,55,0.0,0.0,94,0.00,,,0.00,0.00,VWS V14.01,2013-06-05 05:52:00,
2013-06-05 01:53:00,61.5,60.1,29.84,NE,55,0.0,0.0,95,0.00,,,0.00,0.00,VWS V14.01,2013-06-05 05:53:00,
2013-06-05 01:54:00,61.5,60.1,29.84,NE,55,0.0,0.0,95,0.00,,,0.00,0.00,VWS V14.01,2013-06-05 05:54:00,
2013-06-05 01:55:00,61.5,60.1,29.84,NE,55,0.0,0.0,95,0.00,,,0.00,0.00,VWS V14.01,2013-06-05 05:55:00,
2013-06-05 01:56:00,61.5,60.1,29.84,NE,55,0.0,0.0,95,0.00,,,0.00,0.00,VWS V14.01,2013-06-05 05:56:00,
2013-06-05 01:57:00,61.5,60.1,29.84,NE,55,0.0,0.0,95,0.00,,,0.00,0.00,VWS V14.01,2013-06-05 05:57:00,
2013-06-05 01:58:00,61.5,60.1,29.84,NE,55,0.0,0.0,95,0.00,,,0.00,0.00,VWS V14.01,2013-06-05 05:58:00,
2013-06-05 01:59:00,61.5,60.1,29.84,NE,55,0.0,0.0,95,0.00,,,0.00,0.00,VWS V14.01,2013-06-05 05:59:00,
2013-06-05 02:00:00,61.5,60.1,29.84,NE,55,0.0,0.0,95,0.00,,,0.00,0.00,VWS V14.01,2013-06-05 06:00:00,
2013-06-05 02:01:00,61.5,60.1,29.84,NE,55,0.0,0.0,95,0.00,,,0.00,0.00,VWS V14.01,2013-06-05 06:01:00,
2013-06-05 02:02:00,61.5,60.1,29.84,NE,55,0.0,0.0,95,0.00,,,0.00,0.00,VWS V14.01,2013-06-05 06:02:00,
2013-06-05 02:03:00,61.5,60.1,29.84,NE,55,0.0,0.0,95,0.00,,,0.00,0.00,VWS V14.01,2013-06-05 06:03:00,
2013-06-05 02:04:00,61.5,60.1,29.84,NE,55,0.0,0.0,95,0.00,,,0.00,0.00,VWS V14.01,2013-06-05 06:04:00,
2013-06-05 02:05:00,61.5,60.1,29.84,NE,55,0.0,0.0,95,0.00,,,0.00,0.00,VWS V14.01,2013-06-05 06:05:00,
2013-06-05 02:06:00,61.3,59.9,29.84,NE,55,0.0,0.0,95,0.00,,,0.00,0.00,VWS V14.01,2013-06-05 06:06:00,
2013-06-05 02:07:00,61.3,59.9,29.84,NE,55,0.0,0.0,95,0.00,,,0.00,0.00,VWS V14.01,2013-06-05 06:07:00,
2013-06-05 02:08:00,61.5,60.1,29.84,NE,55,0.0,0.0,95,0.00,,,0.00,0.00,VWS V14.01,2013-06-05 06:08:00,
2013-06-05 02:09:00,61.3,59.9,29.84,NE,55,0.0,0.0,95,0.00,,,0.00,0.00,VWS V14.01,2013-06-05 06:09:00,
2013-06-05 02:10:00,61.3,59.9,29.84,NE,55,0.0,0.0,95,0.00,,,0.00,0.00,VWS V14.01,2013-06-05 06:10:00,
2013-06-05 02:11:00,61.3,59.9,29.84,NE,55,0.0,0.0,95,0.00,,,0.00,0.00,VWS V14.01,2013-06-05 06:11:00,
2013-06-05 02:12:00,61.3,59.9,29.84,NE,55,0.0,0.0,95,0.00,,,0.00,0.00,VWS V14.01,2013-06-05 06:12:00,
2013-06-05 02:13:00,61.3,59.9,29.84,NE,55,0.0,0.0,95,0.00,,,0.00,0.00,VWS V14.01,2013-06-05 06:13:00,
2013-06-05 02:14:00,61.2,59.8,29.84,NE,55,0.0,0.0,95,0.00,,,0.00,0.00,VWS V14.01,2013-06-05 06:14:00,
2013-06-05 02:15:00,61.2,59.8,29.84,NE,55,0.0,0.0,95,0.00,,,0.00,0.00,VWS V14.01,2013-06-05 06:15:00,
2013-06-05 02:16:00,61.0,59.6,29.84,NE,55,0.0,0.0,95,0.00,,,0.00,0.00,VWS V14.01,2013-06-05 06:16:00,
2013-06-05 02:17:00,61.0,59.3,29.84,NE,55,0.0,0.0,94,0.00,,,0.00,0.00,VWS V14.01,2013-06-05 06:17:00,
2013-06-05 02:18:00,61.0,59.3,29.84,NE,55,0.0,0.0,94,0.00,,,0.00,0.00,VWS V14.01,2013-06-05 06:18:00,
2013-06-05 02:19:00,61.2,59.8,29.84,NE,55,0.0,0.0,95,0.00,,,0.00,0.00,VWS V14.01,2013-06-05 06:19:00,
2013-06-05 02:20:00,60.9,59.5,29.84,NE,55,0.0,0.0,95,0.00,,,0.00,0.00,VWS V14.01,2013-06-05 06:20:00,
2013-06-05 02:21:00,60.9,59.5,29.84,NE,55,0.0,0.0,95,0.00,,,0.00,0.00,VWS V14.01,2013-06-05 06:21:00,
2013-06-05 02:22:00,60.9,59.5,29.84,NE,55,0.0,0.0,95,0.00,,,0.00,0.00,VWS V14.01,2013-06-05 06:22:00,
2013-06-05 02:23:00,60.7,59.0,29.84,NE,55,0.0,0.0,94,0.00,,,0.00,0.00,VWS V14.01,2013-06-05 06:23:00,
2013-06-05 02:24:00,60.9,59.5,29.84,NE,55,0.0,0.0,95,0.00,,,0.00,0.00,VWS V14.01,2013-06-05 06:24:00,
2013-06-05 02:25:00,60.7,59.3,29.84,NE,55,0.0,0.0,95,0.00,,,0.00,0.00,VWS V14.01,2013-06-05 06:25:00,
2013-06-05 02:26:00,60.5,58.8,29.84,NE,55,0.0,0.0,94,0.00,,,0.00,0.00,VWS V14.01,2013-06-05 06:26:00,
2013-06-05 02:27:00,60.5,58.8,29.84,NE,55,0.0,0.0,94,0.00,,,0.00,0.00,VWS V14.01,2013-06-05 06:27:00,
2013-06-05 02:28:00,60.5,58.8,29.84,NE,55,0.0,0.0,94,0.00,,,0.00,0.00,VWS V14.01,2013-06-05 06:28:00,
2013-06-05 02:29:00,60.5,59.1,29.84,NE,55,0.0,0.0,95,0.00,,,0.00,0.00,VWS V14.01,2013-06-05 06:29:00,
2013-06-05 02:30:00,60.7,59.3,29.84,NE,55,0.0,0.0,95,0.00,,,0.00,0.00,VWS V14.01,2013-06-05 06:30:00,
2013-06-05 02:31:00,60.5,59.1,29.84,NE,55,0.0,0.0,95,0.00,,,0.00,0.00,VWS V14.01,2013-06-05 06:31:00,
2013-06-05 02:32:00,60.4,59.0,29.84,NE,52,0.0,0.0,95,0.00,,,0.00,0.00,VWS V14.01,2013-06-05 06:32:00,
2013-06-05 02:33:00,60.4,59.0,29.84,NE,55,0.0,0.0,95,0.00,,,0.00,0.00,VWS V14.01,2013-06-05 06:33:00,
2013-06-05 02:34:00,60.4,59.0,29.84,NE,55,0.0,0.0,95,0.00,,,0.00,0.00,VWS V14.01,2013-06-05 06:34:00,
2013-06-05 02:35:00,60.5,58.8,29.84,NE,55,0.0,0.0,94,0.00,,,0.00,0.00,VWS V14.01,2013-06-05 06:35:00,
2013-06-05 02:36:00,60.4,59.0,29.84,NE,55,0.0,0.0,95,0.00,,,0.00,0.00,VWS V14.01,2013-06-05 06:36:00,
2013-06-05 02:37:00,60.4,59.0,29.84,NE,55,0.0,0.0,95,0.00,,,0.00,0.00,VWS V14.01,2013-06-05 06:37:00,
2013-06-05 02:38:00,60.4,59.0,29.84,NE,55,0.0,0.0,95,0.00,,,0.00,0.00,VWS V14.01,2013-06-05 06:38:00,
2013-06-05 02:39:00,60.2,58.8,29.84,NE,55,0.0,0.0,95,0.00,,,0.00,0.00,VWS V14.01,2013-06-05 06:39:00,
2013-06-05 02:40:00,60.2,58.8,29.84,NE,55,0.0,0.0,95,0.00,,,0.00,0.00,VWS V14.01,2013-06-05 06:40:00,
2013-06-05 02:41:00,60.4,59.0,29.84,NE,55,0.0,0.0,95,0.00,,,0.00,0.00,VWS V14.01,2013-06-05 06:41:00,
2013-06-05 02:42:00,60.2,58.8,29.84,NE,55,0.0,0.0,95,0.00,,,0.00,0.00,VWS V14.01,2013-06-05 06:42:00,
2013-06-05 02:43:00,60.2,58.8,29.84,NE,55,0.0,0.0,95,0.00,,,0.00,0.00,VWS V14.01,2013-06-05 06:43:00,
2013-06-05 02:44:00,60.2,58.8,29.84,NE,55,0.0,0.0,95,0.00,,,0.00,0.00,VWS V14.01,2013-06-05 06:44:00,
2013-06-05 02:45:00,60.1,58.7,29.83,NE,55,0.0,0.0,95,0.00,,,0.00,0.00,VWS V14.01,2013-06-05 06:45:00,
2013-06-05 02:46:00,60.1,58.7,29.83,NE,55,0.0,0.0,95,0.00,,,0.00,0.00,VWS V14.01,2013-06-05 06:46:00,
2013-06-05 02:47:00,60.2,58.8,29.84,NE,55,0.0,0.0,95,0.00,,,0.00,0.00,VWS V14.01,2013-06-05 06:47:00,
2013-06-05 02:48:00,60.1,58.7,29.83,NE,55,0.0,0.0,95,0.00,,,0.00,0.00,VWS V14.01,2013-06-05 06:48:00,
2013-06-05 02:49:00,60.1,58.7,29.83,NE,55,0.0,0.0,95,0.00,,,0.00,0.00,VWS V14.01,2013-06-05 06:49:00,
2013-06-05 02:50:00,60.1,58.7,29.83,NE,55,0.0,0.0,95,0.00,,,0.00,0.00,VWS V14.01,2013-06-05 06:50:00,
2013-06-05 02:51:00,60.1,58.7,29.83,NE,55,0.0,0.0,95,0.00,,,0.00,0.00,VWS V14.01,2013-06-05 06:51:00,
2013-06-05 02:52:00,59.9,58.5,29.83,NE,55,0.0,0.0,95,0.00,,,0.00,0.00,VWS V14.01,2013-06-05 06:52:00,
2013-06-05 02:53:00,60.1,58.7,29.83,NE,55,0.0,0.0,95,0.00,,,0.00,0.00,VWS V14.01,2013-06-05 06:53:00,
2013-06-05 02:54:00,59.9,58.5,29.83,NE,55,0.0,0.0,95,0.00,,,0.00,0.00,VWS V14.01,2013-06-05 06:54:00,
2013-06-05 02:55:00,59.9,58.5,29.83,NE,55,0.0,0.0,95,0.00,,,0.00,0.00,VWS V14.01,2013-06-05 06:55:00,
2013-06-05 02:56:00,59.9,58.5,29.83,NE,55,0.0,0.0,95,0.00,,,0.00,0.00,VWS V14.01,2013-06-05 06:56:00,
2013-06-05 02:57:00,59.9,58.5,29.83,NE,52,0.0,0.0,95,0.00,,,0.00,0.00,VWS V14.01,2013-06-05 06:57:00,
2013-06-05 02:58:00,59.9,58.5,29.83,NE,55,0.0,0.0,95,0.00,,,0.00,0.00,VWS V14.01,2013-06-05 06:58:00,
2013-06-05 02:59:00,59.9,58.5,29.83,NE,55,0.0,0.0,95,0.00,,,0.00,0.00,VWS V14.01,2013-06-05 06:59:00,
2013-06-05 03:00:00,59.9,58.8,29.83,NE,55,0.0,0.0,96,0.00,,,0.00,0.00,VWS V14.01,2013-06-05 07:00:00,
2013-06-05 03:01:00,59.9,58.8,29.83,NE,55,0.0,0.0,96,0.00,,,0.00,0.00,VWS V14.01,2013-06-05 07:01:00,
2013-06-05 03:02:00,59.9,58.8,29.83,NE,55,0.0,0.0,96,0.00,,,0.00,0.00,VWS V14.01,2013-06-05 07:02:00,
2013-06-05 03:03:00,59.9,58.8,29.83,NE,55,0.0,0.0,96,0.00,,,0.00,0.00,VWS V14.01,2013-06-05 07:03:00,
2013-06-05 03:04:00,59.9,58.5,29.83,NE,55,0.0,0.0,95,0.00,,,0.00,0.00,VWS V14.01,2013-06-05 07:04:00,
2013-06-05 03:05:00,59.8,58.7,29.83,NE,55,0.0,0.0,96,0.00,,,0.00,0.00,VWS V14.01,2013-06-05 07:05:00,
2013-06-05 03:06:00,59.8,58.7,29.83,NE,55,0.0,0.0,96,0.00,,,0.00,0.00,VWS V14.01,2013-06-05 07:06:00,
2013-06-05 03:07:00,59.8,58.7,29.83,NE,55,0.0,0.0,96,0.00,,,0.00,0.00,VWS V14.01,2013-06-05 07:07:00,
2013-06-05 03:08:00,59.8,58.7,29.83,NE,55,0.0,0.0,96,0.00,,,0.00,0.00,VWS V14.01,2013-06-05 07:08:00,
2013-06-05 03:09:00,59.9,58.8,29.83,NE,55,0.0,0.0,96,0.00,,,0.00,0.00,VWS V14.01,2013-06-05 07:09:00,
2013-06-05 03:10:00,59.8,58.7,29.83,NE,55,0.0,0.0,96,0.00,,,0.00,0.00,VWS V14.01,2013-06-05 07:10:00,
2013-06-05 03:11:00,59.8,58.7,29.83,NE,55,0.0,0.0,96,0.00,,,0.00,0.00,VWS V14.01,2013-06-05 07:11:00,
2013-06-05 03:12:00,59.8,58.7,29.83,NE,55,0.0,0.0,96,0.00,,,0.00,0.00,VWS V14.01,2013-06-05 07:12:00,
2013-06-05 03:13:00,59.8,58.7,29.83,NE,55,0.0,0.0,96,0.00,,,0.00,0.00,VWS V14.01,2013-06-05 07:13:00,
2013-06-05 03:14:00,59.8,58.7,29.83,NE,55,0.0,0.0,96,0.00,,,0.00,0.00,VWS V14.01,2013-06-05 07:14:00,
2013-06-05 03:15:00,59.8,58.7,29.83,NE,55,0.0,0.0,96,0.00,,,0.00,0.00,VWS V14.01,2013-06-05 07:15:00,
2013-06-05 03:16:00,59.8,58.7,29.83,NE,55,0.0,0.0,96,0.00,,,0.00,0.00,VWS V14.01,2013-06-05 07:16:00,
2013-06-05 03:17:00,59.8,58.7,29.83,NE,55,0.0,0.0,96,0.00,,,0.00,0.00,VWS V14.01,2013-06-05 07:17:00,
2013-06-05 03:18:00,59.8,58.7,29.83,NE,55,0.0,0.0,96,0.00,,,0.00,0.00,VWS V14.01,2013-06-05 07:18:00,
2013-06-05 03:19:00,59.8,58.7,29.83,NE,55,0.0,0.0,96,0.00,,,0.00,0.00,VWS V14.01,2013-06-05 07:19:00,
2013-06-05 03:20:00,59.8,58.7,29.83,NE,55,0.0,0.0,96,0.00,,,0.00,0.00,VWS V14.01,2013-06-05 07:20:00,
2013-06-05 03:21:00,59.8,58.7,29.83,NE,55,0.0,0.0,96,0.00,,,0.00,0.00,VWS V14.01,2013-06-05 07:21:00,
2013-06-05 03:22:00,59.8,58.7,29.83,NE,55,0.0,0.0,96,0.00,,,0.00,0.00,VWS V14.01,2013-06-05 07:22:00,
2013-06-05 03:23:00,59.8,58.7,29.83,NE,55,0.0,0.0,96,0.00,,,0.00,0.00,VWS V14.01,2013-06-05 07:23:00,
2013-06-05 03:24:00,59.8,58.7,29.83,NE,55,0.0,0.0,96,0.00,,,0.00,0.00,VWS V14.01,2013-06-05 07:24:00,
2013-06-05 03:25:00,59.8,58.7,29.83,NE,55,0.0,0.0,96,0.00,,,0.00,0.00,VWS V14.01,2013-06-05 07:25:00,
2013-06-05 03:26:00,59.8,58.7,29.83,NE,55,0.0,0.0,96,0.00,,,0.00,0.00,VWS V14.01,2013-06-05 07:26:00,
2013-06-05 03:27:00,59.8,59.0,29.83,NE,55,0.0,0.0,97,0.00,,,0.00,0.00,VWS V14.01,2013-06-05 07:27:00,
2013-06-05 03:28:00,59.8,59.0,29.83,NE,55,0.0,0.0,97,0.00,,,0.00,0.00,VWS V14.01,2013-06-05 07:28:00,
2013-06-05 03:29:00,59.9,59.0,29.83,NE,55,0.0,0.0,97,0.00,,,0.00,0.00,VWS V14.01,2013-06-05 07:29:00,
2013-06-05 03:30:00,59.8,58.7,29.83,NE,55,0.0,0.0,96,0.00,,,0.00,0.00,VWS V14.01,2013-06-05 07:30:00,
2013-06-05 03:31:00,59.9,59.0,29.83,NE,55,0.0,0.0,97,0.00,,,0.00,0.00,VWS V14.01,2013-06-05 07:31:00,
2013-06-05 03:32:00,59.9,59.0,29.83,NE,55,0.0,0.0,97,0.00,,,0.00,0.00,VWS V14.01,2013-06-05 07:32:00,
2013-06-05 03:33:00,59.9,59.0,29.83,NE,55,0.0,0.0,97,0.00,,,0.00,0.00,VWS V14.01,2013-06-05 07:33:00,
2013-06-05 03:34:00,60.1,59.2,29.83,NE,55,0.0,0.0,97,0.00,,,0.00,0.00,VWS V14.01,2013-06-05 07:34:00,
2013-06-05 03:35:00,60.1,59.2,29.83,NE,55,0.0,0.0,97,0.00,,,0.00,0.00,VWS V14.01,2013-06-05 07:35:00,
2013-06-05 03:36:00,59.9,59.0,29.83,NE,55,0.0,0.0,97,0.00,,,0.00,0.00,VWS V14.01,2013-06-05 07:36:00,
2013-06-05 03:37:00,59.9,59.0,29.83,NE,55,0.0,0.0,97,0.00,,,0.00,0.00,VWS V14.01,2013-06-05 07:37:00,
2013-06-05 03:38:00,59.8,59.0,29.83,NE,55,0.0,0.0,97,0.00,,,0.00,0.00,VWS V14.01,2013-06-05 07:38:00,
2013-06-05 03:39:00,59.8,58.7,29.83,NE,55,0.0,0.0,96,0.00,,,0.00,0.00,VWS V14.01,2013-06-05 07:39:00,
2013-06-05 03:40:00,59.6,58.5,29.83,NE,55,0.0,0.0,96,0.00,,,0.00,0.00,VWS V14.01,2013-06-05 07:40:00,
2013-06-05 03:41:00,60.1,59.2,29.83,NE,55,0.0,0.0,97,0.00,,,0.00,0.00,VWS V14.01,2013-06-05 07:41:00,
2013-06-05 03:42:00,59.6,58.5,29.83,NE,55,0.0,0.0,96,0.00,,,0.00,0.00,VWS V14.01,2013-06-05 07:42:00,
2013-06-05 03:43:00,59.5,58.4,29.83,NE,55,0.0,0.0,96,0.00,,,0.00,0.00,VWS V14.01,2013-06-05 07:43:00,
2013-06-05 03:44:00,59.5,58.4,29.83,NE,55,0.0,0.0,96,0.00,,,0.00,0.00,VWS V14.01,2013-06-05 07:44:00,
2013-06-05 03:45:00,59.5,58.4,29.83,NE,55,0.0,0.0,96,0.00,,,0.00,0.00,VWS V14.01,2013-06-05 07:45:00,
2013-06-05 03:46:00,59.5,58.4,29.83,NE,55,0.0,0.0,96,0.00,,,0.00,0.00,VWS V14.01,2013-06-05 07:46:00,
2013-06-05 03:47:00,59.6,58.5,29.83,NE,55,0.0,0.0,96,0.00,,,0.00,0.00,VWS V14.01,2013-06-05 07:47:00,
2013-06-05 03:48:00,59.3,58.2,29.83,NE,55,0.0,0.0,96,0.00,,,0.00,0.00,VWS V14.01,2013-06-05 07:48:00,
2013-06-05 03:49:00,59.3,58.2,29.83,NE,55,0.0,0.0,96,0.00,,,0.00,0.00,VWS V14.01,2013-06-05 07:49:00,
2013-06-05 03:50:00,59.3,58.5,29.83,NE,55,0.0,0.0,97,0.00,,,0.00,0.00,VWS V14.01,2013-06-05 07:50:00,
2013-06-05 03:51:00,59.3,58.2,29.83,NE,55,0.0,0.0,96,0.00,,,0.00,0.00,VWS V14.01,2013-06-05 07:51:00,
2013-06-05 03:52:00,59.5,58.4,29.83,NE,55,0.0,0.0,96,0.00,,,0.00,0.00,VWS V14.01,2013-06-05 07:52:00,
2013-06-05 03:53:00,59.3,58.5,29.83,NE,55,0.0,0.0,97,0.00,,,0.00,0.00,VWS V14.01,2013-06-05 07:53:00,
2013-06-05 03:54:00,59.3,58.5,29.83,NE,55,0.0,0.0,97,0.00,,,0.00,0.00,VWS V14.01,2013-06-05 07:54:00,
2013-06-05 03:55:00,59.3,58.5,29.83,NE,55,0.0,0.0,97,0.00,,,0.00,0.00,VWS V14.01,2013-06-05 07:55:00,
2013-06-05 03:56:00,59.3,58.5,29.83,NE,55,0.0,0.0,97,0.00,,,0.00,0.00,VWS V14.01,2013-06-05 07:56:00,
2013-06-05 03:57:00,59.3,58.5,29.83,NE,55,0.0,0.0,97,0.00,,,0.00,0.00,VWS V14.01,2013-06-05 07:57:00,
2013-06-05 03:58:00,59.3,58.5,29.83,NE,55,0.0,0.0,97,0.00,,,0.00,0.00,VWS V14.01,2013-06-05 07:58:00,
2013-06-05 03:59:00,59.3,58.5,29.83,NE,55,0.0,0.0,97,0.00,,,0.00,0.00,VWS V14.01,2013-06-05 07:59:00,
2013-06-05 04:00:00,59.2,58.3,29.83,NE,55,0.0,0.0,97,0.00,,,0.00,0.00,VWS V14.01,2013-06-05 08:00:00,
2013-06-05 04:01:00,59.2,58.3,29.83,NE,55,0.0,0.0,97,0.00,,,0.00,0.00,VWS V14.01,2013-06-05 08:01:00,
2013-06-05 04:02:00,59.2,58.3,29.83,NE,55,0.0,0.0,97,0.00,,,0.00,0.00,VWS V14.01,2013-06-05 08:02:00,
2013-06-05 04:03:00,59.3,58.5,29.83,NE,55,0.0,0.0,97,0.00,,,0.00,0.00,VWS V14.01,2013-06-05 08:03:00,
2013-06-05 04:04:00,59.2,58.3,29.83,NE,55,0.0,0.0,97,0.00,,,0.00,0.00,VWS V14.01,2013-06-05 08:04:00,
2013-06-05 04:05:00,59.3,58.5,29.83,NE,55,0.0,0.0,97,0.00,,,0.00,0.00,VWS V14.01,2013-06-05 08:05:00,
2013-06-05 04:06:00,59.3,58.5,29.83,NE,55,0.0,0.0,97,0.00,,,0.00,0.00,VWS V14.01,2013-06-05 08:06:00,
2013-06-05 04:07:00,59.3,58.5,29.83,NE,55,0.0,0.0,97,0.00,,,0.00,0.00,VWS V14.01,2013-06-05 08:07:00,
2013-06-05 04:08:00,59.3,58.5,29.83,NE,55,0.0,0.0,97,0.00,,,0.00,0.00,VWS V14.01,2013-06-05 08:08:00,
2013-06-05 04:09:00,59.3,58.5,29.83,NE,55,0.0,0.0,97,0.00,,,0.00,0.00,VWS V14.01,2013-06-05 08:09:00,
2013-06-05 04:10:00,59.3,58.5,29.83,NE,55,0.0,0.0,97,0.00,,,0.00,0.00,VWS V14.01,2013-06-05 08:10:00,
2013-06-05 04:11:00,59.3,58.5,29.83,NE,55,0.0,0.0,97,0.00,,,0.00,0.00,VWS V14.01,2013-06-05 08:11:00,
2013-06-05 04:12:00,59.3,58.5,29.83,NE,52,0.0,0.0,97,0.00,,,0.00,0.00,VWS V14.01,2013-06-05 08:12:00,
2013-06-05 04:13:00,59.3,58.5,29.83,NE,55,0.0,0.0,97,0.00,,,0.00,0.00,VWS V14.01,2013-06-05 08:13:00,
2013-06-05 04:14:00,59.3,58.5,29.83,NE,55,0.0,0.0,97,0.00,,,0.00,0.00,VWS V14.01,2013-06-05 08:14:00,
2013-06-05 04:15:00,59.5,58.7,29.83,NE,55,0.0,0.0,97,0.00,,,0.00,0.00,VWS V14.01,2013-06-05 08:15:00,
2013-06-05 04:16:00,59.5,58.7,29.83,NE,55,0.0,0.0,97,0.00,,,0.00,0.00,VWS V14.01,2013-06-05 08:16:00,
2013-06-05 04:17:00,59.5,58.7,29.83,NE,55,0.0,0.0,97,0.00,,,0.00,0.00,VWS V14.01,2013-06-05 08:17:00,
2013-06-05 04:18:00,59.5,58.7,29.83,NE,55,0.0,0.0,97,0.00,,,0.00,0.00,VWS V14.01,2013-06-05 08:18:00,
2013-06-05 04:19:00,59.3,58.5,29.83,NE,55,0.0,0.0,97,0.00,,,0.00,0.00,VWS V14.01,2013-06-05 08:19:00,
2013-06-05 04:20:00,59.5,58.7,29.83,NE,55,0.0,0.0,97,0.00,,,0.00,0.00,VWS V14.01,2013-06-05 08:20:00,
2013-06-05 04:21:00,59.5,58.7,29.83,NE,55,0.0,0.0,97,0.00,,,0.00,0.00,VWS V14.01,2013-06-05 08:21:00,
2013-06-05 04:22:00,59.5,58.7,29.83,NE,55,0.0,0.0,97,0.00,,,0.00,0.00,VWS V14.01,2013-06-05 08:22:00,
2013-06-05 04:23:00,59.5,58.7,29.83,NE,55,0.0,0.0,97,0.00,,,0.00,0.00,VWS V14.01,2013-06-05 08:23:00,
2013-06-05 04:24:00,59.5,58.7,29.83,NE,55,0.0,0.0,97,0.00,,,0.00,0.00,VWS V14.01,2013-06-05 08:24:00,
2013-06-05 04:25:00,59.5,58.7,29.83,NE,55,0.0,0.0,97,0.00,,,0.00,0.00,VWS V14.01,2013-06-05 08:25:00,
2013-06-05 04:26:00,59.5,58.7,29.83,NE,55,0.0,0.0,97,0.00,,,0.00,0.00,VWS V14.01,2013-06-05 08:26:00,
2013-06-05 04:27:00,59.5,58.9,29.83,NE,55,0.0,0.0,98,0.00,,,0.00,0.00,VWS V14.01,2013-06-05 08:27:00,
2013-06-05 04:28:00,59.6,59.0,29.83,NE,55,0.0,0.0,98,0.00,,,0.00,0.00,VWS V14.01,2013-06-05 08:28:00,
2013-06-05 04:29:00,59.6,59.0,29.83,NE,55,0.0,0.0,98,0.00,,,0.00,0.00,VWS V14.01,2013-06-05 08:29:00,
2013-06-05 04:30:00,59.5,58.7,29.83,NE,55,0.0,0.0,97,0.00,,,0.00,0.00,VWS V14.01,2013-06-05 08:30:00,
2013-06-05 04:31:00,59.6,59.0,29.84,NE,55,0.0,0.0,98,0.00,,,0.00,0.00,VWS V14.01,2013-06-05 08:31:00,
2013-06-05 04:32:00,59.6,59.0,29.84,NE,55,0.0,0.0,98,0.00,,,0.00,0.00,VWS V14.01,2013-06-05 08:32:00,
2013-06-05 04:33:00,59.6,59.0,29.84,NE,55,0.0,0.0,98,0.00,,,0.00,0.00,VWS V14.01,2013-06-05 08:33:00,
2013-06-05 04:34:00,59.6,59.0,29.84,NE,55,0.0,0.0,98,0.00,,,0.00,0.00,VWS V14.01,2013-06-05 08:34:00,
2013-06-05 04:35:00,59.6,59.0,29.84,NE,55,0.0,0.0,98,0.00,,,0.00,0.00,VWS V14.01,2013-06-05 08:35:00,
2013-06-05 04:36:00,59.8,59.2,29.84,NE,55,0.0,0.0,98,0.00,,,0.00,0.00,VWS V14.01,2013-06-05 08:36:00,
2013-06-05 04:37:00,59.8,59.2,29.84,NE,52,0.0,0.0,98,0.00,,,0.00,0.00,VWS V14.01,2013-06-05 08:37:00,
2013-06-05 04:38:00,59.8,59.2,29.84,NE,55,0.0,0.0,98,0.00,,,0.00,0.00,VWS V14.01,2013-06-05 08:38:00,
2013-06-05 04:39:00,59.9,59.3,29.84,NE,55,0.0,0.0,98,0.00,,,0.00,0.00,VWS V14.01,2013-06-05 08:39:00,
2013-06-05 04:40:00,59.8,59.2,29.84,NE,55,0.0,0.0,98,0.00,,,0.00,0.00,VWS V14.01,2013-06-05 08:40:00,
2013-06-05 04:41:00,59.9,59.3,29.84,NE,55,0.0,0.0,98,0.00,,,0.00,0.00,VWS V14.01,2013-06-05 08:41:00,
2013-06-05 04:42:00,59.9,59.3,29.84,NE,55,0.0,0.0,98,0.00,,,0.00,0.00,VWS V14.01,2013-06-05 08:42:00,
2013-06-05 04:43:00,60.1,59.5,29.84,NE,55,0.0,0.0,98,0.00,,,0.00,0.00,VWS V14.01,2013-06-05 08:43:00,
2013-06-05 04:44:00,60.1,59.5,29.84,NE,55,0.0,0.0,98,0.00,,,0.00,0.00,VWS V14.01,2013-06-05 08:44:00,
2013-06-05 04:45:00,59.9,59.3,29.84,NE,55,0.0,0.0,98,0.00,,,0.00,0.00,VWS V14.01,2013-06-05 08:45:00,
2013-06-05 04:46:00,60.1,59.5,29.84,NE,55,0.0,0.0,98,0.00,,,0.00,0.00,VWS V14.01,2013-06-05 08:46:00,
2013-06-05 04:47:00,60.1,59.5,29.84,NE,55,0.0,0.0,98,0.00,,,0.00,0.00,VWS V14.01,2013-06-05 08:47:00,
2013-06-05 04:48:00,60.1,59.5,29.84,NE,55,0.0,0.0,98,0.00,,,0.00,0.00,VWS V14.01,2013-06-05 08:48:00,
2013-06-05 04:49:00,60.1,59.5,29.84,NE,55,0.0,0.0,98,0.00,,,0.00,0.00,VWS V14.01,2013-06-05 08:49:00,
2013-06-05 04:50:00,60.1,59.5,29.84,NE,55,0.0,0.0,98,0.00,,,0.00,0.00,VWS V14.01,2013-06-05 08:50:00,
2013-06-05 04:51:00,60.1,59.5,29.84,NE,55,0.0,0.0,98,0.00,,,0.00,0.00,VWS V14.01,2013-06-05 08:51:00,
2013-06-05 04:52:00,60.1,59.5,29.84,NE,55,0.0,0.0,98,0.00,,,0.00,0.00,VWS V14.01,2013-06-05 08:52:00,
2013-06-05 04:53:00,60.2,59.6,29.84,NE,55,0.0,0.0,98,0.00,,,0.00,0.00,VWS V14.01,2013-06-05 08:53:00,
2013-06-05 04:54:00,60.2,59.6,29.84,NE,55,0.0,0.0,98,0.00,,,0.00,0.00,VWS V14.01,2013-06-05 08:54:00,
2013-06-05 04:55:00,60.1,59.5,29.84,NE,55,0.0,0.0,98,0.00,,,0.00,0.00,VWS V14.01,2013-06-05 08:55:00,
2013-06-05 04:56:00,60.2,59.6,29.84,NE,55,0.0,0.0,98,0.00,,,0.00,0.00,VWS V14.01,2013-06-05 08:56:00,
2013-06-05 04:57:00,60.2,59.6,29.84,NE,55,0.0,0.0,98,0.00,,,0.00,0.00,VWS V14.01,2013-06-05 08:57:00,
2013-06-05 04:58:00,60.2,59.6,29.84,NE,55,0.0,0.0,98,0.00,,,0.00,0.00,VWS V14.01,2013-06-05 08:58:00,
2013-06-05 04:59:00,60.2,59.6,29.84,NE,55,0.0,0.0,98,0.00,,,0.00,0.00,VWS V14.01,2013-06-05 08:59:00,
2013-06-05 05:00:00,60.2,59.6,29.85,NE,55,0.0,0.0,98,0.00,,,0.00,0.00,VWS V14.01,2013-06-05 09:00:00,
2013-06-05 05:01:00,60.2,59.6,29.85,NE,55,0.0,0.0,98,0.00,,,0.00,0.00,VWS V14.01,2013-06-05 09:01:00,
2013-06-05 05:02:00,60.2,59.6,29.84,NE,55,0.0,0.0,98,0.00,,,0.00,0.00,VWS V14.01,2013-06-05 09:02:00,
2013-06-05 05:03:00,60.2,59.6,29.85,NE,55,0.0,0.0,98,0.00,,,0.00,0.00,VWS V14.01,2013-06-05 09:03:00,
2013-06-05 05:04:00,60.2,59.6,29.85,NE,55,0.0,0.0,98,0.00,,,0.00,0.00,VWS V14.01,2013-06-05 09:04:00,
2013-06-05 05:05:00,60.2,59.6,29.85,NE,55,0.0,0.0,98,0.00,,,0.00,0.00,VWS V14.01,2013-06-05 09:05:00,
2013-06-05 05:06:00,60.2,59.6,29.85,NE,55,0.0,0.0,98,0.00,,,0.00,0.00,VWS V14.01,2013-06-05 09:06:00,
2013-06-05 05:07:00,60.2,59.6,29.85,NE,55,0.0,0.0,98,0.00,,,0.00,0.00,VWS V14.01,2013-06-05 09:07:00,
2013-06-05 05:08:00,60.2,59.6,29.85,NE,55,0.0,0.0,98,0.00,,,0.00,0.00,VWS V14.01,2013-06-05 09:08:00,
2013-06-05 05:09:00,60.1,59.5,29.85,NE,55,0.0,0.0,98,0.00,,,0.00,0.00,VWS V14.01,2013-06-05 09:09:00,
2013-06-05 05:10:00,60.1,59.5,29.85,NE,55,0.0,0.0,98,0.00,,,0.00,0.00,VWS V14.01,2013-06-05 09:10:00,
2013-06-05 05:11:00,60.1,59.5,29.85,NE,55,0.0,0.0,98,0.00,,,0.00,0.00,VWS V14.01,2013-06-05 09:11:00,
2013-06-05 05:12:00,60.2,59.6,29.85,NE,55,0.0,0.0,98,0.00,,,0.00,0.00,VWS V14.01,2013-06-05 09:12:00,
2013-06-05 05:13:00,60.1,59.5,29.85,NE,55,0.0,0.0,98,0.00,,,0.00,0.00,VWS V14.01,2013-06-05 09:13:00,
2013-06-05 05:14:00,60.1,59.5,29.85,NE,55,0.0,0.0,98,0.00,,,0.00,0.00,VWS V14.01,2013-06-05 09:14:00,
2013-06-05 05:15:00,60.1,59.5,29.85,NE,55,0.0,0.0,98,0.00,,,0.00,0.00,VWS V14.01,2013-06-05 09:15:00,
2013-06-05 05:16:00,60.1,59.5,29.85,NE,55,0.0,0.0,98,0.00,,,0.00,0.00,VWS V14.01,2013-06-05 09:16:00,
2013-06-05 05:17:00,60.1,59.5,29.85,NE,55,0.0,0.0,98,0.00,,,0.00,0.00,VWS V14.01,2013-06-05 09:17:00,
2013-06-05 05:18:00,60.1,59.5,29.85,NE,55,0.0,0.0,98,0.00,,,0.00,0.00,VWS V14.01,2013-06-05 09:18:00,
2013-06-05 05:19:00,60.1,59.5,29.85,NE,55,0.0,0.0,98,0.00,,,0.00,0.00,VWS V14.01,2013-06-05 09:19:00,
2013-06-05 05:20:00,60.1,59.5,29.85,NE,55,0.0,0.0,98,0.00,,,0.00,0.00,VWS V14.01,2013-06-05 09:20:00,
2013-06-05 05:21:00,60.1,59.5,29.85,NE,55,0.0,0.0,98,0.00,,,0.00,0.00,VWS V14.01,2013-06-05 09:21:00,
2013-06-05 05:22:00,60.1,59.5,29.85,NE,55,0.0,0.0,98,0.00,,,0.00,0.00,VWS V14.01,2013-06-05 09:22:00,
2013-06-05 05:23:00,60.1,59.5,29.85,NE,55,0.0,0.0,98,0.00,,,0.00,0.00,VWS V14.01,2013-06-05 09:23:00,
2013-06-05 05:24:00,60.2,59.6,29.85,NNE,24,0.0,0.0,98,0.00,,,0.00,0.00,VWS V14.01,2013-06-05 09:24:00,
2013-06-05 05:25:00,60.2,59.6,29.85,NE,35,0.0,0.0,98,0.00,,,0.00,0.00,VWS V14.01,2013-06-05 09:25:00,
2013-06-05 05:26:00,60.2,59.6,29.85,NE,35,0.0,0.0,98,0.00,,,0.00,0.00,VWS V14.01,2013-06-05 09:26:00,
2013-06-05 05:27:00,60.4,59.8,29.85,NE,38,0.0,0.0,98,0.00,,,0.00,0.00,VWS V14.01,2013-06-05 09:27:00,
2013-06-05 05:28:00,60.4,59.8,29.85,NNE,18,0.0,0.0,98,0.00,,,0.00,0.00,VWS V14.01,2013-06-05 09:28:00,
2013-06-05 05:29:00,60.2,59.6,29.85,NNE,24,0.0,0.0,98,0.00,,,0.00,0.00,VWS V14.01,2013-06-05 09:29:00,
2013-06-05 05:30:00,60.4,59.8,29.85,NE,47,0.0,0.0,98,0.00,,,0.00,0.00,VWS V14.01,2013-06-05 09:30:00,
2013-06-05 05:31:00,60.4,59.8,29.85,NNE,27,0.0,0.0,98,0.00,,,0.00,0.00,VWS V14.01,2013-06-05 09:31:00,
2013-06-05 05:32:00,60.4,59.8,29.85,NNE,27,0.0,0.0,98,0.00,,,0.00,0.00,VWS V14.01,2013-06-05 09:32:00,
2013-06-05 05:33:00,60.4,59.8,29.85,North,359,0.0,0.0,98,0.00,,,0.00,0.00,VWS V14.01,2013-06-05 09:33:00,
2013-06-05 05:34:00,60.4,59.8,29.85,North,359,0.0,0.0,98,0.00,,,0.00,0.00,VWS V14.01,2013-06-05 09:34:00,
2013-06-05 05:35:00,60.4,59.8,29.85,NE,47,0.0,0.0,98,0.00,,,0.00,0.00,VWS V14.01,2013-06-05 09:35:00,
2013-06-05 05:36:00,60.4,59.8,29.85,NNE,21,0.0,0.0,98,0.00,,,0.00,0.00,VWS V14.01,2013-06-05 09:36:00,
2013-06-05 05:37:00,60.4,59.8,29.85,NNE,21,0.0,0.0,98,0.00,,,0.00,0.00,VWS V14.01,2013-06-05 09:37:00,
2013-06-05 05:38:00,60.2,59.6,29.85,NNE,32,0.0,0.0,98,0.00,,,0.00,0.00,VWS V14.01,2013-06-05 09:38:00,
2013-06-05 05:39:00,60.2,59.6,29.85,NNE,24,0.0,0.0,98,0.00,,,0.00,0.00,VWS V14.01,2013-06-05 09:39:00,
2013-06-05 05:40:00,60.4,59.8,29.85,NNE,21,0.0,0.0,98,0.00,,,0.00,0.00,VWS V14.01,2013-06-05 09:40:00,
2013-06-05 05:41:00,60.1,59.5,29.85,NNE,23,0.0,0.0,98,0.00,,,0.00,0.00,VWS V14.01,2013-06-05 09:41:00,
2013-06-05 05:42:00,60.1,59.5,29.85,NE,47,0.0,0.0,98,0.00,,,0.00,0.00,VWS V14.01,2013-06-05 09:42:00,
2013-06-05 05:43:00,60.1,59.5,29.85,NE,56,0.0,0.0,98,0.00,,,0.00,0.00,VWS V14.01,2013-06-05 09:43:00,
2013-06-05 05:44:00,59.9,59.3,29.85,NE,51,0.0,0.0,98,0.00,,,0.00,0.00,VWS V14.01,2013-06-05 09:44:00,
2013-06-05 05:45:00,60.2,59.6,29.85,NE,54,0.0,0.0,98,0.00,,,0.00,0.00,VWS V14.01,2013-06-05 09:45:00,
2013-06-05 05:46:00,59.9,59.3,29.86,NNE,16,0.0,0.0,98,0.00,,,0.00,0.00,VWS V14.01,2013-06-05 09:46:00,
2013-06-05 05:47:00,59.9,59.3,29.86,NNE,16,0.0,0.0,98,0.00,,,0.00,0.00,VWS V14.01,2013-06-05 09:47:00,
2013-06-05 05:48:00,59.8,59.2,29.86,NNE,16,0.0,0.0,98,0.00,,,0.00,0.00,VWS V14.01,2013-06-05 09:48:00,
2013-06-05 05:49:00,59.8,59.2,29.86,NNE,16,0.0,0.0,98,0.00,,,0.00,0.00,VWS V14.01,2013-06-05 09:49:00,
2013-06-05 05:50:00,59.8,59.2,29.86,NNE,17,0.0,0.0,98,0.00,,,0.00,0.00,VWS V14.01,2013-06-05 09:50:00,
2013-06-05 05:51:00,59.9,59.3,29.86,NNE,16,0.0,0.0,98,0.00,,,0.00,0.00,VWS V14.01,2013-06-05 09:51:00,
2013-06-05 05:52:00,59.6,59.0,29.86,NNE,17,0.0,0.0,98,0.00,,,0.00,0.00,VWS V14.01,2013-06-05 09:52:00,
2013-06-05 05:53:00,59.6,59.0,29.86,NNE,18,0.0,0.0,98,0.00,,,0.00,0.00,VWS V14.01,2013-06-05 09:53:00,
2013-06-05 05:54:00,59.6,59.0,29.86,NNE,18,0.0,0.0,98,0.00,,,0.00,0.00,VWS V14.01,2013-06-05 09:54:00,
2013-06-05 05:55:00,59.6,59.0,29.86,NNE,18,0.0,0.0,98,0.00,,,0.00,0.00,VWS V14.01,2013-06-05 09:55:00,
2013-06-05 05:56:00,59.8,59.2,29.86,NNE,20,0.0,0.0,98,0.00,,,0.00,0.00,VWS V14.01,2013-06-05 09:56:00,
2013-06-05 05:57:00,59.6,59.0,29.86,NNE,18,0.0,0.0,98,0.00,,,0.00,0.00,VWS V14.01,2013-06-05 09:57:00,
2013-06-05 05:58:00,59.6,59.0,29.86,NNE,20,0.0,0.0,98,0.00,,,0.00,0.00,VWS V14.01,2013-06-05 09:58:00,
2013-06-05 05:59:00,59.5,58.9,29.86,NNE,20,0.0,0.0,98,0.00,,,0.00,0.00,VWS V14.01,2013-06-05 09:59:00,
2013-06-05 06:00:00,59.5,58.9,29.86,NNE,30,0.0,0.0,98,0.00,,,0.00,0.00,VWS V14.01,2013-06-05 10:00:00,
2013-06-05 06:01:00,59.5,58.9,29.86,NE,41,0.0,0.0,98,0.00,,,0.00,0.00,VWS V14.01,2013-06-05 10:01:00,
2013-06-05 06:02:00,59.6,59.0,29.86,NNE,18,0.0,0.0,98,0.00,,,0.00,0.00,VWS V14.01,2013-06-05 10:02:00,
2013-06-05 06:03:00,59.5,58.9,29.86,NNE,30,0.0,0.0,98,0.00,,,0.00,0.00,VWS V14.01,2013-06-05 10:03:00,
2013-06-05 06:04:00,59.5,58.9,29.86,NNE,30,0.0,0.0,98,0.00,,,0.00,0.00,VWS V14.01,2013-06-05 10:04:00,
2013-06-05 06:05:00,59.5,58.9,29.86,NNE,30,0.0,0.0,98,0.00,,,0.00,7.00,VWS V14.01,2013-06-05 10:05:00,
2013-06-05 06:06:00,59.5,58.9,29.86,North,11,0.0,0.0,98,0.00,,,0.00,7.00,VWS V14.01,2013-06-05 10:06:00,
2013-06-05 06:07:00,59.5,58.9,29.86,NE,41,0.0,0.0,98,0.00,,,0.00,0.00,VWS V14.01,2013-06-05 10:07:00,
2013-06-05 06:08:00,59.3,58.7,29.86,North,11,0.0,0.0,98,0.00,,,0.00,7.00,VWS V14.01,2013-06-05 10:08:00,
2013-06-05 06:09:00,59.3,58.7,29.86,NNE,25,0.0,0.0,98,0.00,,,0.00,18.00,VWS V14.01,2013-06-05 10:09:00,
2013-06-05 06:10:00,59.3,58.7,29.86,NNE,25,0.0,0.0,98,0.00,,,0.00,18.00,VWS V14.01,2013-06-05 10:10:00,
2013-06-05 06:11:00,59.3,58.7,29.86,NNE,25,0.0,0.0,98,0.00,,,0.00,18.00,VWS V14.01,2013-06-05 10:11:00,
2013-06-05 06:12:00,59.5,58.9,29.86,North,11,0.0,0.0,98,0.00,,,0.00,7.00,VWS V14.01,2013-06-05 10:12:00,
2013-06-05 06:13:00,59.3,58.7,29.86,NNE,25,0.0,0.0,98,0.00,,,0.00,16.00,VWS V14.01,2013-06-05 10:13:00,
2013-06-05 06:14:00,59.3,58.7,29.86,NNE,25,0.0,0.0,98,0.00,,,0.00,16.00,VWS V14.01,2013-06-05 10:14:00,
2013-06-05 06:15:00,59.3,58.7,29.87,NNE,25,0.0,0.0,98,0.00,,,0.00,16.00,VWS V14.01,2013-06-05 10:15:00,
2013-06-05 06:16:00,59.3,58.7,29.87,NNE,25,0.0,0.0,98,0.00,,,0.00,16.00,VWS V14.01,2013-06-05 10:16:00,
2013-06-05 06:17:00,59.3,58.7,29.86,NNE,25,0.0,0.0,98,0.00,,,0.00,18.00,VWS V14.01,2013-06-05 10:17:00,
2013-06-05 06:18:00,59.3,58.7,29.87,NNE,25,0.0,0.0,98,0.00,,,0.00,25.00,VWS V14.01,2013-06-05 10:18:00,
2013-06-05 06:19:00,59.3,58.7,29.87,NNE,25,0.0,0.0,98,0.00,,,0.00,25.00,VWS V14.01,2013-06-05 10:19:00,
2013-06-05 06:20:00,59.3,58.7,29.87,NNE,27,0.0,0.0,98,0.00,,,0.00,25.00,VWS V14.01,2013-06-05 10:20:00,
2013-06-05 06:21:00,59.3,58.7,29.87,NNE,25,0.0,0.0,98,0.00,,,0.00,25.00,VWS V14.01,2013-06-05 10:21:00,
2013-06-05 06:22:00,59.3,58.7,29.87,NNE,25,0.0,0.0,98,0.00,,,0.00,25.00,VWS V14.01,2013-06-05 10:22:00,
2013-06-05 06:23:00,59.3,58.7,29.87,NNE,25,0.0,0.0,98,0.00,,,0.00,23.00,VWS V14.01,2013-06-05 10:23:00,
2013-06-05 06:24:00,59.3,58.7,29.87,NNE,25,0.0,0.0,98,0.00,,,0.00,23.00,VWS V14.01,2013-06-05 10:24:00,
2013-06-05 06:25:00,59.3,58.7,29.87,NNE,25,0.0,0.0,98,0.00,,,0.00,23.00,VWS V14.01,2013-06-05 10:25:00,
2013-06-05 06:26:00,59.3,58.7,29.87,NNE,25,0.0,0.0,98,0.00,,,0.00,23.00,VWS V14.01,2013-06-05 10:26:00,
2013-06-05 06:27:00,59.3,58.7,29.87,NNE,25,0.0,0.0,98,0.00,,,0.00,25.00,VWS V14.01,2013-06-05 10:27:00,
2013-06-05 06:28:00,59.3,58.7,29.87,NNE,25,0.0,0.0,98,0.00,,,0.00,23.00,VWS V14.01,2013-06-05 10:28:00,
2013-06-05 06:29:00,59.3,58.7,29.87,NNE,25,0.0,0.0,98,0.00,,,0.00,25.00,VWS V14.01,2013-06-05 10:29:00,
2013-06-05 06:30:00,59.3,58.7,29.87,NNE,25,0.0,0.0,98,0.00,,,0.00,33.00,VWS V14.01,2013-06-05 10:30:00,
2013-06-05 06:31:00,59.3,58.7,29.87,NNE,25,0.0,0.0,98,0.00,,,0.00,33.00,VWS V14.01,2013-06-05 10:31:00,
2013-06-05 06:32:00,59.3,58.7,29.87,NNE,25,0.0,0.0,98,0.00,,,0.00,33.00,VWS V14.01,2013-06-05 10:32:00,
2013-06-05 06:33:00,59.3,58.7,29.87,NNE,27,0.0,0.0,98,0.00,,,0.00,33.00,VWS V14.01,2013-06-05 10:33:00,
2013-06-05 06:34:00,59.3,58.7,29.87,NNE,25,0.0,0.0,98,0.00,,,0.00,25.00,VWS V14.01,2013-06-05 10:34:00,
2013-06-05 06:35:00,59.3,59.0,29.87,NNE,25,0.0,0.0,99,0.00,,,0.00,46.00,VWS V14.01,2013-06-05 10:35:00,
2013-06-05 06:36:00,59.3,59.0,29.87,NNE,25,0.0,0.0,99,0.00,,,0.00,46.00,VWS V14.01,2013-06-05 10:36:00,
2013-06-05 06:37:00,59.3,59.0,29.87,NNE,25,0.0,0.0,99,0.00,,,0.00,46.00,VWS V14.01,2013-06-05 10:37:00,
2013-06-05 06:38:00,59.3,59.0,29.87,NNE,25,0.0,0.0,99,0.00,,,0.00,37.00,VWS V14.01,2013-06-05 10:38:00,
2013-06-05 06:39:00,59.3,58.7,29.87,NNE,25,0.0,0.0,98,0.00,,,0.00,46.00,VWS V14.01,2013-06-05 10:39:00,
2013-06-05 06:40:00,59.3,59.0,29.87,NNE,25,0.0,0.0,99,0.00,,,0.00,37.00,VWS V14.01,2013-06-05 10:40:00,
2013-06-05 06:41:00,59.3,59.0,29.87,NNE,25,0.0,0.0,99,0.00,,,0.00,37.00,VWS V14.01,2013-06-05 10:41:00,
2013-06-05 06:42:00,59.3,59.0,29.87,NNE,25,0.0,0.0,99,0.00,,,0.00,48.00,VWS V14.01,2013-06-05 10:42:00,
2013-06-05 06:43:00,59.3,59.0,29.87,NNE,25,0.0,0.0,99,0.00,,,0.00,48.00,VWS V14.01,2013-06-05 10:43:00,
2013-06-05 06:44:00,59.3,59.0,29.87,NNE,25,0.0,0.0,99,0.00,,,0.00,37.00,VWS V14.01,2013-06-05 10:44:00,
2013-06-05 06:45:00,59.3,59.0,29.88,NNE,25,0.0,0.0,99,0.00,,,0.00,48.00,VWS V14.01,2013-06-05 10:45:00,
2013-06-05 06:46:00,59.3,59.0,29.88,NNE,25,0.0,0.0,99,0.00,,,0.00,48.00,VWS V14.01,2013-06-05 10:46:00,
2013-06-05 06:47:00,59.3,59.0,29.88,NNE,25,0.0,0.0,99,0.00,,,0.00,46.00,VWS V14.01,2013-06-05 10:47:00,
2013-06-05 06:48:00,59.3,59.0,29.88,NNE,25,0.0,0.0,99,0.00,,,0.00,46.00,VWS V14.01,2013-06-05 10:48:00,
2013-06-05 06:49:00,59.3,59.0,29.87,NNE,25,0.0,0.0,99,0.00,,,0.00,48.00,VWS V14.01,2013-06-05 10:49:00,
2013-06-05 06:50:00,59.3,59.0,29.88,NNE,25,0.0,0.0,99,0.00,,,0.00,46.00,VWS V14.01,2013-06-05 10:50:00,
2013-06-05 06:51:00,59.3,59.0,29.88,NNE,25,0.0,0.0,99,0.00,,,0.00,60.00,VWS V14.01,2013-06-05 10:51:00,
2013-06-05 06:52:00,59.3,59.0,29.88,NNE,27,0.0,0.0,99,0.00,,,0.00,77.00,VWS V14.01,2013-06-05 10:52:00,
2013-06-05 06:53:00,59.2,58.9,29.88,NNE,25,0.0,0.0,99,0.00,,,0.00,86.00,VWS V14.01,2013-06-05 10:53:00,
2013-06-05 06:54:00,59.2,58.9,29.88,NNE,25,0.0,0.0,99,0.00,,,0.00,88.00,VWS V14.01,2013-06-05 10:54:00,
2013-06-05 06:55:00,59.3,59.0,29.88,NNE,25,0.0,0.0,99,0.00,,,0.00,46.00,VWS V14.01,2013-06-05 10:55:00,
2013-06-05 06:56:00,59.3,59.0,29.88,NNE,25,0.0,0.0,99,0.00,,,0.00,79.00,VWS V14.01,2013-06-05 10:56:00,
2013-06-05 06:57:00,59.3,59.0,29.88,NNE,25,0.0,0.0,99,0.00,,,0.00,74.00,VWS V14.01,2013-06-05 10:57:00,
2013-06-05 06:58:00,59.3,59.0,29.88,NNE,25,0.0,0.0,99,0.00,,,0.00,83.00,VWS V14.01,2013-06-05 10:58:00,
2013-06-05 06:59:00,59.3,59.0,29.88,NNE,25,0.0,0.0,99,0.00,,,0.00,83.00,VWS V14.01,2013-06-05 10:59:00,
2013-06-05 07:00:00,59.3,59.0,29.89,NNE,25,0.0,0.0,99,0.00,,,0.00,86.00,VWS V14.01,2013-06-05 11:00:00,
2013-06-05 07:01:00,59.3,59.0,29.88,NNE,25,0.0,0.0,99,0.00,,,0.00,79.00,VWS V14.01,2013-06-05 11:01:00,
2013-06-05 07:02:00,59.3,59.0,29.89,NNE,25,0.0,0.0,99,0.00,,,0.00,84.00,VWS V14.01,2013-06-05 11:02:00,
2013-06-05 07:03:00,59.3,59.0,29.89,NNE,25,0.0,0.0,99,0.00,,,0.00,86.00,VWS V14.01,2013-06-05 11:03:00,
2013-06-05 07:04:00,59.5,59.2,29.89,NNE,25,0.0,0.0,99,0.00,,,0.00,88.00,VWS V14.01,2013-06-05 11:04:00,
2013-06-05 07:05:00,59.5,59.2,29.89,NNE,25,0.0,0.0,99,0.00,,,0.00,90.00,VWS V14.01,2013-06-05 11:05:00,
2013-06-05 07:06:00,59.5,59.2,29.89,NE,48,0.0,0.0,99,0.00,,,0.00,95.00,VWS V14.01,2013-06-05 11:06:00,
2013-06-05 07:07:00,59.3,59.0,29.89,NNE,25,0.0,0.0,99,0.00,,,0.00,84.00,VWS V14.01,2013-06-05 11:07:00,
2013-06-05 07:08:00,59.6,59.3,29.89,NNE,18,0.0,0.0,99,0.00,,,0.00,121.00,VWS V14.01,2013-06-05 11:08:00,
2013-06-05 07:09:00,59.6,59.3,29.89,NNE,18,0.0,0.0,99,0.00,,,0.00,127.00,VWS V14.01,2013-06-05 11:09:00,
2013-06-05 07:10:00,59.6,59.3,29.89,North,0,0.0,0.0,99,0.00,,,0.00,128.00,VWS V14.01,2013-06-05 11:10:00,
2013-06-05 07:11:00,59.8,59.5,29.89,NE,48,0.0,0.0,99,0.00,,,0.00,121.00,VWS V14.01,2013-06-05 11:11:00,
2013-06-05 07:12:00,59.5,59.2,29.89,NNE,18,0.0,0.0,99,0.00,,,0.00,114.00,VWS V14.01,2013-06-05 11:12:00,
2013-06-05 07:13:00,59.8,59.5,29.89,NE,48,0.0,0.0,99,0.00,,,0.00,100.00,VWS V14.01,2013-06-05 11:13:00,
2013-06-05 07:14:00,59.9,59.6,29.89,NE,48,0.0,0.0,99,0.00,,,0.00,97.00,VWS V14.01,2013-06-05 11:14:00,
2013-06-05 07:15:00,59.9,59.6,29.88,NNE,25,0.0,0.0,99,0.00,,,0.00,97.00,VWS V14.01,2013-06-05 11:15:00,
2013-06-05 07:16:00,59.9,59.6,29.88,NNE,21,0.0,0.0,99,0.00,,,0.00,102.00,VWS V14.01,2013-06-05 11:16:00,
2013-06-05 07:17:00,59.8,59.5,29.89,NE,48,0.0,0.0,99,0.00,,,0.00,104.00,VWS V14.01,2013-06-05 11:17:00,
2013-06-05 07:18:00,59.9,59.6,29.88,NE,45,0.0,0.0,99,0.00,,,0.00,118.00,VWS V14.01,2013-06-05 11:18:00,
2013-06-05 07:19:00,59.9,59.6,29.88,North,0,0.0,0.0,99,0.00,,,0.00,120.00,VWS V14.01,2013-06-05 11:19:00,
2013-06-05 07:20:00,59.9,59.6,29.88,North,0,0.0,0.0,99,0.00,,,0.00,121.00,VWS V14.01,2013-06-05 11:20:00,
2013-06-05 07:21:00,59.9,59.6,29.88,North,1,0.0,0.0,99,0.00,,,0.00,123.00,VWS V14.01,2013-06-05 11:21:00,
2013-06-05 07:22:00,59.9,59.6,29.88,NNE,21,0.0,0.0,99,0.00,,,0.00,116.00,VWS V14.01,2013-06-05 11:22:00,
2013-06-05 07:23:00,59.9,59.6,29.88,North,0,0.0,0.0,99,0.00,,,0.00,125.00,VWS V14.01,2013-06-05 11:23:00,
2013-06-05 07:24:00,59.9,59.3,29.88,NE,35,0.0,0.0,98,0.00,,,0.00,127.00,VWS V14.01,2013-06-05 11:24:00,
2013-06-05 07:25:00,59.8,59.2,29.88,North,6,0.0,0.0,98,0.00,,,0.00,128.00,VWS V14.01,2013-06-05 11:25:00,
2013-06-05 07:26:00,59.8,59.2,29.88,SSW,196,0.0,0.0,98,0.00,,,0.00,134.00,VWS V14.01,2013-06-05 11:26:00,
2013-06-05 07:27:00,59.9,59.6,29.88,NNE,20,0.0,0.0,99,0.00,,,0.00,123.00,VWS V14.01,2013-06-05 11:27:00,
2013-06-05 07:28:00,59.8,59.2,29.88,NE,37,0.0,0.0,98,0.00,,,0.00,150.00,VWS V14.01,2013-06-05 11:28:00,
2013-06-05 07:29:00,59.8,59.2,29.88,NE,37,0.0,0.0,98,0.00,,,0.00,150.00,VWS V14.01,2013-06-05 11:29:00,
2013-06-05 07:30:00,59.9,59.3,29.88,North,6,0.0,0.0,98,0.00,,,0.00,146.00,VWS V14.01,2013-06-05 11:30:00,
2013-06-05 07:31:00,59.9,59.3,29.88,NE,42,0.0,0.0,98,0.00,,,0.00,141.00,VWS V14.01,2013-06-05 11:31:00,
2013-06-05 07:32:00,59.9,59.3,29.88,North,11,0.0,0.0,98,0.00,,,0.00,137.00,VWS V14.01,2013-06-05 11:32:00,
2013-06-05 07:33:00,59.8,59.2,29.88,NE,37,0.0,0.0,98,0.00,,,0.00,150.00,VWS V14.01,2013-06-05 11:33:00,
2013-06-05 07:34:00,59.8,59.2,29.88,North,7,0.0,0.0,98,0.00,,,0.00,135.00,VWS V14.01,2013-06-05 11:34:00,
2013-06-05 07:35:00,59.8,59.2,29.88,NE,40,0.0,0.0,98,0.00,,,0.00,134.00,VWS V14.01,2013-06-05 11:35:00,
2013-06-05 07:36:00,59.9,59.3,29.88,North,10,0.0,0.0,98,0.00,,,0.00,128.00,VWS V14.01,2013-06-05 11:36:00,
2013-06-05 07:37:00,59.9,59.3,29.88,North,10,0.0,0.0,98,0.00,,,0.00,120.00,VWS V14.01,2013-06-05 11:37:00,
2013-06-05 07:38:00,59.9,59.3,29.88,North,10,0.0,0.0,98,0.00,,,0.00,118.00,VWS V14.01,2013-06-05 11:38:00,
2013-06-05 07:39:00,59.8,59.2,29.88,North,7,0.0,0.0,98,0.00,,,0.00,135.00,VWS V14.01,2013-06-05 11:39:00,
2013-06-05 07:40:00,60.1,59.5,29.88,North,10,0.0,0.0,98,0.00,,,0.00,120.00,VWS V14.01,2013-06-05 11:40:00,
2013-06-05 07:41:00,60.1,59.5,29.88,North,10,0.0,0.0,98,0.00,,,0.00,120.00,VWS V14.01,2013-06-05 11:41:00,
2013-06-05 07:42:00,60.1,59.5,29.88,North,10,0.0,0.0,98,0.00,,,0.00,125.00,VWS V14.01,2013-06-05 11:42:00,
2013-06-05 07:43:00,60.1,59.5,29.88,ENE,68,0.0,0.0,98,0.00,,,0.00,125.00,VWS V14.01,2013-06-05 11:43:00,
2013-06-05 07:44:00,60.1,59.5,29.88,North,11,0.0,0.0,98,0.00,,,0.00,134.00,VWS V14.01,2013-06-05 11:44:00,
2013-06-05 07:45:00,60.1,59.5,29.88,North,10,0.0,0.0,98,0.00,,,0.00,120.00,VWS V14.01,2013-06-05 11:45:00,
2013-06-05 07:46:00,60.2,59.6,29.89,NNE,32,0.0,0.0,98,0.00,,,0.00,143.00,VWS V14.01,2013-06-05 11:46:00,
2013-06-05 07:47:00,60.2,59.6,29.89,NNE,17,0.0,0.0,98,0.00,,,0.00,151.00,VWS V14.01,2013-06-05 11:47:00,
2013-06-05 07:48:00,60.2,59.3,29.89,NNE,28,0.0,0.0,97,0.00,,,0.00,155.00,VWS V14.01,2013-06-05 11:48:00,
2013-06-05 07:49:00,60.2,59.3,29.89,ENE,58,0.0,0.0,97,0.00,,,0.00,155.00,VWS V14.01,2013-06-05 11:49:00,
2013-06-05 07:50:00,60.2,59.3,29.89,NNE,23,0.0,0.0,97,0.00,,,0.00,162.00,VWS V14.01,2013-06-05 11:50:00,
2013-06-05 07:51:00,60.2,59.6,29.89,NNE,32,0.0,0.0,98,0.00,,,0.00,143.00,VWS V14.01,2013-06-05 11:51:00,
2013-06-05 07:52:00,60.2,59.3,29.89,NNE,25,0.0,0.0,97,0.00,,,0.00,178.00,VWS V14.01,2013-06-05 11:52:00,
2013-06-05 07:53:00,60.2,59.3,29.89,North,6,0.0,0.0,97,0.00,,,0.00,183.00,VWS V14.01,2013-06-05 11:53:00,
2013-06-05 07:54:00,60.4,59.5,29.89,NNE,32,0.0,0.0,97,0.00,,,0.00,188.00,VWS V14.01,2013-06-05 11:54:00,
2013-06-05 07:55:00,60.4,59.5,29.89,NNE,32,0.0,0.0,97,0.00,,,0.00,190.00,VWS V14.01,2013-06-05 11:55:00,
2013-06-05 07:56:00,60.4,59.5,29.89,NNE,32,0.0,0.0,97,0.00,,,0.00,190.00,VWS V14.01,2013-06-05 11:56:00,
2013-06-05 07:57:00,60.2,59.3,29.89,NNE,25,0.0,0.0,97,0.00,,,0.00,178.00,VWS V14.01,2013-06-05 11:57:00,
2013-06-05 07:58:00,60.4,59.5,29.89,North,0,0.0,0.0,97,0.00,,,0.00,171.00,VWS V14.01,2013-06-05 11:58:00,
2013-06-05 07:59:00,60.5,59.7,29.89,North,0,0.0,0.0,97,0.00,,,0.00,167.00,VWS V14.01,2013-06-05 11:59:00,
2013-06-05 08:00:00,60.5,59.7,29.88,NNE,20,0.0,0.0,97,0.00,,,0.00,165.00,VWS V14.01,2013-06-05 12:00:00,
2013-06-05 08:01:00,60.5,59.7,29.88,NNE,20,0.0,0.0,97,0.00,,,0.00,164.00,VWS V14.01,2013-06-05 12:01:00,
2013-06-05 08:02:00,60.4,59.5,29.89,NNE,31,0.0,0.0,97,0.00,,,0.00,176.00,VWS V14.01,2013-06-05 12:02:00,
2013-06-05 08:03:00,60.5,59.4,29.88,NNE,13,0.0,0.0,96,0.00,,,0.00,160.00,VWS V14.01,2013-06-05 12:03:00,
2013-06-05 08:04:00,60.5,59.4,29.88,NNE,20,0.0,0.0,96,0.00,,,0.00,162.00,VWS V14.01,2013-06-05 12:04:00,
2013-06-05 08:05:00,60.5,59.4,29.88,NNE,20,0.0,0.0,96,0.00,,,0.00,169.00,VWS V14.01,2013-06-05 12:05:00,
2013-06-05 08:06:00,60.7,59.6,29.88,North,4,0.0,0.0,96,0.00,,,0.00,179.00,VWS V14.01,2013-06-05 12:06:00,
2013-06-05 08:07:00,60.5,59.4,29.88,NNE,20,0.0,0.0,96,0.00,,,0.00,158.00,VWS V14.01,2013-06-05 12:07:00,
2013-06-05 08:08:00,60.7,59.6,29.88,North,10,0.0,0.0,96,0.00,,,0.00,230.00,VWS V14.01,2013-06-05 12:08:00,
2013-06-05 08:09:00,60.7,59.6,29.88,North,0,0.0,0.0,96,0.00,,,0.00,239.00,VWS V14.01,2013-06-05 12:09:00,
2013-06-05 08:10:00,60.7,59.6,29.88,NNE,20,0.0,0.0,96,0.00,,,0.00,241.00,VWS V14.01,2013-06-05 12:10:00,
2013-06-05 08:11:00,60.7,59.3,29.88,North,0,0.0,0.0,95,0.00,,,0.00,257.00,VWS V14.01,2013-06-05 12:11:00,
2013-06-05 08:12:00,60.7,59.3,29.88,NNW,339,0.0,0.0,95,0.00,,,0.00,283.00,VWS V14.01,2013-06-05 12:12:00,
2013-06-05 08:13:00,60.7,59.6,29.88,North,10,0.0,0.0,96,0.00,,,0.00,230.00,VWS V14.01,2013-06-05 12:13:00,
2013-06-05 08:14:00,60.9,59.5,29.88,NNW,343,0.0,0.0,95,0.00,,,0.00,271.00,VWS V14.01,2013-06-05 12:14:00,
2013-06-05 08:15:00,61.0,59.6,29.88,NNW,344,0.0,0.0,95,0.00,,,0.00,271.00,VWS V14.01,2013-06-05 12:15:00,
2013-06-05 08:16:00,61.2,59.8,29.88,North,350,0.0,0.0,95,0.00,,,0.00,271.00,VWS V14.01,2013-06-05 12:16:00,
2013-06-05 08:17:00,61.2,59.8,29.88,North,359,0.0,0.0,95,0.00,,,0.00,271.00,VWS V14.01,2013-06-05 12:17:00,
2013-06-05 08:18:00,60.7,59.3,29.88,NNW,346,0.0,0.0,95,0.00,,,0.00,283.00,VWS V14.01,2013-06-05 12:18:00,
2013-06-05 08:19:00,61.2,59.5,29.88,NNW,344,0.0,0.0,94,0.00,,,0.00,273.00,VWS V14.01,2013-06-05 12:19:00,
2013-06-05 08:20:00,61.3,59.6,29.88,North,353,0.0,0.0,94,0.00,,,0.00,252.00,VWS V14.01,2013-06-05 12:20:00,
2013-06-05 08:21:00,61.3,59.6,29.88,North,10,0.0,0.0,94,0.00,,,0.00,229.00,VWS V14.01,2013-06-05 12:21:00,
2013-06-05 08:22:00,61.3,59.6,29.88,North,0,0.0,0.0,94,0.00,,,0.00,204.00,VWS V14.01,2013-06-05 12:22:00,
2013-06-05 08:23:00,61.2,59.8,29.88,North,0,0.0,0.0,95,0.00,,,0.00,280.00,VWS V14.01,2013-06-05 12:23:00,
2013-06-05 08:24:00,61.3,59.3,29.88,NNE,14,0.0,0.0,93,0.00,,,0.00,201.00,VWS V14.01,2013-06-05 12:24:00,
2013-06-05 08:25:00,61.3,59.3,29.88,NNE,14,0.0,0.0,93,0.00,,,0.00,201.00,VWS V14.01,2013-06-05 12:25:00,
2013-06-05 08:26:00,61.3,59.3,29.88,NNE,14,0.0,0.0,93,0.00,,,0.00,192.00,VWS V14.01,2013-06-05 12:26:00,
2013-06-05 08:27:00,61.5,59.2,29.88,NNE,14,0.0,0.0,92,0.00,,,0.00,183.00,VWS V14.01,2013-06-05 12:27:00,
2013-06-05 08:28:00,61.5,59.5,29.88,NNE,16,0.0,0.0,93,0.00,,,0.00,202.00,VWS V14.01,2013-06-05 12:28:00,
2013-06-05 08:29:00,61.5,59.2,29.88,North,0,0.0,0.0,92,0.00,,,0.00,181.00,VWS V14.01,2013-06-05 12:29:00,
2013-06-05 08:30:00,61.5,59.2,29.89,NE,48,0.0,0.0,92,0.00,,,0.00,183.00,VWS V14.01,2013-06-05 12:30:00,
2013-06-05 08:31:00,61.5,59.2,29.89,North,0,0.0,0.0,92,0.00,,,0.00,183.00,VWS V14.01,2013-06-05 12:31:00,
2013-06-05 08:32:00,61.5,59.2,29.89,NNE,28,0.0,0.0,92,0.00,,,0.00,190.00,VWS V14.01,2013-06-05 12:32:00,
2013-06-05 08:33:00,61.5,59.2,29.88,NNE,14,0.0,0.0,92,0.00,,,0.00,183.00,VWS V14.01,2013-06-05 12:33:00,
2013-06-05 08:34:00,61.5,58.8,29.89,NNE,17,0.0,0.0,91,0.00,,,0.00,192.00,VWS V14.01,2013-06-05 12:34:00,
2013-06-05 08:35:00,61.5,58.8,29.89,ENE,58,0.0,0.0,91,0.00,,,0.00,199.00,VWS V14.01,2013-06-05 12:35:00,
2013-06-05 08:36:00,61.5,58.8,29.89,North,6,0.0,0.0,91,0.00,,,0.00,209.00,VWS V14.01,2013-06-05 12:36:00,
2013-06-05 08:37:00,61.5,58.5,29.89,North,0,0.0,0.0,90,0.00,,,0.00,234.00,VWS V14.01,2013-06-05 12:37:00,
2013-06-05 08:38:00,61.5,58.5,29.89,NNE,13,0.0,0.0,90,0.00,,,0.00,241.00,VWS V14.01,2013-06-05 12:38:00,
2013-06-05 08:39:00,61.5,58.8,29.89,NNE,17,0.0,0.0,91,0.00,,,0.00,192.00,VWS V14.01,2013-06-05 12:39:00,
2013-06-05 08:40:00,61.5,58.5,29.89,North,7,0.0,0.0,90,0.00,,,0.00,252.00,VWS V14.01,2013-06-05 12:40:00,
2013-06-05 08:41:00,61.6,58.6,29.89,North,7,0.0,0.0,90,0.00,,,0.00,262.00,VWS V14.01,2013-06-05 12:41:00,
2013-06-05 08:42:00,61.6,58.6,29.89,North,4,0.0,0.0,90,0.00,,,0.00,259.00,VWS V14.01,2013-06-05 12:42:00,
2013-06-05 08:43:00,61.6,58.3,29.89,North,0,0.0,0.0,89,0.00,,,0.00,248.00,VWS V14.01,2013-06-05 12:43:00,
2013-06-05 08:44:00,61.5,58.5,29.89,North,0,0.0,0.0,90,0.00,,,0.00,245.00,VWS V14.01,2013-06-05 12:44:00,
2013-06-05 08:45:00,61.8,58.5,29.89,NE,42,0.0,0.0,89,0.00,,,0.00,229.00,VWS V14.01,2013-06-05 12:45:00,
2013-06-05 08:46:00,61.8,58.5,29.89,NE,42,0.0,0.0,89,0.00,,,0.00,229.00,VWS V14.01,2013-06-05 12:46:00,
2013-06-05 08:47:00,62.0,58.7,29.89,North,0,0.0,0.0,89,0.00,,,0.00,215.00,VWS V14.01,2013-06-05 12:47:00,
2013-06-05 08:48:00,62.0,58.4,29.89,NE,34,0.0,0.0,88,0.00,,,0.00,213.00,VWS V14.01,2013-06-05 12:48:00,
2013-06-05 08:49:00,62.0,58.4,29.89,ENE,64,0.0,0.0,88,0.00,,,0.00,215.00,VWS V14.01,2013-06-05 12:49:00,
2013-06-05 08:50:00,61.8,58.5,29.89,NE,42,0.0,0.0,89,0.00,,,0.00,229.00,VWS V14.01,2013-06-05 12:50:00,
2013-06-05 08:51:00,62.0,58.4,29.89,NNE,27,0.0,0.0,88,0.00,,,0.00,223.00,VWS V14.01,2013-06-05 12:51:00,
2013-06-05 08:52:00,62.1,58.5,29.89,NE,37,0.0,0.0,88,0.00,,,0.00,218.00,VWS V14.01,2013-06-05 12:52:00,
2013-06-05 08:53:00,62.1,58.5,29.89,NE,37,0.0,0.0,88,0.00,,,0.00,215.00,VWS V14.01,2013-06-05 12:53:00,
2013-06-05 08:54:00,62.1,58.5,29.89,NE,38,0.0,0.0,88,0.00,,,0.00,215.00,VWS V14.01,2013-06-05 12:54:00,
2013-06-05 08:55:00,62.0,58.4,29.89,NNE,27,0.0,0.0,88,0.00,,,0.00,218.00,VWS V14.01,2013-06-05 12:55:00,
2013-06-05 08:56:00,62.3,58.7,29.89,NE,38,0.0,0.0,88,0.00,,,0.00,222.00,VWS V14.01,2013-06-05 12:56:00,
2013-06-05 08:57:00,62.4,58.8,29.89,NE,42,0.0,0.0,88,0.00,,,0.00,259.00,VWS V14.01,2013-06-05 12:57:00,
2013-06-05 08:58:00,62.4,58.5,29.89,NNE,27,0.0,0.0,87,0.00,,,0.00,266.00,VWS V14.01,2013-06-05 12:58:00,
2013-06-05 08:59:00,62.6,58.7,29.89,East,95,0.0,0.0,87,0.00,,,0.00,269.00,VWS V14.01,2013-06-05 12:59:00,
2013-06-05 09:00:00,62.6,58.7,29.89,East,95,0.0,0.0,87,0.00,,,0.00,273.00,VWS V14.01,2013-06-05 13:00:00,
2013-06-05 09:01:00,62.3,58.7,29.89,NE,38,0.0,0.0,88,0.00,,,0.00,222.00,VWS V14.01,2013-06-05 13:01:00,
2013-06-05 09:02:00,62.6,58.4,29.89,NE,49,0.0,0.0,86,0.00,,,0.00,283.00,VWS V14.01,2013-06-05 13:02:00,
2013-06-05 09:03:00,62.7,58.5,29.89,NNE,24,0.0,0.0,86,0.00,,,0.00,283.00,VWS V14.01,2013-06-05 13:03:00,
2013-06-05 09:04:00,62.7,58.5,29.89,NNE,16,0.0,0.0,86,0.00,,,0.00,283.00,VWS V14.01,2013-06-05 13:04:00,
2013-06-05 09:05:00,62.7,58.5,29.89,NNE,21,0.0,0.0,86,0.00,,,0.00,303.00,VWS V14.01,2013-06-05 13:05:00,
2013-06-05 09:06:00,62.6,58.4,29.89,NE,44,0.0,0.0,86,0.00,,,0.00,278.00,VWS V14.01,2013-06-05 13:06:00,
2013-06-05 09:07:00,62.7,58.1,29.89,NE,42,0.0,0.0,85,0.00,,,0.00,317.00,VWS V14.01,2013-06-05 13:07:00,
2013-06-05 09:08:00,62.7,58.1,29.89,NE,44,0.0,0.0,85,0.00,,,0.00,315.00,VWS V14.01,2013-06-05 13:08:00,
2013-06-05 09:09:00,62.9,58.3,29.89,North,352,0.0,0.0,85,0.00,,,0.00,329.00,VWS V14.01,2013-06-05 13:09:00,
2013-06-05 09:10:00,62.9,58.3,29.89,North,352,0.0,0.0,85,0.00,,,0.00,352.00,VWS V14.01,2013-06-05 13:10:00,
2013-06-05 09:11:00,62.9,58.3,29.89,NNW,336,0.0,0.0,85,0.00,,,0.00,382.00,VWS V14.01,2013-06-05 13:11:00,
2013-06-05 09:12:00,62.7,58.1,29.89,NE,42,0.0,0.0,85,0.00,,,0.00,317.00,VWS V14.01,2013-06-05 13:12:00,
2013-06-05 09:13:00,63.1,58.2,29.89,NNW,329,0.0,0.0,84,0.00,,,0.00,343.00,VWS V14.01,2013-06-05 13:13:00,
2013-06-05 09:14:00,63.2,58.3,29.89,NNW,346,0.0,0.0,84,0.00,,,0.00,348.00,VWS V14.01,2013-06-05 13:14:00,
2013-06-05 09:15:00,63.2,58.3,29.89,NNW,346,0.0,0.0,84,0.00,,,0.00,348.00,VWS V14.01,2013-06-05 13:15:00,
2013-06-05 09:16:00,63.2,58.0,29.89,NE,49,0.0,0.0,83,0.00,,,0.00,348.00,VWS V14.01,2013-06-05 13:16:00,
2013-06-05 09:17:00,63.2,58.0,29.89,NNE,18,0.0,0.0,83,0.00,,,0.00,384.00,VWS V14.01,2013-06-05 13:17:00,
2013-06-05 09:18:00,63.1,58.2,29.89,NNW,329,0.0,0.0,84,0.00,,,0.00,343.00,VWS V14.01,2013-06-05 13:18:00,
2013-06-05 09:19:00,63.2,57.6,29.89,North,0,0.0,0.0,82,0.00,,,0.00,389.00,VWS V14.01,2013-06-05 13:19:00,
2013-06-05 09:20:00,63.2,57.6,29.89,NE,41,0.0,0.0,82,0.00,,,0.00,424.00,VWS V14.01,2013-06-05 13:20:00,
2013-06-05 09:21:00,63.2,57.3,29.89,NE,35,0.0,0.0,81,0.00,,,0.00,428.00,VWS V14.01,2013-06-05 13:21:00,
2013-06-05 09:22:00,63.4,57.8,29.89,NNE,16,0.0,0.0,82,0.00,,,0.00,424.00,VWS V14.01,2013-06-05 13:22:00,
2013-06-05 09:23:00,63.2,57.6,29.89,NNE,31,0.0,0.0,82,0.00,,,0.00,421.00,VWS V14.01,2013-06-05 13:23:00,
2013-06-05 09:24:00,63.7,58.1,29.89,North,0,0.0,0.0,82,0.00,,,0.00,403.00,VWS V14.01,2013-06-05 13:24:00,
2013-06-05 09:25:00,63.9,58.3,29.89,NNW,342,0.0,0.0,82,0.00,,,0.00,500.00,VWS V14.01,2013-06-05 13:25:00,
2013-06-05 09:26:00,64.0,58.4,29.89,NNW,342,0.0,0.0,82,0.00,,,0.00,406.00,VWS V14.01,2013-06-05 13:26:00,
2013-06-05 09:27:00,64.3,58.3,29.89,NNW,346,0.0,0.0,81,0.00,,,0.00,406.00,VWS V14.01,2013-06-05 13:27:00,
2013-06-05 09:28:00,64.5,58.5,29.89,North,0,0.0,0.0,81,0.00,,,0.00,428.00,VWS V14.01,2013-06-05 13:28:00,
2013-06-05 09:29:00,63.7,58.1,29.89,North,0,0.0,0.0,82,0.00,,,0.00,403.00,VWS V14.01,2013-06-05 13:29:00,
2013-06-05 09:30:00,64.5,57.8,29.89,NW,308,0.0,0.0,79,0.00,,,0.00,368.00,VWS V14.01,2013-06-05 13:30:00,
2013-06-05 09:31:00,64.5,57.8,29.89,NW,308,0.0,0.0,79,0.00,,,0.00,345.00,VWS V14.01,2013-06-05 13:31:00,
2013-06-05 09:32:00,64.8,58.1,29.89,West,265,0.0,0.0,79,0.00,,,0.00,362.00,VWS V14.01,2013-06-05 13:32:00,
2013-06-05 09:33:00,65.0,58.7,29.89,West,267,0.0,0.0,80,0.00,,,0.00,340.00,VWS V14.01,2013-06-05 13:33:00,
2013-06-05 09:34:00,65.0,58.3,29.89,West,267,0.0,0.0,79,0.00,,,0.00,336.00,VWS V14.01,2013-06-05 13:34:00,
2013-06-05 09:35:00,64.5,57.8,29.89,NW,308,0.0,0.0,79,0.00,,,0.00,368.00,VWS V14.01,2013-06-05 13:35:00,
2013-06-05 09:36:00,65.2,58.5,29.89,North,0,0.0,0.0,79,0.00,,,0.00,322.00,VWS V14.01,2013-06-05 13:36:00,
2013-06-05 09:37:00,65.2,58.2,29.89,NNW,344,0.0,0.0,78,0.00,,,0.00,315.00,VWS V14.01,2013-06-05 13:37:00,
2013-06-05 09:38:00,65.2,58.2,29.89,NNW,344,0.0,0.0,78,0.00,,,0.00,306.00,VWS V14.01,2013-06-05 13:38:00,
2013-06-05 09:39:00,65.2,58.2,29.89,NNW,344,0.0,0.0,78,0.00,,,0.00,297.00,VWS V14.01,2013-06-05 13:39:00,
2013-06-05 09:40:00,65.0,58.0,29.89,North,0,0.0,0.0,78,0.00,,,0.00,336.00,VWS V14.01,2013-06-05 13:40:00,
2013-06-05 09:41:00,65.2,58.2,29.89,North,8,0.0,0.0,78,0.00,,,0.00,266.00,VWS V14.01,2013-06-05 13:41:00,
2013-06-05 09:42:00,65.2,57.8,29.89,ENE,64,0.0,0.0,77,0.00,,,0.00,255.00,VWS V14.01,2013-06-05 13:42:00,
2013-06-05 09:43:00,65.2,58.2,29.89,ENE,64,0.0,0.0,78,0.00,,,0.00,259.00,VWS V14.01,2013-06-05 13:43:00,
2013-06-05 09:44:00,65.2,58.2,29.89,ENE,64,0.0,0.0,78,0.00,,,0.00,274.00,VWS V14.01,2013-06-05 13:44:00,
2013-06-05 09:45:00,65.2,58.2,29.88,ENE,64,0.0,0.0,78,0.00,,,0.00,274.00,VWS V14.01,2013-06-05 13:45:00,
2013-06-05 09:46:00,65.2,58.2,29.89,North,8,0.0,0.0,78,0.00,,,0.00,266.00,VWS V14.01,2013-06-05 13:46:00,
2013-06-05 09:47:00,65.5,58.5,29.88,ENE,64,0.0,0.0,78,0.00,,,0.00,472.00,VWS V14.01,2013-06-05 13:47:00,
2013-06-05 09:48:00,65.5,58.1,29.88,ENE,64,0.0,0.0,77,0.00,,,0.00,473.00,VWS V14.01,2013-06-05 13:48:00,
2013-06-05 09:49:00,65.5,58.1,29.88,ENE,64,0.0,0.0,77,0.00,,,0.00,479.00,VWS V14.01,2013-06-05 13:49:00,
2013-06-05 09:50:00,65.8,58.8,29.88,ENE,64,0.0,0.0,78,0.00,,,0.00,472.00,VWS V14.01,2013-06-05 13:50:00,
2013-06-05 09:51:00,65.3,58.6,29.88,ENE,64,0.0,0.0,79,0.00,,,0.00,274.00,VWS V14.01,2013-06-05 13:51:00,
2013-06-05 09:52:00,66.4,59.0,29.88,NNE,13,0.0,0.0,77,0.00,,,0.00,457.00,VWS V14.01,2013-06-05 13:52:00,
2013-06-05 09:53:00,66.6,59.2,29.88,NE,49,0.0,0.0,77,0.00,,,0.00,475.00,VWS V14.01,2013-06-05 13:53:00,
2013-06-05 09:54:00,66.6,58.8,29.88,North,8,0.0,0.0,76,0.00,,,0.00,456.00,VWS V14.01,2013-06-05 13:54:00,
2013-06-05 09:55:00,66.6,58.8,29.88,North,8,0.0,0.0,76,0.00,,,0.00,477.00,VWS V14.01,2013-06-05 13:55:00,
2013-06-05 09:56:00,66.1,59.4,29.88,ENE,64,0.0,0.0,79,0.00,,,0.00,459.00,VWS V14.01,2013-06-05 13:56:00,
2013-06-05 09:57:00,66.8,58.6,29.88,SE,128,0.0,0.0,75,0.00,,,0.00,486.00,VWS V14.01,2013-06-05 13:57:00,
2013-06-05 09:58:00,66.8,58.6,29.88,SE,128,0.0,0.0,75,0.00,,,0.00,496.00,VWS V14.01,2013-06-05 13:58:00,
2013-06-05 09:59:00,66.8,58.6,29.88,SE,128,0.0,0.0,75,0.00,,,0.00,491.00,VWS V14.01,2013-06-05 13:59:00,
2013-06-05 10:00:00,66.9,58.7,29.88,SE,130,0.0,0.0,75,0.00,,,0.00,470.00,VWS V14.01,2013-06-05 14:00:00,
2013-06-05 10:01:00,66.9,58.7,29.88,SE,127,0.0,0.0,75,0.00,,,0.00,486.00,VWS V14.01,2013-06-05 14:01:00,
2013-06-05 10:02:00,66.8,58.6,29.88,SE,128,0.0,0.0,75,0.00,,,0.00,486.00,VWS V14.01,2013-06-05 14:02:00,
2013-06-05 10:03:00,66.9,58.7,29.88,SE,127,0.0,0.0,75,0.00,,,0.00,466.00,VWS V14.01,2013-06-05 14:03:00,
2013-06-05 10:04:00,66.9,58.7,29.88,SE,127,0.0,0.0,75,0.00,,,0.00,438.00,VWS V14.01,2013-06-05 14:04:00,
2013-06-05 10:05:00,67.1,58.9,29.88,North,0,0.0,0.0,75,0.00,,,0.00,473.00,VWS V14.01,2013-06-05 14:05:00,
2013-06-05 10:06:00,67.4,60.0,29.88,North,7,0.0,0.0,77,0.00,,,0.00,473.00,VWS V14.01,2013-06-05 14:06:00,
2013-06-05 10:07:00,67.6,59.0,29.88,NNE,30,0.0,0.0,74,0.00,,,0.00,482.00,VWS V14.01,2013-06-05 14:07:00,
2013-06-05 10:08:00,66.9,58.7,29.88,SE,127,0.0,0.0,75,0.00,,,0.00,466.00,VWS V14.01,2013-06-05 14:08:00,
2013-06-05 10:09:00,67.8,59.2,29.88,NNE,18,0.0,0.0,74,0.00,,,0.00,461.00,VWS V14.01,2013-06-05 14:09:00,
2013-06-05 10:10:00,67.9,59.3,29.88,NE,55,0.0,0.0,74,0.00,,,0.00,461.00,VWS V14.01,2013-06-05 14:10:00,
2013-06-05 10:11:00,67.9,59.3,29.88,NNE,21,0.0,0.0,74,0.00,,,0.00,457.00,VWS V14.01,2013-06-05 14:11:00,
2013-06-05 10:12:00,68.1,59.5,29.88,NNE,21,0.0,0.0,74,0.00,,,0.00,466.00,VWS V14.01,2013-06-05 14:12:00,
2013-06-05 10:13:00,67.6,59.4,29.88,NNE,28,0.0,0.0,75,0.00,,,0.00,461.00,VWS V14.01,2013-06-05 14:13:00,
2013-06-05 10:14:00,68.3,59.7,29.88,NE,44,0.0,0.0,74,0.00,,,0.00,470.00,VWS V14.01,2013-06-05 14:14:00,
2013-06-05 10:15:00,68.3,59.3,29.87,North,357,0.0,0.0,73,0.00,,,0.00,461.00,VWS V14.01,2013-06-05 14:15:00,
2013-06-05 10:16:00,68.4,59.8,29.87,North,0,0.0,0.0,74,0.00,,,0.00,426.00,VWS V14.01,2013-06-05 14:16:00,
2013-06-05 10:17:00,68.4,59.8,29.87,NNE,14,0.0,0.0,74,0.00,,,0.00,486.00,VWS V14.01,2013-06-05 14:17:00,
2013-06-05 10:18:00,68.3,59.7,29.88,ESE,112,0.0,0.0,74,0.00,,,0.00,468.00,VWS V14.01,2013-06-05 14:18:00,
2013-06-05 10:19:00,68.4,59.4,29.87,ESE,106,0.0,0.0,73,0.00,,,0.00,438.00,VWS V14.01,2013-06-05 14:19:00,
2013-06-05 10:20:00,68.4,59.4,29.87,ESE,120,0.0,0.0,73,0.00,,,0.00,486.00,VWS V14.01,2013-06-05 14:20:00,
2013-06-05 10:21:00,68.4,59.4,29.87,SE,128,0.0,0.0,73,0.00,,,0.00,479.00,VWS V14.01,2013-06-05 14:21:00,
2013-06-05 10:22:00,68.4,59.4,29.87,North,350,0.0,0.0,73,0.00,,,0.00,466.00,VWS V14.01,2013-06-05 14:22:00,
2013-06-05 10:23:00,68.4,59.8,29.87,NE,35,0.0,0.0,74,0.00,,,0.00,479.00,VWS V14.01,2013-06-05 14:23:00,
2013-06-05 10:24:00,68.6,60.0,29.87,NNE,17,0.0,0.0,74,0.00,,,0.00,509.00,VWS V14.01,2013-06-05 14:24:00,
2013-06-05 10:25:00,68.8,60.6,29.87,NNE,17,0.0,0.0,75,0.00,,,0.00,524.00,VWS V14.01,2013-06-05 14:25:00,
2013-06-05 10:26:00,68.9,60.3,29.87,SSE,151,0.0,0.0,74,0.00,,,0.00,547.00,VWS V14.01,2013-06-05 14:26:00,
2013-06-05 10:27:00,69.1,60.8,29.87,SSE,147,0.0,0.0,75,0.00,,,0.00,537.00,VWS V14.01,2013-06-05 14:27:00,
2013-06-05 10:28:00,68.6,60.4,29.87,NNE,17,0.0,0.0,75,0.00,,,0.00,461.00,VWS V14.01,2013-06-05 14:28:00,
2013-06-05 10:29:00,69.3,61.0,29.87,SE,126,0.0,0.0,75,0.00,,,0.00,545.00,VWS V14.01,2013-06-05 14:29:00,
2013-06-05 10:30:00,69.6,61.3,29.86,SSE,167,0.0,0.0,75,0.00,,,0.00,512.00,VWS V14.01,2013-06-05 14:30:00,
2013-06-05 10:31:00,69.6,61.0,29.86,ESE,123,0.0,0.0,74,0.00,,,0.00,498.00,VWS V14.01,2013-06-05 14:31:00,
2013-06-05 10:32:00,69.6,61.0,29.86,SE,130,0.0,0.0,74,0.00,,,0.00,459.00,VWS V14.01,2013-06-05 14:32:00,
2013-06-05 10:33:00,69.6,61.0,29.86,SE,130,0.0,0.0,74,0.00,,,0.00,494.00,VWS V14.01,2013-06-05 14:33:00,
2013-06-05 10:34:00,69.3,61.0,29.87,SE,126,0.0,0.0,75,0.00,,,0.00,545.00,VWS V14.01,2013-06-05 14:34:00,
2013-06-05 10:35:00,69.9,62.0,29.86,North,357,0.0,0.0,76,0.00,,,0.00,399.00,VWS V14.01,2013-06-05 14:35:00,
2013-06-05 10:36:00,69.9,60.9,29.86,North,0,0.0,0.0,73,0.00,,,0.00,406.00,VWS V14.01,2013-06-05 14:36:00,
2013-06-05 10:37:00,70.1,61.0,29.86,North,0,0.0,0.0,73,0.00,,,0.00,424.00,VWS V14.01,2013-06-05 14:37:00,
2013-06-05 10:38:00,70.6,61.5,29.86,NNE,30,0.0,0.0,73,0.00,,,0.00,424.00,VWS V14.01,2013-06-05 14:38:00,
2013-06-05 10:39:00,69.6,61.0,29.86,SE,130,0.0,0.0,74,0.00,,,0.00,494.00,VWS V14.01,2013-06-05 14:39:00,
2013-06-05 10:40:00,70.6,61.2,29.86,NE,35,0.0,0.0,72,0.00,,,0.00,442.00,VWS V14.01,2013-06-05 14:40:00,
2013-06-05 10:41:00,70.4,61.0,29.86,NE,34,0.0,0.0,72,0.00,,,0.00,426.00,VWS V14.01,2013-06-05 14:41:00,
2013-06-05 10:42:00,70.6,61.5,29.86,SE,134,0.0,0.0,73,0.00,,,0.00,454.00,VWS V14.01,2013-06-05 14:42:00,
2013-06-05 10:43:00,70.7,61.6,29.86,North,0,0.0,0.0,73,0.00,,,0.00,440.00,VWS V14.01,2013-06-05 14:43:00,
2013-06-05 10:44:00,70.6,61.5,29.86,North,11,0.0,0.0,73,0.00,,,0.00,421.00,VWS V14.01,2013-06-05 14:44:00,
2013-06-05 10:45:00,70.8,61.7,29.86,North,0,0.0,0.0,73,0.00,,,0.00,429.00,VWS V14.01,2013-06-05 14:45:00,
2013-06-05 10:46:00,70.7,61.6,29.86,North,0,0.0,0.0,73,0.00,,,0.00,436.00,VWS V14.01,2013-06-05 14:46:00,
2013-06-05 10:47:00,70.6,61.9,29.86,North,0,0.0,0.0,74,0.00,,,0.00,433.00,VWS V14.01,2013-06-05 14:47:00,
2013-06-05 10:48:00,70.6,61.5,29.86,North,0,0.0,0.0,73,0.00,,,0.00,443.00,VWS V14.01,2013-06-05 14:48:00,
2013-06-05 10:49:00,70.5,61.4,29.86,North,0,0.0,0.0,73,0.00,,,0.00,412.00,VWS V14.01,2013-06-05 14:49:00,
2013-06-05 10:50:00,70.4,61.3,29.86,North,0,0.0,0.0,73,0.00,,,0.00,405.00,VWS V14.01,2013-06-05 14:50:00,
2013-06-05 10:51:00,70.3,61.6,29.86,North,0,0.0,0.0,74,0.00,,,0.00,394.00,VWS V14.01,2013-06-05 14:51:00,
2013-06-05 10:52:00,70.3,61.6,29.86,North,0,0.0,0.0,74,0.00,,,0.00,385.00,VWS V14.01,2013-06-05 14:52:00,
2013-06-05 10:53:00,70.3,62.0,29.86,North,0,0.0,0.0,75,0.00,,,0.00,394.00,VWS V14.01,2013-06-05 14:53:00,
2013-06-05 10:54:00,70.3,62.0,29.86,North,0,0.0,0.0,75,0.00,,,0.00,385.00,VWS V14.01,2013-06-05 14:54:00,
2013-06-05 10:55:00,70.3,62.0,29.86,North,0,0.0,0.0,75,0.00,,,0.00,378.00,VWS V14.01,2013-06-05 14:55:00,
2013-06-05 10:56:00,70.1,61.8,29.86,North,0,0.0,0.0,75,0.00,,,0.00,377.00,VWS V14.01,2013-06-05 14:56:00,
2013-06-05 10:57:00,70.1,61.8,29.86,North,0,0.0,0.0,75,0.00,,,0.00,398.00,VWS V14.01,2013-06-05 14:57:00,
2013-06-05 10:58:00,70.0,61.7,29.86,North,0,0.0,0.0,75,0.00,,,0.00,410.00,VWS V14.01,2013-06-05 14:58:00,
2013-06-05 10:59:00,69.9,61.6,29.86,North,0,0.0,0.0,75,0.00,,,0.00,419.00,VWS V14.01,2013-06-05 14:59:00,
2013-06-05 11:00:00,69.9,62.0,29.86,North,0,0.0,0.0,76,0.00,,,0.00,417.00,VWS V14.01,2013-06-05 15:00:00,
2013-06-05 11:01:00,70.0,61.7,29.86,North,0,0.0,0.0,75,0.00,,,0.00,417.00,VWS V14.01,2013-06-05 15:01:00,
2013-06-05 11:02:00,70.1,61.8,29.86,North,0,0.0,0.0,75,0.00,,,0.00,526.00,VWS V14.01,2013-06-05 15:02:00,
2013-06-05 11:03:00,70.1,61.8,29.86,North,0,0.0,0.0,75,0.00,,,0.00,484.00,VWS V14.01,2013-06-05 15:03:00,
2013-06-05 11:04:00,70.1,61.8,29.86,North,0,0.0,0.0,75,0.00,,,0.00,503.00,VWS V14.01,2013-06-05 15:04:00,
2013-06-05 11:05:00,70.3,62.0,29.86,North,0,0.0,0.0,75,0.00,,,0.00,547.00,VWS V14.01,2013-06-05 15:05:00,
2013-06-05 11:06:00,70.4,62.1,29.86,North,0,0.0,0.0,75,0.00,,,0.00,540.00,VWS V14.01,2013-06-05 15:06:00,
2013-06-05 11:07:00,70.4,62.5,29.86,North,0,0.0,0.0,76,0.00,,,0.00,525.00,VWS V14.01,2013-06-05 15:07:00,
2013-06-05 11:08:00,70.6,62.3,29.86,North,0,0.0,0.0,75,0.00,,,0.00,496.00,VWS V14.01,2013-06-05 15:08:00,
2013-06-05 11:09:00,70.6,62.3,29.86,North,0,0.0,0.0,75,0.00,,,0.00,470.00,VWS V14.01,2013-06-05 15:09:00,
2013-06-05 11:10:00,70.8,62.5,29.86,North,0,0.0,0.0,75,0.00,,,0.00,447.00,VWS V14.01,2013-06-05 15:10:00,
2013-06-05 11:11:00,70.8,62.1,29.86,North,0,0.0,0.0,74,0.00,,,0.00,433.00,VWS V14.01,2013-06-05 15:11:00,
2013-06-05 11:12:00,70.8,62.1,29.86,North,0,0.0,0.0,74,0.00,,,0.00,428.00,VWS V14.01,2013-06-05 15:12:00,
2013-06-05 11:13:00,70.8,62.1,29.86,North,0,0.0,0.0,74,0.00,,,0.00,394.00,VWS V14.01,2013-06-05 15:13:00,
2013-06-05 11:14:00,70.8,62.1,29.86,North,0,0.0,0.0,74,0.00,,,0.00,380.00,VWS V14.01,2013-06-05 15:14:00,
2013-06-05 11:15:00,70.8,62.1,29.85,North,0,0.0,0.0,74,0.00,,,0.00,362.00,VWS V14.01,2013-06-05 15:15:00,
2013-06-05 11:16:00,70.8,61.7,29.85,North,0,0.0,0.0,73,0.00,,,0.00,362.00,VWS V14.01,2013-06-05 15:16:00,
2013-06-05 11:17:00,70.8,62.1,29.85,North,0,0.0,0.0,74,0.00,,,0.00,343.00,VWS V14.01,2013-06-05 15:17:00,
2013-06-05 11:18:00,70.9,62.2,29.85,North,0,0.0,0.0,74,0.00,,,0.00,333.00,VWS V14.01,2013-06-05 15:18:00,
2013-06-05 11:19:00,70.9,61.8,29.85,North,0,0.0,0.0,73,0.00,,,0.00,334.00,VWS V14.01,2013-06-05 15:19:00,
2013-06-05 11:20:00,70.8,61.7,29.85,North,0,0.0,0.0,73,0.00,,,0.00,377.00,VWS V14.01,2013-06-05 15:20:00,
2013-06-05 11:21:00,70.7,62.0,29.85,North,0,0.0,0.0,74,0.00,,,0.00,373.00,VWS V14.01,2013-06-05 15:21:00,
2013-06-05 11:22:00,70.6,61.5,29.85,North,0,0.0,0.0,73,0.00,,,0.00,374.00,VWS V14.01,2013-06-05 15:22:00,
2013-06-05 11:23:00,70.6,62.3,29.85,North,0,0.0,0.0,75,0.00,,,0.00,377.00,VWS V14.01,2013-06-05 15:23:00,
2013-06-05 11:24:00,70.6,61.9,29.85,North,0,0.0,0.0,74,0.00,,,0.00,384.00,VWS V14.01,2013-06-05 15:24:00,
2013-06-05 11:25:00,70.6,61.9,29.85,North,0,0.0,0.0,74,0.00,,,0.00,406.00,VWS V14.01,2013-06-05 15:25:00,
2013-06-05 11:26:00,70.7,62.8,29.85,North,0,0.0,0.0,76,0.00,,,0.00,440.00,VWS V14.01,2013-06-05 15:26:00,
2013-06-05 11:27:00,70.8,62.1,29.85,North,0,0.0,0.0,74,0.00,,,0.00,445.00,VWS V14.01,2013-06-05 15:27:00,
2013-06-05 11:28:00,70.6,61.9,29.85,North,0,0.0,0.0,74,0.00,,,0.00,412.00,VWS V14.01,2013-06-05 15:28:00,
2013-06-05 11:29:00,70.4,61.7,29.85,North,0,0.0,0.0,74,0.00,,,0.00,413.00,VWS V14.01,2013-06-05 15:29:00,
2013-06-05 11:30:00,70.4,61.7,29.85,North,0,0.0,0.0,74,0.00,,,0.00,438.00,VWS V14.01,2013-06-05 15:30:00,
2013-06-05 11:31:00,70.4,61.7,29.85,North,0,0.0,0.0,74,0.00,,,0.00,406.00,VWS V14.01,2013-06-05 15:31:00,
2013-06-05 11:32:00,70.3,61.6,29.85,North,0,0.0,0.0,74,0.00,,,0.00,389.00,VWS V14.01,2013-06-05 15:32:00,
2013-06-05 11:33:00,70.3,62.0,29.85,North,0,0.0,0.0,75,0.00,,,0.00,389.00,VWS V14.01,2013-06-05 15:33:00,
2013-06-05 11:34:00,70.3,62.4,29.85,North,0,0.0,0.0,76,0.00,,,0.00,405.00,VWS V14.01,2013-06-05 15:34:00,
2013-06-05 11:35:00,70.3,62.4,29.85,North,0,0.0,0.0,76,0.00,,,0.00,435.00,VWS V14.01,2013-06-05 15:35:00,
2013-06-05 11:36:00,70.4,62.8,29.85,North,0,0.0,0.0,77,0.00,,,0.00,435.00,VWS V14.01,2013-06-05 15:36:00,
2013-06-05 11:37:00,70.6,62.3,29.85,North,0,0.0,0.0,75,0.00,,,0.00,408.00,VWS V14.01,2013-06-05 15:37:00,
2013-06-05 11:38:00,70.6,62.3,29.85,North,0,0.0,0.0,75,0.00,,,0.00,389.00,VWS V14.01,2013-06-05 15:38:00,
2013-06-05 11:39:00,70.6,62.3,29.85,North,0,0.0,0.0,75,0.00,,,0.00,396.00,VWS V14.01,2013-06-05 15:39:00,
2013-06-05 11:40:00,70.6,62.3,29.85,North,0,0.0,0.0,75,0.00,,,0.00,410.00,VWS V14.01,2013-06-05 15:40:00,
2013-06-05 11:41:00,70.6,62.7,29.85,North,0,0.0,0.0,76,0.00,,,0.00,456.00,VWS V14.01,2013-06-05 15:41:00,
2013-06-05 11:42:00,70.6,62.7,29.85,North,0,0.0,0.0,76,0.00,,,0.00,461.00,VWS V14.01,2013-06-05 15:42:00,
2013-06-05 11:43:00,70.8,62.9,29.85,North,0,0.0,0.0,76,0.00,,,0.00,449.00,VWS V14.01,2013-06-05 15:43:00,
2013-06-05 11:44:00,70.8,62.5,29.85,North,0,0.0,0.0,75,0.00,,,0.00,473.00,VWS V14.01,2013-06-05 15:44:00,
2013-06-05 11:45:00,70.7,62.0,29.85,North,0,0.0,0.0,74,0.00,,,0.00,472.00,VWS V14.01,2013-06-05 15:45:00,
2013-06-05 11:46:00,70.6,63.0,29.85,North,0,0.0,0.0,77,0.00,,,0.00,470.00,VWS V14.01,2013-06-05 15:46:00,
2013-06-05 11:47:00,70.9,63.3,29.85,North,0,0.0,0.0,77,0.00,,,0.00,497.00,VWS V14.01,2013-06-05 15:47:00,
2013-06-05 11:48:00,71.1,62.8,29.85,North,0,0.0,0.0,75,0.00,,,0.00,491.00,VWS V14.01,2013-06-05 15:48:00,
2013-06-05 11:49:00,71.3,63.0,29.85,North,0,0.0,0.0,75,0.00,,,0.00,412.00,VWS V14.01,2013-06-05 15:49:00,
2013-06-05 11:50:00,71.6,63.3,29.85,North,0,0.0,0.0,75,0.00,,,0.00,394.00,VWS V14.01,2013-06-05 15:50:00,
2013-06-05 11:51:00,71.7,62.6,29.85,North,0,0.0,0.0,73,0.00,,,0.00,378.00,VWS V14.01,2013-06-05 15:51:00,
2013-06-05 11:52:00,71.6,62.5,29.85,North,0,0.0,0.0,73,0.00,,,0.00,391.00,VWS V14.01,2013-06-05 15:52:00,
2013-06-05 11:53:00,71.5,62.4,29.85,North,0,0.0,0.0,73,0.00,,,0.00,401.00,VWS V14.01,2013-06-05 15:53:00,
2013-06-05 11:54:00,71.5,62.4,29.85,North,0,0.0,0.0,73,0.00,,,0.00,410.00,VWS V14.01,2013-06-05 15:54:00,
2013-06-05 11:55:00,71.5,62.8,29.85,North,0,0.0,0.0,74,0.00,,,0.00,438.00,VWS V14.01,2013-06-05 15:55:00,
2013-06-05 11:56:00,71.5,62.4,29.85,North,0,0.0,0.0,73,0.00,,,0.00,440.00,VWS V14.01,2013-06-05 15:56:00,
2013-06-05 11:57:00,71.6,62.5,29.85,North,0,0.0,0.0,73,0.00,,,0.00,381.00,VWS V14.01,2013-06-05 15:57:00,
2013-06-05 11:58:00,71.5,62.4,29.85,North,0,0.0,0.0,73,0.00,,,0.00,378.00,VWS V14.01,2013-06-05 15:58:00,
2013-06-05 11:59:00,71.5,62.4,29.85,North,0,0.0,0.0,73,0.00,,,0.00,412.00,VWS V14.01,2013-06-05 15:59:00,
2013-06-05 12:00:00,71.3,62.2,29.83,North,0,0.0,0.0,73,0.00,,,0.00,431.00,VWS V14.01,2013-06-05 16:00:00,
2013-06-05 12:01:00,71.3,62.2,29.83,North,0,0.0,0.0,73,0.00,,,0.00,421.00,VWS V14.01,2013-06-05 16:01:00,
2013-06-05 12:02:00,71.3,62.6,29.83,North,0,0.0,0.0,74,0.00,,,0.00,424.00,VWS V14.01,2013-06-05 16:02:00,
2013-06-05 12:03:00,71.3,62.2,29.83,North,0,0.0,0.0,73,0.00,,,0.00,431.00,VWS V14.01,2013-06-05 16:03:00,
2013-06-05 12:04:00,71.1,62.0,29.83,North,0,0.0,0.0,73,0.00,,,0.00,468.00,VWS V14.01,2013-06-05 16:04:00,
2013-06-05 12:05:00,71.1,62.0,29.83,North,0,0.0,0.0,73,0.00,,,0.00,426.00,VWS V14.01,2013-06-05 16:05:00,
2013-06-05 12:06:00,71.1,62.4,29.83,North,0,0.0,0.0,74,0.00,,,0.00,429.00,VWS V14.01,2013-06-05 16:06:00,
2013-06-05 12:07:00,71.2,62.5,29.83,North,0,0.0,0.0,74,0.00,,,0.00,463.00,VWS V14.01,2013-06-05 16:07:00,
2013-06-05 12:08:00,71.3,62.6,29.83,North,0,0.0,0.0,74,0.00,,,0.00,450.00,VWS V14.01,2013-06-05 16:08:00,
2013-06-05 12:09:00,71.4,62.7,29.83,North,0,0.0,0.0,74,0.00,,,0.00,466.00,VWS V14.01,2013-06-05 16:09:00,
2013-06-05 12:10:00,71.5,62.8,29.83,North,0,0.0,0.0,74,0.00,,,0.00,463.00,VWS V14.01,2013-06-05 16:10:00,
2013-06-05 12:11:00,71.5,63.2,29.83,North,0,0.0,0.0,75,0.00,,,0.00,494.00,VWS V14.01,2013-06-05 16:11:00,
2013-06-05 12:12:00,71.7,63.0,29.83,North,0,0.0,0.0,74,0.00,,,0.00,466.00,VWS V14.01,2013-06-05 16:12:00,
2013-06-05 12:13:00,71.8,62.7,29.83,North,0,0.0,0.0,73,0.00,,,0.00,489.00,VWS V14.01,2013-06-05 16:13:00,
2013-06-05 12:14:00,71.8,62.7,29.83,North,0,0.0,0.0,73,0.00,,,0.00,489.00,VWS V14.01,2013-06-05 16:14:00,
2013-06-05 12:15:00,72.0,62.9,29.83,North,0,0.0,0.0,73,0.00,,,0.00,489.00,VWS V14.01,2013-06-05 16:15:00,
2013-06-05 12:16:00,72.0,62.9,29.83,North,0,0.0,0.0,73,0.00,,,0.00,283.00,VWS V14.01,2013-06-05 16:16:00,
2013-06-05 12:17:00,72.0,62.9,29.83,North,0,0.0,0.0,73,0.00,,,0.00,261.00,VWS V14.01,2013-06-05 16:17:00,
2013-06-05 12:18:00,72.0,62.9,29.83,North,0,0.0,0.0,73,0.00,,,0.00,245.00,VWS V14.01,2013-06-05 16:18:00,
2013-06-05 12:19:00,71.9,62.8,29.83,North,0,0.0,0.0,73,0.00,,,0.00,238.00,VWS V14.01,2013-06-05 16:19:00,
2013-06-05 12:20:00,71.8,62.7,29.83,North,0,0.0,0.0,73,0.00,,,0.00,238.00,VWS V14.01,2013-06-05 16:20:00,
2013-06-05 12:21:00,71.7,62.6,29.83,North,0,0.0,0.0,73,0.00,,,0.00,246.00,VWS V14.01,2013-06-05 16:21:00,
2013-06-05 12:22:00,71.5,62.4,29.83,North,0,0.0,0.0,73,0.00,,,0.00,253.00,VWS V14.01,2013-06-05 16:22:00,
2013-06-05 12:23:00,71.4,62.3,29.83,North,0,0.0,0.0,73,0.00,,,0.00,225.00,VWS V14.01,2013-06-05 16:23:00,
2013-06-05 12:24:00,71.3,62.6,29.83,North,0,0.0,0.0,74,0.00,,,0.00,195.00,VWS V14.01,2013-06-05 16:24:00,
2013-06-05 12:25:00,71.2,62.5,29.83,North,0,0.0,0.0,74,0.00,,,0.00,167.00,VWS V14.01,2013-06-05 16:25:00,
2013-06-05 12:26:00,71.1,62.4,29.83,North,0,0.0,0.0,74,0.00,,,0.00,146.00,VWS V14.01,2013-06-05 16:26:00,
2013-06-05 12:27:00,71.0,62.3,29.83,North,0,0.0,0.0,74,0.00,,,0.00,133.00,VWS V14.01,2013-06-05 16:27:00,
2013-06-05 12:28:00,70.9,62.6,29.83,North,0,0.0,0.0,75,0.00,,,0.00,137.00,VWS V14.01,2013-06-05 16:28:00,
2013-06-05 12:29:00,70.8,62.5,29.83,North,0,0.0,0.0,75,0.00,,,0.00,148.00,VWS V14.01,2013-06-05 16:29:00,
2013-06-05 12:30:00,70.8,62.5,29.83,North,0,0.0,0.0,75,0.00,,,0.00,165.00,VWS V14.01,2013-06-05 16:30:00,
2013-06-05 12:31:00,70.8,62.5,29.83,North,0,0.0,0.0,75,0.00,,,0.00,185.00,VWS V14.01,2013-06-05 16:31:00,
2013-06-05 12:32:00,70.6,62.3,29.83,North,0,0.0,0.0,75,0.00,,,0.00,208.00,VWS V14.01,2013-06-05 16:32:00,
2013-06-05 12:33:00,70.6,62.3,29.83,North,0,0.0,0.0,75,0.00,,,0.00,230.00,VWS V14.01,2013-06-05 16:33:00,
2013-06-05 12:34:00,70.5,62.6,29.83,North,0,0.0,0.0,76,0.00,,,0.00,246.00,VWS V14.01,2013-06-05 16:34:00,
2013-06-05 12:35:00,70.3,62.0,29.83,North,0,0.0,0.0,75,0.00,,,0.00,255.00,VWS V14.01,2013-06-05 16:35:00,
2013-06-05 12:36:00,70.1,62.6,29.83,North,0,0.0,0.0,77,0.00,,,0.00,267.00,VWS V14.01,2013-06-05 16:36:00,
2013-06-05 12:37:00,70.1,62.6,29.83,North,0,0.0,0.0,77,0.00,,,0.00,285.00,VWS V14.01,2013-06-05 16:37:00,
2013-06-05 12:38:00,69.9,62.0,29.83,North,0,0.0,0.0,76,0.00,,,0.00,308.00,VWS V14.01,2013-06-05 16:38:00,
2013-06-05 12:39:00,69.8,62.3,29.83,North,0,0.0,0.0,77,0.00,,,0.00,324.00,VWS V14.01,2013-06-05 16:39:00,
2013-06-05 12:40:00,69.6,62.1,29.83,North,0,0.0,0.0,77,0.00,,,0.00,345.00,VWS V14.01,2013-06-05 16:40:00,
2013-06-05 12:41:00,69.6,62.1,29.83,North,0,0.0,0.0,77,0.00,,,0.00,352.00,VWS V14.01,2013-06-05 16:41:00,
2013-06-05 12:42:00,69.6,62.1,29.83,North,0,0.0,0.0,77,0.00,,,0.00,383.00,VWS V14.01,2013-06-05 16:42:00,
2013-06-05 12:43:00,69.4,61.9,29.83,North,0,0.0,0.0,77,0.00,,,0.00,405.00,VWS V14.01,2013-06-05 16:43:00,
2013-06-05 12:44:00,69.4,61.9,29.83,North,0,0.0,0.0,77,0.00,,,0.00,412.00,VWS V14.01,2013-06-05 16:44:00,
2013-06-05 12:45:00,69.6,62.1,29.83,North,0,0.0,0.0,77,0.00,,,0.00,408.00,VWS V14.01,2013-06-05 16:45:00,
2013-06-05 12:46:00,69.4,61.9,29.83,North,0,0.0,0.0,77,0.00,,,0.00,442.00,VWS V14.01,2013-06-05 16:46:00,
2013-06-05 12:47:00,69.4,62.2,29.83,North,0,0.0,0.0,78,0.00,,,0.00,446.00,VWS V14.01,2013-06-05 16:47:00,
2013-06-05 12:48:00,69.3,62.2,29.83,North,0,0.0,0.0,78,0.00,,,0.00,421.00,VWS V14.01,2013-06-05 16:48:00,
2013-06-05 12:49:00,69.3,62.2,29.83,North,0,0.0,0.0,78,0.00,,,0.00,429.00,VWS V14.01,2013-06-05 16:49:00,
2013-06-05 12:50:00,69.3,62.2,29.83,North,0,0.0,0.0,78,0.00,,,0.00,429.00,VWS V14.01,2013-06-05 16:50:00,
2013-06-05 12:51:00,69.3,62.9,29.83,North,0,0.0,0.0,80,0.00,,,0.00,456.00,VWS V14.01,2013-06-05 16:51:00,
2013-06-05 12:52:00,69.4,62.6,29.83,North,0,0.0,0.0,79,0.00,,,0.00,456.00,VWS V14.01,2013-06-05 16:52:00,
2013-06-05 12:53:00,69.7,63.3,29.83,North,0,0.0,0.0,80,0.00,,,0.00,421.00,VWS V14.01,2013-06-05 16:53:00,
2013-06-05 12:54:00,69.9,63.1,29.83,North,0,0.0,0.0,79,0.00,,,0.00,421.00,VWS V14.01,2013-06-05 16:54:00,
2013-06-05 12:55:00,69.9,62.7,29.83,North,0,0.0,0.0,78,0.00,,,0.00,456.00,VWS V14.01,2013-06-05 16:55:00,
2013-06-05 12:56:00,69.9,62.4,29.83,North,0,0.0,0.0,77,0.00,,,0.00,456.00,VWS V14.01,2013-06-05 16:56:00,
2013-06-05 12:57:00,69.9,62.7,29.83,North,0,0.0,0.0,78,0.00,,,0.00,456.00,VWS V14.01,2013-06-05 16:57:00,
2013-06-05 12:58:00,69.9,62.4,29.83,North,0,0.0,0.0,77,0.00,,,0.00,468.00,VWS V14.01,2013-06-05 16:58:00,
2013-06-05 12:59:00,69.8,62.3,29.83,North,0,0.0,0.0,77,0.00,,,0.00,468.00,VWS V14.01,2013-06-05 16:59:00,
2013-06-05 13:00:00,69.8,62.3,29.82,North,0,0.0,0.0,77,0.00,,,0.00,380.00,VWS V14.01,2013-06-05 17:00:00,
2013-06-05 13:01:00,69.8,62.3,29.82,North,0,0.0,0.0,77,0.00,,,0.00,364.00,VWS V14.01,2013-06-05 17:01:00,
2013-06-05 13:02:00,69.6,62.1,29.82,North,0,0.0,0.0,77,0.00,,,0.00,322.00,VWS V14.01,2013-06-05 17:02:00,
2013-06-05 13:03:00,69.6,62.4,29.82,North,0,0.0,0.0,78,0.00,,,0.00,216.00,VWS V14.01,2013-06-05 17:03:00,
2013-06-05 13:04:00,69.5,62.3,29.82,North,0,0.0,0.0,78,0.00,,,0.00,188.00,VWS V14.01,2013-06-05 17:04:00,
2013-06-05 13:05:00,69.4,62.2,29.82,North,0,0.0,0.0,78,0.00,,,0.00,178.00,VWS V14.01,2013-06-05 17:05:00,
2013-06-05 13:06:00,69.4,62.2,29.82,North,0,0.0,0.0,78,0.00,,,0.00,174.00,VWS V14.01,2013-06-05 17:06:00,
2013-06-05 13:07:00,69.3,62.5,29.82,North,0,0.0,0.0,79,0.00,,,0.00,166.00,VWS V14.01,2013-06-05 17:07:00,
2013-06-05 13:08:00,69.1,62.3,29.82,North,0,0.0,0.0,79,0.00,,,0.00,162.00,VWS V14.01,2013-06-05 17:08:00,
2013-06-05 13:09:00,69.1,62.7,29.82,North,0,0.0,0.0,80,0.00,,,0.00,187.00,VWS V14.01,2013-06-05 17:09:00,
2013-06-05 13:10:00,69.1,62.7,29.82,North,0,0.0,0.0,80,0.00,,,0.00,230.00,VWS V14.01,2013-06-05 17:10:00,
2013-06-05 13:11:00,69.0,62.6,29.82,North,0,0.0,0.0,80,0.00,,,0.00,255.00,VWS V14.01,2013-06-05 17:11:00,
2013-06-05 13:12:00,68.9,62.5,29.82,North,0,0.0,0.0,80,0.00,,,0.00,231.00,VWS V14.01,2013-06-05 17:12:00,
2013-06-05 13:13:00,68.9,62.5,29.82,North,0,0.0,0.0,80,0.00,,,0.00,201.00,VWS V14.01,2013-06-05 17:13:00,
2013-06-05 13:14:00,68.9,62.5,29.82,North,0,0.0,0.0,80,0.00,,,0.00,192.00,VWS V14.01,2013-06-05 17:14:00,
2013-06-05 13:15:00,68.9,62.5,29.83,North,0,0.0,0.0,80,0.00,,,0.00,202.00,VWS V14.01,2013-06-05 17:15:00,
2013-06-05 13:16:00,68.9,62.5,29.83,North,0,0.0,0.0,80,0.00,,,0.00,218.00,VWS V14.01,2013-06-05 17:16:00,
2013-06-05 13:17:00,68.9,62.8,29.83,North,0,0.0,0.0,81,0.00,,,0.00,229.00,VWS V14.01,2013-06-05 17:17:00,
2013-06-05 13:18:00,68.9,62.8,29.83,North,0,0.0,0.0,81,0.00,,,0.00,259.00,VWS V14.01,2013-06-05 17:18:00,
2013-06-05 13:19:00,68.9,62.8,29.83,North,0,0.0,0.0,81,0.00,,,0.00,276.00,VWS V14.01,2013-06-05 17:19:00,
2013-06-05 13:20:00,68.9,62.5,29.83,North,0,0.0,0.0,80,0.00,,,0.00,294.00,VWS V14.01,2013-06-05 17:20:00,
2013-06-05 13:21:00,68.8,62.7,29.83,North,0,0.0,0.0,81,0.00,,,0.00,308.00,VWS V14.01,2013-06-05 17:21:00,
2013-06-05 13:22:00,68.8,62.7,29.83,North,0,0.0,0.0,81,0.00,,,0.00,340.00,VWS V14.01,2013-06-05 17:22:00,
2013-06-05 13:23:00,68.9,62.8,29.83,North,0,0.0,0.0,81,0.00,,,0.00,375.00,VWS V14.01,2013-06-05 17:23:00,
2013-06-05 13:24:00,68.9,62.8,29.83,North,0,0.0,0.0,81,0.00,,,0.00,375.00,VWS V14.01,2013-06-05 17:24:00,
2013-06-05 13:25:00,69.1,63.0,29.83,North,0,0.0,0.0,81,0.00,,,0.00,301.00,VWS V14.01,2013-06-05 17:25:00,
2013-06-05 13:26:00,69.1,63.0,29.83,North,0,0.0,0.0,81,0.00,,,0.00,294.00,VWS V14.01,2013-06-05 17:26:00,
2013-06-05 13:27:00,69.2,63.1,29.83,North,0,0.0,0.0,81,0.00,,,0.00,288.00,VWS V14.01,2013-06-05 17:27:00,
2013-06-05 13:28:00,69.3,63.2,29.83,North,0,0.0,0.0,81,0.00,,,0.00,273.00,VWS V14.01,2013-06-05 17:28:00,
2013-06-05 13:29:00,69.3,63.2,29.83,North,0,0.0,0.0,81,0.00,,,0.00,253.00,VWS V14.01,2013-06-05 17:29:00,
2013-06-05 13:30:00,69.3,62.9,29.83,North,0,0.0,0.0,80,0.00,,,0.00,243.00,VWS V14.01,2013-06-05 17:30:00,
2013-06-05 13:31:00,69.3,62.9,29.83,North,0,0.0,0.0,80,0.00,,,0.00,243.00,VWS V14.01,2013-06-05 17:31:00,
2013-06-05 13:32:00,69.3,62.9,29.83,North,0,0.0,0.0,80,0.00,,,0.00,257.00,VWS V14.01,2013-06-05 17:32:00,
2013-06-05 13:33:00,69.3,62.9,29.83,North,0,0.0,0.0,80,0.00,,,0.00,285.00,VWS V14.01,2013-06-05 17:33:00,
2013-06-05 13:34:00,69.3,62.9,29.83,North,0,0.0,0.0,80,0.00,,,0.00,297.00,VWS V14.01,2013-06-05 17:34:00,
2013-06-05 13:35:00,69.4,63.0,29.83,North,0,0.0,0.0,80,0.00,,,0.00,290.00,VWS V14.01,2013-06-05 17:35:00,
2013-06-05 13:36:00,69.4,62.6,29.83,North,0,0.0,0.0,79,0.00,,,0.00,280.00,VWS V14.01,2013-06-05 17:36:00,
2013-06-05 13:37:00,69.4,62.6,29.83,North,0,0.0,0.0,79,0.00,,,0.00,277.00,VWS V14.01,2013-06-05 17:37:00,
2013-06-05 13:38:00,69.3,62.2,29.83,North,0,0.0,0.0,78,0.00,,,0.00,262.00,VWS V14.01,2013-06-05 17:38:00,
2013-06-05 13:39:00,69.3,62.2,29.83,North,0,0.0,0.0,78,0.00,,,0.00,252.00,VWS V14.01,2013-06-05 17:39:00,
2013-06-05 13:40:00,69.3,62.2,29.83,North,0,0.0,0.0,78,0.00,,,0.00,255.00,VWS V14.01,2013-06-05 17:40:00,
2013-06-05 13:41:00,69.3,62.2,29.83,North,0,0.0,0.0,78,0.00,,,0.00,271.00,VWS V14.01,2013-06-05 17:41:00,
2013-06-05 13:42:00,69.3,62.2,29.83,North,0,0.0,0.0,78,0.00,,,0.00,285.00,VWS V14.01,2013-06-05 17:42:00,
2013-06-05 13:43:00,69.3,62.2,29.83,North,0,0.0,0.0,78,0.00,,,0.00,250.00,VWS V14.01,2013-06-05 17:43:00,
2013-06-05 13:44:00,69.3,62.5,29.83,North,0,0.0,0.0,79,0.00,,,0.00,208.00,VWS V14.01,2013-06-05 17:44:00,
2013-06-05 13:45:00,69.3,62.5,29.83,North,0,0.0,0.0,79,0.00,,,0.00,181.00,VWS V14.01,2013-06-05 17:45:00,
2013-06-05 13:46:00,69.4,62.6,29.83,North,0,0.0,0.0,79,0.00,,,0.00,165.00,VWS V14.01,2013-06-05 17:46:00,
2013-06-05 13:47:00,69.5,62.7,29.83,North,0,0.0,0.0,79,0.00,,,0.00,158.00,VWS V14.01,2013-06-05 17:47:00,
2013-06-05 13:48:00,69.6,62.4,29.83,North,0,0.0,0.0,78,0.00,,,0.00,162.00,VWS V14.01,2013-06-05 17:48:00,
2013-06-05 13:49:00,69.6,62.1,29.83,North,0,0.0,0.0,77,0.00,,,0.00,165.00,VWS V14.01,2013-06-05 17:49:00,
2013-06-05 13:50:00,69.6,62.1,29.83,North,0,0.0,0.0,77,0.00,,,0.00,169.00,VWS V14.01,2013-06-05 17:50:00,
2013-06-05 13:51:00,69.6,62.1,29.83,North,0,0.0,0.0,77,0.00,,,0.00,174.00,VWS V14.01,2013-06-05 17:51:00,
2013-06-05 13:52:00,69.6,62.1,29.83,North,0,0.0,0.0,77,0.00,,,0.00,197.00,VWS V14.01,2013-06-05 17:52:00,
2013-06-05 13:53:00,69.6,61.7,29.83,North,0,0.0,0.0,76,0.00,,,0.00,239.00,VWS V14.01,2013-06-05 17:53:00,
2013-06-05 13:54:00,69.4,61.5,29.83,North,0,0.0,0.0,76,0.00,,,0.00,267.00,VWS V14.01,2013-06-05 17:54:00,
2013-06-05 13:55:00,69.4,61.5,29.83,North,0,0.0,0.0,76,0.00,,,0.00,301.00,VWS V14.01,2013-06-05 17:55:00,
2013-06-05 13:56:00,69.6,62.1,29.83,North,0,0.0,0.0,77,0.00,,,0.00,313.00,VWS V14.01,2013-06-05 17:56:00,
2013-06-05 13:57:00,69.6,61.7,29.83,North,0,0.0,0.0,76,0.00,,,0.00,311.00,VWS V14.01,2013-06-05 17:57:00,
2013-06-05 13:58:00,69.6,61.7,29.83,North,0,0.0,0.0,76,0.00,,,0.00,320.00,VWS V14.01,2013-06-05 17:58:00,
2013-06-05 13:59:00,69.8,61.9,29.83,North,0,0.0,0.0,76,0.00,,,0.00,338.00,VWS V14.01,2013-06-05 17:59:00,
2013-06-05 14:00:00,69.8,61.9,29.82,North,0,0.0,0.0,76,0.00,,,0.00,338.00,VWS V14.01,2013-06-05 18:00:00,
2013-06-05 14:01:00,69.9,61.6,29.82,North,0,0.0,0.0,75,0.00,,,0.00,333.00,VWS V14.01,2013-06-05 18:01:00,
2013-06-05 14:02:00,70.0,62.1,29.82,North,0,0.0,0.0,76,0.00,,,0.00,305.00,VWS V14.01,2013-06-05 18:02:00,
2013-06-05 14:03:00,70.1,61.8,29.82,North,0,0.0,0.0,75,0.00,,,0.00,294.00,VWS V14.01,2013-06-05 18:03:00,
2013-06-05 14:04:00,70.1,61.4,29.82,North,0,0.0,0.0,74,0.00,,,0.00,294.00,VWS V14.01,2013-06-05 18:04:00,
2013-06-05 14:05:00,70.2,61.5,29.82,North,0,0.0,0.0,74,0.00,,,0.00,208.00,VWS V14.01,2013-06-05 18:05:00,
2013-06-05 14:06:00,70.3,61.6,29.82,North,0,0.0,0.0,74,0.00,,,0.00,192.00,VWS V14.01,2013-06-05 18:06:00,
2013-06-05 14:07:00,70.3,61.6,29.82,North,0,0.0,0.0,74,0.00,,,0.00,196.00,VWS V14.01,2013-06-05 18:07:00,
2013-06-05 14:08:00,70.3,62.0,29.82,North,0,0.0,0.0,75,0.00,,,0.00,227.00,VWS V14.01,2013-06-05 18:08:00,
2013-06-05 14:09:00,70.4,61.7,29.82,North,0,0.0,0.0,74,0.00,,,0.00,246.00,VWS V14.01,2013-06-05 18:09:00,
2013-06-05 14:10:00,70.4,61.7,29.82,North,0,0.0,0.0,74,0.00,,,0.00,250.00,VWS V14.01,2013-06-05 18:10:00,
2013-06-05 14:11:00,70.4,61.7,29.82,North,0,0.0,0.0,74,0.00,,,0.00,246.00,VWS V14.01,2013-06-05 18:11:00,
2013-06-05 14:12:00,70.5,61.8,29.82,North,0,0.0,0.0,74,0.00,,,0.00,229.00,VWS V14.01,2013-06-05 18:12:00,
2013-06-05 14:13:00,70.6,61.9,29.82,North,0,0.0,0.0,74,0.00,,,0.00,209.00,VWS V14.01,2013-06-05 18:13:00,
2013-06-05 14:14:00,70.6,61.5,29.82,North,0,0.0,0.0,73,0.00,,,0.00,197.00,VWS V14.01,2013-06-05 18:14:00,
2013-06-05 14:15:00,70.6,61.5,29.82,North,0,0.0,0.0,73,0.00,,,0.00,190.00,VWS V14.01,2013-06-05 18:15:00,
2013-06-05 14:16:00,70.4,61.3,29.82,North,0,0.0,0.0,73,0.00,,,0.00,187.00,VWS V14.01,2013-06-05 18:16:00,
2013-06-05 14:17:00,70.4,61.3,29.82,North,0,0.0,0.0,73,0.00,,,0.00,194.00,VWS V14.01,2013-06-05 18:17:00,
2013-06-05 14:18:00,70.3,61.6,29.82,North,0,0.0,0.0,74,0.00,,,0.00,216.00,VWS V14.01,2013-06-05 18:18:00,
2013-06-05 14:19:00,70.3,61.6,29.82,North,0,0.0,0.0,74,0.00,,,0.00,234.00,VWS V14.01,2013-06-05 18:19:00,
2013-06-05 14:20:00,70.3,61.6,29.82,North,0,0.0,0.0,74,0.00,,,0.00,222.00,VWS V14.01,2013-06-05 18:20:00,
2013-06-05 14:21:00,70.3,62.0,29.82,North,0,0.0,0.0,75,0.00,,,0.00,187.00,VWS V14.01,2013-06-05 18:21:00,
2013-06-05 14:22:00,70.3,62.0,29.82,North,0,0.0,0.0,75,0.00,,,0.00,145.00,VWS V14.01,2013-06-05 18:22:00,
2013-06-05 14:23:00,70.3,62.0,29.82,North,0,0.0,0.0,75,0.00,,,0.00,125.00,VWS V14.01,2013-06-05 18:23:00,
2013-06-05 14:24:00,70.3,62.0,29.82,North,0,0.0,0.0,75,0.00,,,0.00,127.00,VWS V14.01,2013-06-05 18:24:00,
2013-06-05 14:25:00,70.3,62.0,29.82,North,0,0.0,0.0,75,0.00,,,0.00,135.00,VWS V14.01,2013-06-05 18:25:00,
2013-06-05 14:26:00,70.3,62.0,29.82,North,0,0.0,0.0,75,0.00,,,0.00,141.00,VWS V14.01,2013-06-05 18:26:00,
2013-06-05 14:27:00,70.2,61.9,29.82,North,0,0.0,0.0,75,0.00,,,0.00,138.00,VWS V14.01,2013-06-05 18:27:00,
2013-06-05 14:28:00,70.0,61.7,29.82,North,0,0.0,0.0,75,0.00,,,0.00,139.00,VWS V14.01,2013-06-05 18:28:00,
2013-06-05 14:29:00,69.9,62.0,29.82,North,0,0.0,0.0,76,0.00,,,0.00,143.00,VWS V14.01,2013-06-05 18:29:00,
2013-06-05 14:30:00,69.9,62.0,29.82,North,0,0.0,0.0,76,0.00,,,0.00,144.00,VWS V14.01,2013-06-05 18:30:00,
2013-06-05 14:31:00,69.8,61.9,29.82,North,0,0.0,0.0,76,0.00,,,0.00,143.00,VWS V14.01,2013-06-05 18:31:00,
2013-06-05 14:32:00,69.7,62.2,29.82,North,0,0.0,0.0,77,0.00,,,0.00,156.00,VWS V14.01,2013-06-05 18:32:00,
2013-06-05 14:33:00,69.6,62.1,29.82,North,0,0.0,0.0,77,0.00,,,0.00,192.00,VWS V14.01,2013-06-05 18:33:00,
2013-06-05 14:34:00,69.6,62.1,29.82,North,0,0.0,0.0,77,0.00,,,0.00,213.00,VWS V14.01,2013-06-05 18:34:00,
2013-06-05 14:35:00,69.4,61.9,29.82,North,0,0.0,0.0,77,0.00,,,0.00,208.00,VWS V14.01,2013-06-05 18:35:00,
2013-06-05 14:36:00,69.4,61.9,29.82,North,0,0.0,0.0,77,0.00,,,0.00,194.00,VWS V14.01,2013-06-05 18:36:00,
2013-06-05 14:37:00,69.3,61.8,29.82,North,0,0.0,0.0,77,0.00,,,0.00,181.00,VWS V14.01,2013-06-05 18:37:00,
2013-06-05 14:38:00,69.3,62.2,29.82,North,0,0.0,0.0,78,0.00,,,0.00,162.00,VWS V14.01,2013-06-05 18:38:00,
2013-06-05 14:39:00,69.3,62.2,29.82,North,0,0.0,0.0,78,0.00,,,0.00,160.00,VWS V14.01,2013-06-05 18:39:00,
2013-06-05 14:40:00,69.3,62.2,29.82,North,0,0.0,0.0,78,0.00,,,0.00,164.00,VWS V14.01,2013-06-05 18:40:00,
2013-06-05 14:41:00,69.3,62.2,29.82,North,0,0.0,0.0,78,0.00,,,0.00,169.00,VWS V14.01,2013-06-05 18:41:00,
2013-06-05 14:42:00,69.3,62.2,29.82,North,0,0.0,0.0,78,0.00,,,0.00,169.00,VWS V14.01,2013-06-05 18:42:00,
2013-06-05 14:43:00,69.1,62.0,29.82,North,0,0.0,0.0,78,0.00,,,0.00,171.00,VWS V14.01,2013-06-05 18:43:00,
2013-06-05 14:44:00,69.1,62.0,29.82,North,0,0.0,0.0,78,0.00,,,0.00,178.00,VWS V14.01,2013-06-05 18:44:00,
2013-06-05 14:45:00,69.1,62.0,29.82,North,0,0.0,0.0,78,0.00,,,0.00,201.00,VWS V14.01,2013-06-05 18:45:00,
2013-06-05 14:46:00,69.1,62.0,29.82,North,0,0.0,0.0,78,0.00,,,0.00,227.00,VWS V14.01,2013-06-05 18:46:00,
2013-06-05 14:47:00,69.1,62.0,29.82,North,0,0.0,0.0,78,0.00,,,0.00,248.00,VWS V14.01,2013-06-05 18:47:00,
2013-06-05 14:48:00,69.1,62.0,29.82,North,0,0.0,0.0,78,0.00,,,0.00,250.00,VWS V14.01,2013-06-05 18:48:00,
2013-06-05 14:49:00,69.1,62.3,29.82,North,0,0.0,0.0,79,0.00,,,0.00,236.00,VWS V14.01,2013-06-05 18:49:00,
2013-06-05 14:50:00,69.1,62.0,29.82,North,0,0.0,0.0,78,0.00,,,0.00,223.00,VWS V14.01,2013-06-05 18:50:00,
2013-06-05 14:51:00,69.1,62.3,29.82,North,0,0.0,0.0,79,0.00,,,0.00,204.00,VWS V14.01,2013-06-05 18:51:00,
2013-06-05 14:52:00,69.1,62.0,29.82,North,0,0.0,0.0,78,0.00,,,0.00,182.00,VWS V14.01,2013-06-05 18:52:00,
2013-06-05 14:53:00,69.1,62.0,29.82,North,0,0.0,0.0,78,0.00,,,0.00,188.00,VWS V14.01,2013-06-05 18:53:00,
2013-06-05 14:54:00,69.1,62.0,29.82,North,0,0.0,0.0,78,0.00,,,0.00,216.00,VWS V14.01,2013-06-05 18:54:00,
2013-06-05 14:55:00,69.1,62.0,29.82,North,0,0.0,0.0,78,0.00,,,0.00,216.00,VWS V14.01,2013-06-05 18:55:00,
2013-06-05 14:56:00,69.1,62.3,29.82,North,0,0.0,0.0,79,0.00,,,0.00,216.00,VWS V14.01,2013-06-05 18:56:00,
2013-06-05 14:57:00,69.1,62.3,29.82,North,0,0.0,0.0,79,0.00,,,0.00,459.00,VWS V14.01,2013-06-05 18:57:00,
2013-06-05 14:58:00,69.3,62.5,29.82,North,0,0.0,0.0,79,0.00,,,0.00,461.00,VWS V14.01,2013-06-05 18:58:00,
2013-06-05 14:59:00,69.3,62.2,29.82,North,0,0.0,0.0,78,0.00,,,0.00,452.00,VWS V14.01,2013-06-05 18:59:00,
2013-06-05 15:00:00,69.4,62.2,29.83,North,0,0.0,0.0,78,0.00,,,0.00,442.00,VWS V14.01,2013-06-05 19:00:00,
2013-06-05 15:01:00,69.4,61.5,29.83,North,0,0.0,0.0,76,0.00,,,0.00,426.00,VWS V14.01,2013-06-05 19:01:00,
2013-06-05 15:02:00,69.6,62.1,29.83,North,0,0.0,0.0,77,0.00,,,0.00,453.00,VWS V14.01,2013-06-05 19:02:00,
2013-06-05 15:03:00,69.7,62.2,29.83,North,0,0.0,0.0,77,0.00,,,0.00,421.00,VWS V14.01,2013-06-05 19:03:00,
2013-06-05 15:04:00,69.9,62.0,29.83,North,0,0.0,0.0,76,0.00,,,0.00,415.00,VWS V14.01,2013-06-05 19:04:00,
2013-06-05 15:05:00,69.9,62.0,29.83,North,0,0.0,0.0,76,0.00,,,0.00,371.00,VWS V14.01,2013-06-05 19:05:00,
2013-06-05 15:06:00,70.1,62.2,29.83,North,0,0.0,0.0,76,0.00,,,0.00,371.00,VWS V14.01,2013-06-05 19:06:00,
2013-06-05 15:07:00,70.1,61.8,29.83,North,0,0.0,0.0,75,0.00,,,0.00,258.00,VWS V14.01,2013-06-05 19:07:00,
2013-06-05 15:08:00,70.1,61.8,29.83,North,0,0.0,0.0,75,0.00,,,0.00,294.00,VWS V14.01,2013-06-05 19:08:00,
2013-06-05 15:09:00,70.0,61.7,29.83,North,0,0.0,0.0,75,0.00,,,0.00,329.00,VWS V14.01,2013-06-05 19:09:00,
2013-06-05 15:10:00,69.9,61.6,29.83,North,0,0.0,0.0,75,0.00,,,0.00,329.00,VWS V14.01,2013-06-05 19:10:00,
2013-06-05 15:11:00,69.8,61.5,29.83,North,0,0.0,0.0,75,0.00,,,0.00,329.00,VWS V14.01,2013-06-05 19:11:00,
2013-06-05 15:12:00,69.8,61.5,29.83,North,0,0.0,0.0,75,0.00,,,0.00,396.00,VWS V14.01,2013-06-05 19:12:00,
2013-06-05 15:13:00,69.8,61.5,29.83,North,0,0.0,0.0,75,0.00,,,0.00,405.00,VWS V14.01,2013-06-05 19:13:00,
2013-06-05 15:14:00,69.8,61.5,29.83,North,0,0.0,0.0,75,0.00,,,0.00,406.00,VWS V14.01,2013-06-05 19:14:00,
2013-06-05 15:15:00,69.8,61.9,29.83,North,0,0.0,0.0,76,0.00,,,0.00,398.00,VWS V14.01,2013-06-05 19:15:00,
2013-06-05 15:16:00,69.9,61.6,29.83,North,0,0.0,0.0,75,0.00,,,0.00,405.00,VWS V14.01,2013-06-05 19:16:00,
2013-06-05 15:17:00,69.9,61.6,29.83,North,0,0.0,0.0,75,0.00,,,0.00,408.00,VWS V14.01,2013-06-05 19:17:00,
2013-06-05 15:18:00,70.0,61.3,29.83,North,0,0.0,0.0,74,0.00,,,0.00,415.00,VWS V14.01,2013-06-05 19:18:00,
2013-06-05 15:19:00,69.9,61.2,29.83,North,0,0.0,0.0,74,0.00,,,0.00,442.00,VWS V14.01,2013-06-05 19:19:00,
2013-06-05 15:20:00,69.9,61.2,29.83,North,0,0.0,0.0,74,0.00,,,0.00,489.00,VWS V14.01,2013-06-05 19:20:00,
2013-06-05 15:21:00,69.9,61.2,29.83,North,0,0.0,0.0,74,0.00,,,0.00,456.00,VWS V14.01,2013-06-05 19:21:00,
2013-06-05 15:22:00,69.8,61.5,29.83,North,0,0.0,0.0,75,0.00,,,0.00,428.00,VWS V14.01,2013-06-05 19:22:00,
2013-06-05 15:23:00,69.8,61.2,29.83,North,0,0.0,0.0,74,0.00,,,0.00,412.00,VWS V14.01,2013-06-05 19:23:00,
2013-06-05 15:24:00,69.8,61.5,29.83,North,0,0.0,0.0,75,0.00,,,0.00,406.00,VWS V14.01,2013-06-05 19:24:00,
2013-06-05 15:25:00,69.8,61.5,29.83,North,0,0.0,0.0,75,0.00,,,0.00,396.00,VWS V14.01,2013-06-05 19:25:00,
2013-06-05 15:26:00,69.8,61.5,29.83,North,0,0.0,0.0,75,0.00,,,0.00,370.00,VWS V14.01,2013-06-05 19:26:00,
2013-06-05 15:27:00,69.8,61.9,29.83,North,0,0.0,0.0,76,0.00,,,0.00,356.00,VWS V14.01,2013-06-05 19:27:00,
2013-06-05 15:28:00,69.8,61.5,29.83,North,0,0.0,0.0,75,0.00,,,0.00,326.00,VWS V14.01,2013-06-05 19:28:00,
2013-06-05 15:29:00,69.9,62.0,29.83,North,0,0.0,0.0,76,0.00,,,0.00,303.00,VWS V14.01,2013-06-05 19:29:00,
2013-06-05 15:30:00,69.9,61.6,29.83,North,0,0.0,0.0,75,0.00,,,0.00,274.00,VWS V14.01,2013-06-05 19:30:00,
2013-06-05 15:31:00,69.9,61.6,29.83,North,0,0.0,0.0,75,0.00,,,0.00,253.00,VWS V14.01,2013-06-05 19:31:00,
2013-06-05 15:32:00,69.8,61.5,29.83,North,0,0.0,0.0,75,0.00,,,0.00,241.00,VWS V14.01,2013-06-05 19:32:00,
2013-06-05 15:33:00,69.8,61.5,29.83,North,0,0.0,0.0,75,0.00,,,0.00,230.00,VWS V14.01,2013-06-05 19:33:00,
2013-06-05 15:34:00,69.8,61.5,29.83,North,0,0.0,0.0,75,0.00,,,0.00,218.00,VWS V14.01,2013-06-05 19:34:00,
2013-06-05 15:35:00,69.7,61.4,29.83,North,0,0.0,0.0,75,0.00,,,0.00,209.00,VWS V14.01,2013-06-05 19:35:00,
2013-06-05 15:36:00,69.6,61.3,29.83,North,0,0.0,0.0,75,0.00,,,0.00,206.00,VWS V14.01,2013-06-05 19:36:00,
2013-06-05 15:37:00,69.4,61.1,29.83,North,0,0.0,0.0,75,0.00,,,0.00,205.00,VWS V14.01,2013-06-05 19:37:00,
2013-06-05 15:38:00,69.4,61.1,29.83,North,0,0.0,0.0,75,0.00,,,0.00,206.00,VWS V14.01,2013-06-05 19:38:00,
2013-06-05 15:39:00,69.4,61.5,29.83,North,0,0.0,0.0,76,0.00,,,0.00,206.00,VWS V14.01,2013-06-05 19:39:00,
2013-06-05 15:40:00,69.4,61.5,29.83,North,0,0.0,0.0,76,0.00,,,0.00,236.00,VWS V14.01,2013-06-05 19:40:00,
2013-06-05 15:41:00,69.4,61.5,29.83,North,0,0.0,0.0,76,0.00,,,0.00,269.00,VWS V14.01,2013-06-05 19:41:00,
2013-06-05 15:42:00,69.5,61.6,29.83,North,0,0.0,0.0,76,0.00,,,0.00,373.00,VWS V14.01,2013-06-05 19:42:00,
2013-06-05 15:43:00,69.6,61.7,29.83,North,0,0.0,0.0,76,0.00,,,0.00,373.00,VWS V14.01,2013-06-05 19:43:00,
2013-06-05 15:44:00,69.6,61.3,29.83,North,0,0.0,0.0,75,0.00,,,0.00,373.00,VWS V14.01,2013-06-05 19:44:00,
2013-06-05 15:45:00,69.6,61.3,29.82,North,0,0.0,0.0,75,0.00,,,0.00,294.00,VWS V14.01,2013-06-05 19:45:00,
2013-06-05 15:46:00,69.6,61.3,29.82,North,0,0.0,0.0,75,0.00,,,0.00,289.00,VWS V14.01,2013-06-05 19:46:00,
2013-06-05 15:47:00,69.7,61.8,29.82,North,0,0.0,0.0,76,0.00,,,0.00,290.00,VWS V14.01,2013-06-05 19:47:00,
2013-06-05 15:48:00,69.8,61.5,29.82,North,0,0.0,0.0,75,0.00,,,0.00,308.00,VWS V14.01,2013-06-05 19:48:00,
2013-06-05 15:49:00,69.8,61.5,29.82,North,0,0.0,0.0,75,0.00,,,0.00,324.00,VWS V14.01,2013-06-05 19:49:00,
2013-06-05 15:50:00,69.8,61.5,29.82,North,0,0.0,0.0,75,0.00,,,0.00,373.00,VWS V14.01,2013-06-05 19:50:00,
2013-06-05 15:51:00,69.6,61.3,29.82,North,0,0.0,0.0,75,0.00,,,0.00,382.00,VWS V14.01,2013-06-05 19:51:00,
2013-06-05 15:52:00,69.6,61.3,29.82,North,0,0.0,0.0,75,0.00,,,0.00,380.00,VWS V14.01,2013-06-05 19:52:00,
2013-06-05 15:53:00,69.7,61.4,29.82,North,0,0.0,0.0,75,0.00,,,0.00,375.00,VWS V14.01,2013-06-05 19:53:00,
2013-06-05 15:54:00,69.8,61.2,29.82,North,0,0.0,0.0,74,0.00,,,0.00,385.00,VWS V14.01,2013-06-05 19:54:00,
2013-06-05 15:55:00,69.8,61.5,29.82,North,0,0.0,0.0,75,0.00,,,0.00,364.00,VWS V14.01,2013-06-05 19:55:00,
2013-06-05 15:56:00,69.8,61.5,29.82,North,0,0.0,0.0,75,0.00,,,0.00,370.00,VWS V14.01,2013-06-05 19:56:00,
2013-06-05 15:57:00,69.8,61.2,29.82,North,0,0.0,0.0,74,0.00,,,0.00,355.00,VWS V14.01,2013-06-05 19:57:00,
2013-06-05 15:58:00,69.8,61.2,29.82,North,0,0.0,0.0,74,0.00,,,0.00,306.00,VWS V14.01,2013-06-05 19:58:00,
2013-06-05 15:59:00,69.8,61.2,29.82,North,0,0.0,0.0,74,0.00,,,0.00,276.00,VWS V14.01,2013-06-05 19:59:00,
2013-06-05 16:00:00,69.8,61.5,29.82,North,0,0.0,0.0,75,0.00,,,0.00,255.00,VWS V14.01,2013-06-05 20:00:00,
2013-06-05 16:01:00,69.8,61.2,29.82,North,0,0.0,0.0,74,0.00,,,0.00,243.00,VWS V14.01,2013-06-05 20:01:00,
2013-06-05 16:02:00,69.8,61.2,29.82,North,0,0.0,0.0,74,0.00,,,0.00,241.00,VWS V14.01,2013-06-05 20:02:00,
2013-06-05 16:03:00,69.6,61.0,29.82,North,0,0.0,0.0,74,0.00,,,0.00,252.00,VWS V14.01,2013-06-05 20:03:00,
2013-06-05 16:04:00,69.6,61.0,29.82,North,0,0.0,0.0,74,0.00,,,0.00,255.00,VWS V14.01,2013-06-05 20:04:00,
2013-06-05 16:05:00,69.6,61.0,29.82,North,0,0.0,0.0,74,0.00,,,0.00,257.00,VWS V14.01,2013-06-05 20:05:00,
2013-06-05 16:06:00,69.6,61.3,29.82,North,0,0.0,0.0,75,0.00,,,0.00,266.00,VWS V14.01,2013-06-05 20:06:00,
2013-06-05 16:07:00,69.6,61.3,29.82,North,0,0.0,0.0,75,0.00,,,0.00,286.00,VWS V14.01,2013-06-05 20:07:00,
2013-06-05 16:08:00,69.6,61.3,29.82,North,0,0.0,0.0,75,0.00,,,0.00,317.00,VWS V14.01,2013-06-05 20:08:00,
2013-06-05 16:09:00,69.6,61.3,29.82,North,0,0.0,0.0,75,0.00,,,0.00,318.00,VWS V14.01,2013-06-05 20:09:00,
2013-06-05 16:10:00,69.5,61.2,29.82,North,0,0.0,0.0,75,0.00,,,0.00,294.00,VWS V14.01,2013-06-05 20:10:00,
2013-06-05 16:11:00,69.4,61.1,29.82,North,0,0.0,0.0,75,0.00,,,0.00,274.00,VWS V14.01,2013-06-05 20:11:00,
2013-06-05 16:12:00,69.4,61.1,29.82,North,0,0.0,0.0,75,0.00,,,0.00,238.00,VWS V14.01,2013-06-05 20:12:00,
2013-06-05 16:13:00,69.4,61.5,29.82,North,0,0.0,0.0,76,0.00,,,0.00,204.00,VWS V14.01,2013-06-05 20:13:00,
2013-06-05 16:14:00,69.4,61.5,29.82,North,0,0.0,0.0,76,0.00,,,0.00,190.00,VWS V14.01,2013-06-05 20:14:00,
2013-06-05 16:15:00,69.4,61.9,29.81,North,0,0.0,0.0,77,0.00,,,0.00,179.00,VWS V14.01,2013-06-05 20:15:00,
2013-06-05 16:16:00,69.5,62.0,29.81,North,0,0.0,0.0,77,0.00,,,0.00,172.00,VWS V14.01,2013-06-05 20:16:00,
2013-06-05 16:17:00,69.6,62.1,29.81,North,0,0.0,0.0,77,0.00,,,0.00,165.00,VWS V14.01,2013-06-05 20:17:00,
2013-06-05 16:18:00,69.6,62.1,29.81,North,0,0.0,0.0,77,0.00,,,0.00,155.00,VWS V14.01,2013-06-05 20:18:00,
2013-06-05 16:19:00,69.5,62.0,29.81,North,0,0.0,0.0,77,0.00,,,0.00,151.00,VWS V14.01,2013-06-05 20:19:00,
2013-06-05 16:20:00,69.4,61.9,29.81,North,0,0.0,0.0,77,0.00,,,0.00,150.00,VWS V14.01,2013-06-05 20:20:00,
2013-06-05 16:21:00,69.4,61.9,29.81,North,0,0.0,0.0,77,0.00,,,0.00,146.00,VWS V14.01,2013-06-05 20:21:00,
2013-06-05 16:22:00,69.4,61.5,29.81,North,0,0.0,0.0,76,0.00,,,0.00,149.00,VWS V14.01,2013-06-05 20:22:00,
2013-06-05 16:23:00,69.3,61.4,29.81,North,0,0.0,0.0,76,0.00,,,0.00,150.00,VWS V14.01,2013-06-05 20:23:00,
2013-06-05 16:24:00,69.3,61.8,29.81,North,0,0.0,0.0,77,0.00,,,0.00,153.00,VWS V14.01,2013-06-05 20:24:00,
2013-06-05 16:25:00,69.3,61.8,29.81,North,0,0.0,0.0,77,0.00,,,0.00,157.00,VWS V14.01,2013-06-05 20:25:00,
2013-06-05 16:26:00,69.2,61.3,29.81,North,0,0.0,0.0,76,0.00,,,0.00,157.00,VWS V14.01,2013-06-05 20:26:00,
2013-06-05 16:27:00,69.1,61.6,29.81,North,0,0.0,0.0,77,0.00,,,0.00,157.00,VWS V14.01,2013-06-05 20:27:00,
2013-06-05 16:28:00,69.1,61.6,29.81,North,0,0.0,0.0,77,0.00,,,0.00,158.00,VWS V14.01,2013-06-05 20:28:00,
2013-06-05 16:29:00,69.1,61.6,29.81,North,0,0.0,0.0,77,0.00,,,0.00,164.00,VWS V14.01,2013-06-05 20:29:00,
2013-06-05 16:30:00,69.1,61.6,29.80,North,0,0.0,0.0,77,0.00,,,0.00,172.00,VWS V14.01,2013-06-05 20:30:00,
2013-06-05 16:31:00,69.1,61.6,29.80,North,0,0.0,0.0,77,0.00,,,0.00,178.00,VWS V14.01,2013-06-05 20:31:00,
2013-06-05 16:32:00,68.9,61.4,29.80,North,0,0.0,0.0,77,0.00,,,0.00,174.00,VWS V14.01,2013-06-05 20:32:00,
2013-06-05 16:33:00,68.9,61.4,29.80,North,0,0.0,0.0,77,0.00,,,0.00,183.00,VWS V14.01,2013-06-05 20:33:00,
2013-06-05 16:34:00,68.9,61.4,29.80,North,0,0.0,0.0,77,0.00,,,0.00,190.00,VWS V14.01,2013-06-05 20:34:00,
2013-06-05 16:35:00,68.9,61.8,29.80,North,0,0.0,0.0,78,0.00,,,0.00,199.00,VWS V14.01,2013-06-05 20:35:00,
2013-06-05 16:36:00,68.9,61.4,29.80,North,0,0.0,0.0,77,0.00,,,0.00,202.00,VWS V14.01,2013-06-05 20:36:00,
2013-06-05 16:37:00,68.8,61.3,29.80,North,0,0.0,0.0,77,0.00,,,0.00,199.00,VWS V14.01,2013-06-05 20:37:00,
2013-06-05 16:38:00,68.8,61.3,29.80,North,0,0.0,0.0,77,0.00,,,0.00,232.00,VWS V14.01,2013-06-05 20:38:00,
2013-06-05 16:39:00,68.8,61.3,29.80,North,0,0.0,0.0,77,0.00,,,0.00,255.00,VWS V14.01,2013-06-05 20:39:00,
2013-06-05 16:40:00,68.8,61.3,29.80,North,0,0.0,0.0,77,0.00,,,0.00,246.00,VWS V14.01,2013-06-05 20:40:00,
2013-06-05 16:41:00,68.8,61.3,29.80,North,0,0.0,0.0,77,0.00,,,0.00,238.00,VWS V14.01,2013-06-05 20:41:00,
2013-06-05 16:42:00,68.8,61.3,29.80,North,0,0.0,0.0,77,0.00,,,0.00,229.00,VWS V14.01,2013-06-05 20:42:00,
2013-06-05 16:43:00,68.8,61.3,29.80,North,0,0.0,0.0,77,0.00,,,0.00,194.00,VWS V14.01,2013-06-05 20:43:00,
2013-06-05 16:44:00,68.8,61.3,29.80,North,0,0.0,0.0,77,0.00,,,0.00,172.00,VWS V14.01,2013-06-05 20:44:00,
2013-06-05 16:45:00,68.8,61.3,29.80,North,0,0.0,0.0,77,0.00,,,0.00,160.00,VWS V14.01,2013-06-05 20:45:00,
2013-06-05 16:46:00,68.6,61.5,29.80,North,0,0.0,0.0,78,0.00,,,0.00,158.00,VWS V14.01,2013-06-05 20:46:00,
2013-06-05 16:47:00,68.6,61.5,29.80,North,0,0.0,0.0,78,0.00,,,0.00,169.00,VWS V14.01,2013-06-05 20:47:00,
2013-06-05 16:48:00,68.6,61.5,29.80,North,0,0.0,0.0,78,0.00,,,0.00,179.00,VWS V14.01,2013-06-05 20:48:00,
2013-06-05 16:49:00,68.6,61.5,29.80,North,0,0.0,0.0,78,0.00,,,0.00,187.00,VWS V14.01,2013-06-05 20:49:00,
2013-06-05 16:50:00,68.6,61.5,29.80,North,0,0.0,0.0,78,0.00,,,0.00,190.00,VWS V14.01,2013-06-05 20:50:00,
2013-06-05 16:51:00,68.6,61.5,29.80,North,0,0.0,0.0,78,0.00,,,0.00,190.00,VWS V14.01,2013-06-05 20:51:00,
2013-06-05 16:52:00,68.6,61.5,29.80,North,0,0.0,0.0,78,0.00,,,0.00,204.00,VWS V14.01,2013-06-05 20:52:00,
2013-06-05 16:53:00,68.6,61.1,29.80,North,0,0.0,0.0,77,0.00,,,0.00,234.00,VWS V14.01,2013-06-05 20:53:00,
2013-06-05 16:54:00,68.6,61.5,29.80,North,0,0.0,0.0,78,0.00,,,0.00,262.00,VWS V14.01,2013-06-05 20:54:00,
2013-06-05 16:55:00,68.8,61.7,29.80,North,0,0.0,0.0,78,0.00,,,0.00,287.00,VWS V14.01,2013-06-05 20:55:00,
2013-06-05 16:56:00,68.8,61.3,29.80,North,0,0.0,0.0,77,0.00,,,0.00,296.00,VWS V14.01,2013-06-05 20:56:00,
2013-06-05 16:57:00,68.8,61.3,29.80,North,0,0.0,0.0,77,0.00,,,0.00,284.00,VWS V14.01,2013-06-05 20:57:00,
2013-06-05 16:58:00,68.8,61.3,29.80,North,0,0.0,0.0,77,0.00,,,0.00,248.00,VWS V14.01,2013-06-05 20:58:00,
2013-06-05 16:59:00,68.8,61.3,29.80,North,0,0.0,0.0,77,0.00,,,0.00,211.00,VWS V14.01,2013-06-05 20:59:00,
2013-06-05 17:00:00,68.8,61.3,29.79,North,0,0.0,0.0,77,0.00,,,0.00,190.00,VWS V14.01,2013-06-05 21:00:00,
2013-06-05 17:01:00,68.8,60.9,29.79,North,0,0.0,0.0,76,0.00,,,0.00,197.00,VWS V14.01,2013-06-05 21:01:00,
2013-06-05 17:02:00,68.8,61.3,29.79,North,0,0.0,0.0,77,0.00,,,0.00,207.00,VWS V14.01,2013-06-05 21:02:00,
2013-06-05 17:03:00,68.8,60.9,29.79,North,0,0.0,0.0,76,0.00,,,0.00,232.00,VWS V14.01,2013-06-05 21:03:00,
2013-06-05 17:04:00,68.8,60.9,29.79,North,0,0.0,0.0,76,0.00,,,0.00,243.00,VWS V14.01,2013-06-05 21:04:00,
2013-06-05 17:05:00,68.8,60.9,29.79,North,0,0.0,0.0,76,0.00,,,0.00,260.00,VWS V14.01,2013-06-05 21:05:00,
2013-06-05 17:06:00,68.6,60.7,29.79,North,0,0.0,0.0,76,0.00,,,0.00,253.00,VWS V14.01,2013-06-05 21:06:00,
2013-06-05 17:07:00,68.6,60.7,29.79,North,0,0.0,0.0,76,0.00,,,0.00,262.00,VWS V14.01,2013-06-05 21:07:00,
2013-06-05 17:08:00,68.6,60.7,29.79,North,0,0.0,0.0,76,0.00,,,0.00,250.00,VWS V14.01,2013-06-05 21:08:00,
2013-06-05 17:09:00,68.6,60.7,29.79,North,0,0.0,0.0,76,0.00,,,0.00,236.00,VWS V14.01,2013-06-05 21:09:00,
2013-06-05 17:10:00,68.6,60.7,29.79,North,0,0.0,0.0,76,0.00,,,0.00,234.00,VWS V14.01,2013-06-05 21:10:00,
2013-06-05 17:11:00,68.6,60.7,29.79,North,0,0.0,0.0,76,0.00,,,0.00,246.00,VWS V14.01,2013-06-05 21:11:00,
2013-06-05 17:12:00,68.6,60.7,29.79,North,0,0.0,0.0,76,0.00,,,0.00,269.00,VWS V14.01,2013-06-05 21:12:00,
2013-06-05 17:13:00,68.4,60.5,29.79,North,0,0.0,0.0,76,0.00,,,0.00,304.00,VWS V14.01,2013-06-05 21:13:00,
2013-06-05 17:14:00,68.4,60.5,29.79,North,0,0.0,0.0,76,0.00,,,0.00,315.00,VWS V14.01,2013-06-05 21:14:00,
2013-06-05 17:15:00,68.4,60.5,29.79,North,0,0.0,0.0,76,0.00,,,0.00,297.00,VWS V14.01,2013-06-05 21:15:00,
2013-06-05 17:16:00,68.6,60.7,29.79,North,0,0.0,0.0,76,0.00,,,0.00,297.00,VWS V14.01,2013-06-05 21:16:00,
2013-06-05 17:17:00,68.6,60.7,29.79,North,0,0.0,0.0,76,0.00,,,0.00,194.00,VWS V14.01,2013-06-05 21:17:00,
2013-06-05 17:18:00,68.6,60.4,29.79,North,0,0.0,0.0,75,0.00,,,0.00,150.00,VWS V14.01,2013-06-05 21:18:00,
2013-06-05 17:19:00,68.6,60.4,29.79,North,0,0.0,0.0,75,0.00,,,0.00,125.00,VWS V14.01,2013-06-05 21:19:00,
2013-06-05 17:20:00,68.6,60.4,29.79,North,0,0.0,0.0,75,0.00,,,0.00,116.00,VWS V14.01,2013-06-05 21:20:00,
2013-06-05 17:21:00,68.6,60.7,29.79,North,0,0.0,0.0,76,0.00,,,0.00,114.00,VWS V14.01,2013-06-05 21:21:00,
2013-06-05 17:22:00,68.6,60.7,29.79,North,0,0.0,0.0,76,0.00,,,0.00,109.00,VWS V14.01,2013-06-05 21:22:00,
2013-06-05 17:23:00,68.6,60.7,29.79,North,0,0.0,0.0,76,0.00,,,0.00,111.00,VWS V14.01,2013-06-05 21:23:00,
2013-06-05 17:24:00,68.6,60.7,29.79,North,0,0.0,0.0,76,0.00,,,0.00,118.00,VWS V14.01,2013-06-05 21:24:00,
2013-06-05 17:25:00,68.6,60.4,29.79,North,0,0.0,0.0,75,0.00,,,0.00,132.00,VWS V14.01,2013-06-05 21:25:00,
2013-06-05 17:26:00,68.6,60.4,29.79,North,0,0.0,0.0,75,0.00,,,0.00,143.00,VWS V14.01,2013-06-05 21:26:00,
2013-06-05 17:27:00,68.4,60.2,29.79,North,0,0.0,0.0,75,0.00,,,0.00,166.00,VWS V14.01,2013-06-05 21:27:00,
2013-06-05 17:28:00,68.4,60.2,29.79,North,0,0.0,0.0,75,0.00,,,0.00,187.00,VWS V14.01,2013-06-05 21:28:00,
2013-06-05 17:29:00,68.4,60.5,29.79,North,0,0.0,0.0,76,0.00,,,0.00,183.00,VWS V14.01,2013-06-05 21:29:00,
2013-06-05 17:30:00,68.4,60.5,29.79,North,0,0.0,0.0,76,0.00,,,0.00,178.00,VWS V14.01,2013-06-05 21:30:00,
2013-06-05 17:31:00,68.4,60.5,29.79,North,0,0.0,0.0,76,0.00,,,0.00,176.00,VWS V14.01,2013-06-05 21:31:00,
2013-06-05 17:32:00,68.4,60.5,29.79,North,0,0.0,0.0,76,0.00,,,0.00,177.00,VWS V14.01,2013-06-05 21:32:00,
2013-06-05 17:33:00,68.4,60.5,29.79,North,0,0.0,0.0,76,0.00,,,0.00,181.00,VWS V14.01,2013-06-05 21:33:00,
2013-06-05 17:34:00,68.4,60.5,29.79,North,0,0.0,0.0,76,0.00,,,0.00,183.00,VWS V14.01,2013-06-05 21:34:00,
2013-06-05 17:35:00,68.4,60.5,29.79,North,0,0.0,0.0,76,0.00,,,0.00,181.00,VWS V14.01,2013-06-05 21:35:00,
2013-06-05 17:36:00,68.4,60.9,29.79,North,0,0.0,0.0,77,0.00,,,0.00,174.00,VWS V14.01,2013-06-05 21:36:00,
2013-06-05 17:37:00,68.4,60.5,29.79,North,0,0.0,0.0,76,0.00,,,0.00,166.00,VWS V14.01,2013-06-05 21:37:00,
2013-06-05 17:38:00,68.3,60.5,29.79,North,0,0.0,0.0,76,0.00,,,0.00,155.00,VWS V14.01,2013-06-05 21:38:00,
2013-06-05 17:39:00,68.3,60.5,29.79,North,0,0.0,0.0,76,0.00,,,0.00,144.00,VWS V14.01,2013-06-05 21:39:00,
2013-06-05 17:40:00,68.3,60.5,29.79,North,0,0.0,0.0,76,0.00,,,0.00,135.00,VWS V14.01,2013-06-05 21:40:00,
2013-06-05 17:41:00,68.2,60.3,29.79,North,0,0.0,0.0,76,0.00,,,0.00,132.00,VWS V14.01,2013-06-05 21:41:00,
2013-06-05 17:42:00,68.1,60.3,29.79,North,0,0.0,0.0,76,0.00,,,0.00,145.00,VWS V14.01,2013-06-05 21:42:00,
2013-06-05 17:43:00,68.1,60.6,29.79,North,0,0.0,0.0,77,0.00,,,0.00,150.00,VWS V14.01,2013-06-05 21:43:00,
2013-06-05 17:44:00,68.1,60.6,29.79,North,0,0.0,0.0,77,0.00,,,0.00,130.00,VWS V14.01,2013-06-05 21:44:00,
2013-06-05 17:45:00,68.1,60.6,29.79,North,0,0.0,0.0,77,0.00,,,0.00,95.00,VWS V14.01,2013-06-05 21:45:00,
2013-06-05 17:46:00,68.1,60.6,29.79,North,0,0.0,0.0,77,0.00,,,0.00,77.00,VWS V14.01,2013-06-05 21:46:00,
2013-06-05 17:47:00,68.1,60.6,29.79,North,0,0.0,0.0,77,0.00,,,0.00,60.00,VWS V14.01,2013-06-05 21:47:00,
2013-06-05 17:48:00,68.1,60.6,29.79,North,0,0.0,0.0,77,0.00,,,0.00,60.00,VWS V14.01,2013-06-05 21:48:00,
2013-06-05 17:49:00,68.0,60.5,29.79,North,0,0.0,0.0,77,0.00,,,0.00,62.00,VWS V14.01,2013-06-05 21:49:00,
2013-06-05 17:50:00,67.9,60.4,29.79,North,0,0.0,0.0,77,0.00,,,0.00,65.00,VWS V14.01,2013-06-05 21:50:00,
2013-06-05 17:51:00,67.9,60.4,29.79,North,0,0.0,0.0,77,0.00,,,0.00,69.00,VWS V14.01,2013-06-05 21:51:00,
2013-06-05 17:52:00,67.9,60.4,29.79,North,0,0.0,0.0,77,0.00,,,0.00,79.00,VWS V14.01,2013-06-05 21:52:00,
2013-06-05 17:53:00,67.9,60.4,29.79,North,0,0.0,0.0,77,0.00,,,0.00,90.00,VWS V14.01,2013-06-05 21:53:00,
2013-06-05 17:54:00,67.9,60.8,29.79,North,0,0.0,0.0,78,0.00,,,0.00,102.00,VWS V14.01,2013-06-05 21:54:00,
2013-06-05 17:55:00,67.9,60.8,29.79,North,0,0.0,0.0,78,0.00,,,0.00,120.00,VWS V14.01,2013-06-05 21:55:00,
2013-06-05 17:56:00,67.9,60.8,29.79,North,0,0.0,0.0,78,0.00,,,0.00,139.00,VWS V14.01,2013-06-05 21:56:00,
2013-06-05 17:57:00,67.9,60.8,29.79,North,0,0.0,0.0,78,0.00,,,0.00,165.00,VWS V14.01,2013-06-05 21:57:00,
2013-06-05 17:58:00,67.9,60.8,29.79,North,0,0.0,0.0,78,0.00,,,0.00,208.00,VWS V14.01,2013-06-05 21:58:00,
2013-06-05 17:59:00,67.9,60.8,29.79,North,0,0.0,0.0,78,0.00,,,0.00,218.00,VWS V14.01,2013-06-05 21:59:00,
2013-06-05 18:00:00,67.9,60.8,29.79,North,0,0.0,0.0,78,0.00,,,0.00,211.00,VWS V14.01,2013-06-05 22:00:00,
2013-06-05 18:01:00,67.9,60.8,29.79,North,0,0.0,0.0,78,0.00,,,0.00,202.00,VWS V14.01,2013-06-05 22:01:00,
2013-06-05 18:02:00,67.9,60.8,29.79,North,0,0.0,0.0,78,0.00,,,0.00,203.00,VWS V14.01,2013-06-05 22:02:00,
2013-06-05 18:03:00,68.1,61.0,29.79,North,0,0.0,0.0,78,0.00,,,0.00,208.00,VWS V14.01,2013-06-05 22:03:00,
2013-06-05 18:04:00,68.1,61.0,29.79,North,0,0.0,0.0,78,0.00,,,0.00,197.00,VWS V14.01,2013-06-05 22:04:00,
2013-06-05 18:05:00,68.1,61.0,29.79,North,0,0.0,0.0,78,0.00,,,0.00,176.00,VWS V14.01,2013-06-05 22:05:00,
2013-06-05 18:06:00,68.2,61.1,29.79,North,0,0.0,0.0,78,0.00,,,0.00,157.00,VWS V14.01,2013-06-05 22:06:00,
2013-06-05 18:07:00,68.3,61.2,29.79,North,0,0.0,0.0,78,0.00,,,0.00,129.00,VWS V14.01,2013-06-05 22:07:00,
2013-06-05 18:08:00,68.3,61.2,29.79,North,0,0.0,0.0,78,0.00,,,0.00,109.00,VWS V14.01,2013-06-05 22:08:00,
2013-06-05 18:09:00,68.3,61.2,29.79,North,0,0.0,0.0,78,0.00,,,0.00,97.00,VWS V14.01,2013-06-05 22:09:00,
2013-06-05 18:10:00,68.3,60.8,29.79,North,0,0.0,0.0,77,0.00,,,0.00,84.00,VWS V14.01,2013-06-05 22:10:00,
2013-06-05 18:11:00,68.3,60.8,29.79,North,0,0.0,0.0,77,0.00,,,0.00,76.00,VWS V14.01,2013-06-05 22:11:00,
2013-06-05 18:12:00,68.3,61.2,29.79,North,0,0.0,0.0,78,0.00,,,0.00,64.00,VWS V14.01,2013-06-05 22:12:00,
2013-06-05 18:13:00,68.2,61.1,29.79,North,0,0.0,0.0,78,0.00,,,0.00,53.00,VWS V14.01,2013-06-05 22:13:00,
2013-06-05 18:14:00,68.1,61.0,29.79,North,0,0.0,0.0,78,0.00,,,0.00,49.00,VWS V14.01,2013-06-05 22:14:00,
2013-06-05 18:15:00,68.1,61.0,29.79,North,0,0.0,0.0,78,0.00,,,0.00,46.00,VWS V14.01,2013-06-05 22:15:00,
2013-06-05 18:16:00,68.0,60.9,29.79,North,0,0.0,0.0,78,0.00,,,0.00,46.00,VWS V14.01,2013-06-05 22:16:00,
2013-06-05 18:17:00,67.9,60.8,29.79,North,0,0.0,0.0,78,0.00,,,0.00,44.00,VWS V14.01,2013-06-05 22:17:00,
2013-06-05 18:18:00,67.9,61.2,29.79,North,0,0.0,0.0,79,0.00,,,0.00,44.00,VWS V14.01,2013-06-05 22:18:00,
2013-06-05 18:19:00,67.8,61.1,29.79,North,0,0.0,0.0,79,0.00,,,0.00,46.00,VWS V14.01,2013-06-05 22:19:00,
2013-06-05 18:20:00,67.8,61.1,29.79,North,0,0.0,0.0,79,0.00,,,0.00,48.00,VWS V14.01,2013-06-05 22:20:00,
2013-06-05 18:21:00,67.8,61.1,29.79,North,0,0.0,0.0,79,0.00,,,0.00,51.00,VWS V14.01,2013-06-05 22:21:00,
2013-06-05 18:22:00,67.7,61.0,29.79,North,0,0.0,0.0,79,0.00,,,0.00,55.00,VWS V14.01,2013-06-05 22:22:00,
2013-06-05 18:23:00,67.6,60.9,29.79,North,0,0.0,0.0,79,0.00,,,0.00,62.00,VWS V14.01,2013-06-05 22:23:00,
2013-06-05 18:24:00,67.6,61.2,29.79,North,0,0.0,0.0,80,0.00,,,0.00,69.00,VWS V14.01,2013-06-05 22:24:00,
2013-06-05 18:25:00,67.6,61.2,29.79,North,0,0.0,0.0,80,0.00,,,0.00,79.00,VWS V14.01,2013-06-05 22:25:00,
2013-06-05 18:26:00,67.6,61.2,29.79,North,0,0.0,0.0,80,0.00,,,0.00,91.00,VWS V14.01,2013-06-05 22:26:00,
2013-06-05 18:27:00,67.4,61.0,29.79,North,0,0.0,0.0,80,0.00,,,0.00,106.00,VWS V14.01,2013-06-05 22:27:00,
2013-06-05 18:28:00,67.3,61.3,29.79,North,0,0.0,0.0,81,0.00,,,0.00,106.00,VWS V14.01,2013-06-05 22:28:00,
2013-06-05 18:29:00,67.3,61.3,29.79,North,0,0.0,0.0,81,0.00,,,0.00,107.00,VWS V14.01,2013-06-05 22:29:00,
2013-06-05 18:30:00,67.3,61.3,29.79,North,0,0.0,0.0,81,0.00,,,0.00,114.00,VWS V14.01,2013-06-05 22:30:00,
2013-06-05 18:31:00,67.3,61.3,29.79,North,0,0.0,0.0,81,0.00,,,0.00,113.00,VWS V14.01,2013-06-05 22:31:00,
2013-06-05 18:32:00,67.3,61.3,29.79,North,0,0.0,0.0,81,0.00,,,0.00,91.00,VWS V14.01,2013-06-05 22:32:00,
2013-06-05 18:33:00,67.3,61.3,29.79,North,0,0.0,0.0,81,0.00,,,0.00,79.00,VWS V14.01,2013-06-05 22:33:00,
2013-06-05 18:34:00,67.1,61.1,29.79,North,0,0.0,0.0,81,0.00,,,0.00,69.00,VWS V14.01,2013-06-05 22:34:00,
2013-06-05 18:35:00,67.1,61.1,29.79,North,0,0.0,0.0,81,0.00,,,0.00,62.00,VWS V14.01,2013-06-05 22:35:00,
2013-06-05 18:36:00,67.1,61.1,29.79,North,0,0.0,0.0,81,0.00,,,0.00,62.00,VWS V14.01,2013-06-05 22:36:00,
2013-06-05 18:37:00,67.1,61.1,29.79,North,0,0.0,0.0,81,0.00,,,0.00,55.00,VWS V14.01,2013-06-05 22:37:00,
2013-06-05 18:38:00,67.1,61.1,29.79,North,0,0.0,0.0,81,0.00,,,0.00,55.00,VWS V14.01,2013-06-05 22:38:00,
2013-06-05 18:39:00,67.1,61.1,29.79,North,0,0.0,0.0,81,0.00,,,0.00,58.00,VWS V14.01,2013-06-05 22:39:00,
2013-06-05 18:40:00,67.1,61.1,29.79,North,0,0.0,0.0,81,0.00,,,0.00,63.00,VWS V14.01,2013-06-05 22:40:00,
2013-06-05 18:41:00,66.9,60.9,29.79,North,0,0.0,0.0,81,0.00,,,0.00,70.00,VWS V14.01,2013-06-05 22:41:00,
2013-06-05 18:42:00,66.9,60.9,29.79,North,0,0.0,0.0,81,0.00,,,0.00,71.00,VWS V14.01,2013-06-05 22:42:00,
2013-06-05 18:43:00,66.9,60.9,29.79,North,0,0.0,0.0,81,0.00,,,0.00,69.00,VWS V14.01,2013-06-05 22:43:00,
2013-06-05 18:44:00,66.8,60.8,29.79,North,0,0.0,0.0,81,0.00,,,0.00,67.00,VWS V14.01,2013-06-05 22:44:00,
2013-06-05 18:45:00,66.8,61.1,29.79,North,0,0.0,0.0,82,0.00,,,0.00,65.00,VWS V14.01,2013-06-05 22:45:00,
2013-06-05 18:46:00,66.8,61.1,29.79,North,0,0.0,0.0,82,0.00,,,0.00,63.00,VWS V14.01,2013-06-05 22:46:00,
2013-06-05 18:47:00,66.8,61.1,29.79,North,0,0.0,0.0,82,0.00,,,0.00,58.00,VWS V14.01,2013-06-05 22:47:00,
2013-06-05 18:48:00,66.8,61.1,29.79,North,0,0.0,0.0,82,0.00,,,0.00,51.00,VWS V14.01,2013-06-05 22:48:00,
2013-06-05 18:49:00,66.6,60.9,29.79,North,0,0.0,0.0,82,0.00,,,0.00,48.00,VWS V14.01,2013-06-05 22:49:00,
2013-06-05 18:50:00,66.6,60.9,29.79,North,0,0.0,0.0,82,0.00,,,0.00,44.00,VWS V14.01,2013-06-05 22:50:00,
2013-06-05 18:51:00,66.6,60.9,29.79,North,0,0.0,0.0,82,0.00,,,0.00,44.00,VWS V14.01,2013-06-05 22:51:00,
2013-06-05 18:52:00,66.6,60.9,29.79,North,0,0.0,0.0,82,0.00,,,0.00,44.00,VWS V14.01,2013-06-05 22:52:00,
2013-06-05 18:53:00,66.6,60.9,29.79,North,0,0.0,0.0,82,0.00,,,0.00,42.00,VWS V14.01,2013-06-05 22:53:00,
2013-06-05 18:54:00,66.6,61.3,29.79,North,0,0.0,0.0,83,0.00,,,0.00,40.00,VWS V14.01,2013-06-05 22:54:00,
2013-06-05 18:55:00,66.4,61.1,29.79,North,0,0.0,0.0,83,0.00,,,0.00,40.00,VWS V14.01,2013-06-05 22:55:00,
2013-06-05 18:56:00,66.4,61.1,29.79,North,0,0.0,0.0,83,0.00,,,0.00,39.00,VWS V14.01,2013-06-05 22:56:00,
2013-06-05 18:57:00,66.4,61.1,29.79,North,0,0.0,0.0,83,0.00,,,0.00,41.00,VWS V14.01,2013-06-05 22:57:00,
2013-06-05 18:58:00,66.4,61.1,29.79,North,0,0.0,0.0,83,0.00,,,0.00,42.00,VWS V14.01,2013-06-05 22:58:00,
2013-06-05 18:59:00,66.4,61.1,29.79,North,0,0.0,0.0,83,0.00,,,0.00,42.00,VWS V14.01,2013-06-05 22:59:00,
2013-06-05 19:00:00,66.4,61.1,29.79,North,0,0.0,0.0,83,0.00,,,0.00,42.00,VWS V14.01,2013-06-05 23:00:00,
2013-06-05 19:01:00,66.4,61.1,29.79,North,0,0.0,0.0,83,0.00,,,0.00,42.00,VWS V14.01,2013-06-05 23:01:00,
2013-06-05 19:02:00,66.4,61.1,29.79,North,0,0.0,0.0,83,0.00,,,0.00,42.00,VWS V14.01,2013-06-05 23:02:00,
2013-06-05 19:03:00,66.4,61.1,29.79,North,0,0.0,0.0,83,0.00,,,0.00,42.00,VWS V14.01,2013-06-05 23:03:00,
2013-06-05 19:04:00,66.3,61.0,29.79,North,0,0.0,0.0,83,0.00,,,0.00,40.00,VWS V14.01,2013-06-05 23:04:00,
2013-06-05 19:05:00,66.3,61.3,29.79,North,0,0.0,0.0,84,0.00,,,0.00,40.00,VWS V14.01,2013-06-05 23:05:00,
2013-06-05 19:06:00,66.3,61.3,29.79,North,0,0.0,0.0,84,0.00,,,0.00,40.00,VWS V14.01,2013-06-05 23:06:00,
2013-06-05 19:07:00,66.3,61.3,29.79,North,0,0.0,0.0,84,0.00,,,0.00,40.00,VWS V14.01,2013-06-05 23:07:00,
2013-06-05 19:08:00,66.1,61.1,29.79,North,0,0.0,0.0,84,0.00,,,0.00,51.00,VWS V14.01,2013-06-05 23:08:00,
2013-06-05 19:09:00,66.1,61.1,29.79,North,0,0.0,0.0,84,0.00,,,0.00,51.00,VWS V14.01,2013-06-05 23:09:00,
2013-06-05 19:10:00,66.1,61.1,29.79,North,0,0.0,0.0,84,0.00,,,0.00,51.00,VWS V14.01,2013-06-05 23:10:00,
2013-06-05 19:11:00,66.1,61.1,29.79,North,0,0.0,0.0,84,0.00,,,0.00,51.00,VWS V14.01,2013-06-05 23:11:00,
2013-06-05 19:12:00,66.1,61.1,29.79,North,0,0.0,0.0,84,0.00,,,0.00,47.00,VWS V14.01,2013-06-05 23:12:00,
2013-06-05 19:13:00,66.1,61.1,29.79,North,0,0.0,0.0,84,0.00,,,0.00,42.00,VWS V14.01,2013-06-05 23:13:00,
2013-06-05 19:14:00,66.1,61.1,29.79,North,0,0.0,0.0,84,0.00,,,0.00,42.00,VWS V14.01,2013-06-05 23:14:00,
2013-06-05 19:15:00,66.1,61.1,29.79,North,0,0.0,0.0,84,0.00,,,0.00,42.00,VWS V14.01,2013-06-05 23:15:00,
2013-06-05 19:16:00,66.1,61.1,29.79,North,0,0.0,0.0,84,0.00,,,0.00,42.00,VWS V14.01,2013-06-05 23:16:00,
2013-06-05 19:17:00,66.1,61.1,29.79,North,0,0.0,0.0,84,0.00,,,0.00,55.00,VWS V14.01,2013-06-05 23:17:00,
2013-06-05 19:18:00,66.1,61.1,29.79,North,0,0.0,0.0,84,0.00,,,0.00,55.00,VWS V14.01,2013-06-05 23:18:00,
2013-06-05 19:19:00,66.1,61.1,29.79,North,0,0.0,0.0,84,0.00,,,0.00,55.00,VWS V14.01,2013-06-05 23:19:00,
2013-06-05 19:20:00,66.0,61.0,29.79,North,0,0.0,0.0,84,0.00,,,0.00,55.00,VWS V14.01,2013-06-05 23:20:00,
2013-06-05 19:21:00,66.0,61.0,29.79,North,0,0.0,0.0,84,0.00,,,0.00,55.00,VWS V14.01,2013-06-05 23:21:00,
2013-06-05 19:22:00,66.0,61.0,29.79,North,0,0.0,0.0,84,0.00,,,0.00,55.00,VWS V14.01,2013-06-05 23:22:00,
2013-06-05 19:26:00,65.8,61.2,29.79,North,0,0.0,0.0,85,0.00,,,0.00,70.00,VWS V14.01,2013-06-05 23:26:00,
2013-06-05 19:27:00,65.8,61.2,29.79,North,0,0.0,0.0,85,0.00,,,0.00,68.00,VWS V14.01,2013-06-05 23:27:00,
2013-06-05 19:28:00,65.8,61.2,29.79,North,0,0.0,0.0,85,0.00,,,0.00,65.00,VWS V14.01,2013-06-05 23:28:00,
2013-06-05 19:29:00,65.8,61.2,29.79,North,0,0.0,0.0,85,0.00,,,0.00,63.00,VWS V14.01,2013-06-05 23:29:00,
2013-06-05 19:30:00,65.8,61.2,29.79,North,0,0.0,0.0,85,0.00,,,0.00,63.00,VWS V14.01,2013-06-05 23:30:00,
2013-06-05 19:31:00,65.8,61.2,29.79,North,0,0.0,0.0,85,0.00,,,0.00,63.00,VWS V14.01,2013-06-05 23:31:00,
2013-06-05 19:32:00,65.6,61.0,29.79,North,0,0.0,0.0,85,0.00,,,0.00,61.00,VWS V14.01,2013-06-05 23:32:00,
2013-06-05 19:33:00,65.6,61.0,29.79,North,0,0.0,0.0,85,0.00,,,0.00,58.00,VWS V14.01,2013-06-05 23:33:00,
2013-06-05 19:34:00,65.6,61.0,29.79,North,0,0.0,0.0,85,0.00,,,0.00,58.00,VWS V14.01,2013-06-05 23:34:00,
2013-06-05 19:35:00,65.6,61.0,29.79,North,0,0.0,0.0,85,0.00,,,0.00,58.00,VWS V14.01,2013-06-05 23:35:00,
2013-06-05 19:36:00,65.6,61.3,29.79,North,0,0.0,0.0,86,0.00,,,0.00,58.00,VWS V14.01,2013-06-05 23:36:00,
2013-06-05 19:37:00,65.7,61.4,29.79,North,0,0.0,0.0,86,0.00,,,0.00,52.00,VWS V14.01,2013-06-05 23:37:00,
2013-06-05 19:38:00,65.8,61.2,29.79,North,0,0.0,0.0,85,0.00,,,0.00,49.00,VWS V14.01,2013-06-05 23:38:00,
2013-06-05 19:39:00,65.6,61.0,29.79,North,0,0.0,0.0,85,0.00,,,0.00,44.00,VWS V14.01,2013-06-05 23:39:00,
2013-06-05 19:40:00,65.6,61.0,29.79,North,0,0.0,0.0,85,0.00,,,0.00,42.00,VWS V14.01,2013-06-05 23:40:00,
2013-06-05 19:41:00,65.6,61.0,29.79,North,0,0.0,0.0,85,0.00,,,0.00,39.00,VWS V14.01,2013-06-05 23:41:00,
2013-06-05 19:42:00,65.6,61.0,29.79,North,0,0.0,0.0,85,0.00,,,0.00,39.00,VWS V14.01,2013-06-05 23:42:00,
2013-06-05 19:43:00,65.6,61.0,29.79,North,0,0.0,0.0,85,0.00,,,0.00,37.00,VWS V14.01,2013-06-05 23:43:00,
2013-06-05 19:44:00,65.6,61.0,29.79,North,0,0.0,0.0,85,0.00,,,0.00,33.00,VWS V14.01,2013-06-05 23:44:00,
2013-06-05 19:45:00,65.6,61.0,29.79,North,0,0.0,0.0,85,0.00,,,0.00,30.00,VWS V14.01,2013-06-05 23:45:00,
2013-06-05 19:46:00,65.6,61.3,29.79,North,0,0.0,0.0,86,0.00,,,0.00,26.00,VWS V14.01,2013-06-05 23:46:00,
2013-06-05 19:47:00,65.6,61.0,29.79,North,0,0.0,0.0,85,0.00,,,0.00,24.00,VWS V14.01,2013-06-05 23:47:00,
2013-06-05 19:48:00,65.6,61.3,29.79,North,0,0.0,0.0,86,0.00,,,0.00,21.00,VWS V14.01,2013-06-05 23:48:00,
2013-06-05 19:49:00,65.6,61.3,29.79,North,0,0.0,0.0,86,0.00,,,0.00,21.00,VWS V14.01,2013-06-05 23:49:00,
2013-06-05 19:51:00,65.6,61.3,29.79,North,0,0.0,0.0,86,0.00,,,0.00,21.00,VWS V14.01,2013-06-05 23:51:00,
2013-06-05 19:52:00,65.6,61.3,29.79,North,0,0.0,0.0,86,0.00,,,0.00,16.00,VWS V14.01,2013-06-05 23:52:00,
2013-06-05 19:53:00,65.5,61.2,29.79,North,0,0.0,0.0,86,0.00,,,0.00,16.00,VWS V14.01,2013-06-05 23:53:00,
2013-06-05 19:54:00,65.5,61.2,29.79,North,0,0.0,0.0,86,0.00,,,0.00,16.00,VWS V14.01,2013-06-05 23:54:00,
2013-06-05 19:55:00,65.5,61.2,29.79,North,0,0.0,0.0,86,0.00,,,0.00,16.00,VWS V14.01,2013-06-05 23:55:00,
2013-06-05 19:56:00,65.5,61.2,29.79,North,0,0.0,0.0,86,0.00,,,0.00,16.00,VWS V14.01,2013-06-05 23:56:00,
2013-06-05 19:57:00,65.5,61.2,29.79,North,0,0.0,0.0,86,0.00,,,0.00,18.00,VWS V14.01,2013-06-05 23:57:00,
2013-06-05 19:58:00,65.5,61.2,29.79,North,0,0.0,0.0,86,0.00,,,0.00,18.00,VWS V14.01,2013-06-05 23:58:00,
2013-06-05 19:59:00,65.5,61.2,29.79,North,0,0.0,0.0,86,0.00,,,0.00,18.00,VWS V14.01,2013-06-05 23:59:00,
2013-06-05 20:00:00,65.5,61.2,29.79,North,0,0.0,0.0,86,0.00,,,0.00,18.00,VWS V14.01,2013-06-06 00:00:00,
2013-06-05 20:01:00,65.5,61.2,29.79,North,0,0.0,0.0,86,0.00,,,0.00,23.00,VWS V14.01,2013-06-06 00:01:00,
2013-06-05 20:02:00,65.5,61.2,29.79,North,0,0.0,0.0,86,0.00,,,0.00,23.00,VWS V14.01,2013-06-06 00:02:00,
2013-06-05 20:03:00,65.5,61.2,29.79,North,0,0.0,0.0,86,0.00,,,0.00,23.00,VWS V14.01,2013-06-06 00:03:00,
2013-06-05 20:04:00,65.5,61.2,29.79,North,0,0.0,0.0,86,0.00,,,0.00,23.00,VWS V14.01,2013-06-06 00:04:00,
2013-06-05 20:05:00,65.5,61.2,29.79,North,0,0.0,0.0,86,0.00,,,0.00,16.00,VWS V14.01,2013-06-06 00:05:00,
2013-06-05 20:06:00,65.5,61.2,29.79,North,0,0.0,0.0,86,0.00,,,0.00,16.00,VWS V14.01,2013-06-06 00:06:00,
2013-06-05 20:07:00,65.5,61.2,29.79,North,0,0.0,0.0,86,0.00,,,0.00,16.00,VWS V14.01,2013-06-06 00:07:00,
2013-06-05 20:08:00,65.5,61.2,29.79,North,0,0.0,0.0,86,0.00,,,0.00,16.00,VWS V14.01,2013-06-06 00:08:00,
2013-06-05 20:09:00,65.5,61.2,29.79,North,0,0.0,0.0,86,0.00,,,0.00,9.00,VWS V14.01,2013-06-06 00:09:00,
2013-06-05 20:10:00,65.5,61.2,29.79,North,0,0.0,0.0,86,0.00,,,0.00,9.00,VWS V14.01,2013-06-06 00:10:00,
2013-06-05 20:11:00,65.5,61.2,29.79,North,0,0.0,0.0,86,0.00,,,0.00,9.00,VWS V14.01,2013-06-06 00:11:00,
2013-06-05 20:12:00,65.5,61.2,29.79,North,0,0.0,0.0,86,0.00,,,0.00,9.00,VWS V14.01,2013-06-06 00:12:00,
2013-06-05 20:13:00,65.3,61.0,29.79,North,0,0.0,0.0,86,0.00,,,0.00,7.00,VWS V14.01,2013-06-06 00:13:00,
2013-06-05 20:14:00,65.3,61.0,29.79,North,0,0.0,0.0,86,0.00,,,0.00,7.00,VWS V14.01,2013-06-06 00:14:00,
2013-06-05 20:15:00,65.3,61.0,29.78,North,0,0.0,0.0,86,0.00,,,0.00,7.00,VWS V14.01,2013-06-06 00:15:00,
2013-06-05 20:16:00,65.3,61.0,29.78,North,0,0.0,0.0,86,0.00,,,0.00,7.00,VWS V14.01,2013-06-06 00:16:00,
2013-06-05 20:17:00,65.3,61.0,29.78,North,0,0.0,0.0,86,0.00,,,0.00,6.00,VWS V14.01,2013-06-06 00:17:00,
2013-06-05 20:18:00,65.3,61.0,29.78,North,0,0.0,0.0,86,0.00,,,0.00,5.00,VWS V14.01,2013-06-06 00:18:00,
2013-06-05 20:19:00,65.3,61.0,29.78,North,0,0.0,0.0,86,0.00,,,0.00,5.00,VWS V14.01,2013-06-06 00:19:00,
2013-06-05 20:20:00,65.3,61.0,29.78,North,0,0.0,0.0,86,0.00,,,0.00,5.00,VWS V14.01,2013-06-06 00:20:00,
2013-06-05 20:21:00,65.3,61.3,29.78,North,0,0.0,0.0,87,0.00,,,0.00,5.00,VWS V14.01,2013-06-06 00:21:00,
2013-06-05 20:22:00,65.2,61.2,29.78,North,0,0.0,0.0,87,0.00,,,0.00,0.00,VWS V14.01,2013-06-06 00:22:00,
2013-06-05 20:25:00,65.2,61.2,29.78,North,0,0.0,0.0,87,0.00,,,0.00,0.00,VWS V14.01,2013-06-06 00:25:00,
2013-06-05 20:26:00,65.2,61.2,29.78,North,0,0.0,0.0,87,0.00,,,0.00,0.00,VWS V14.01,2013-06-06 00:26:00,
2013-06-05 20:27:00,65.2,61.2,29.78,North,0,0.0,0.0,87,0.00,,,0.00,0.00,VWS V14.01,2013-06-06 00:27:00,
2013-06-05 20:28:00,65.2,61.2,29.78,North,0,0.0,0.0,87,0.00,,,0.00,0.00,VWS V14.01,2013-06-06 00:28:00,
2013-06-05 20:29:00,65.2,61.2,29.78,North,0,0.0,0.0,87,0.00,,,0.00,0.00,VWS V14.01,2013-06-06 00:29:00,
2013-06-05 20:30:00,65.2,61.2,29.78,North,0,0.0,0.0,87,0.00,,,0.00,0.00,VWS V14.01,2013-06-06 00:30:00,
2013-06-05 20:31:00,65.2,61.2,29.78,North,0,0.0,0.0,87,0.00,,,0.00,0.00,VWS V14.01,2013-06-06 00:31:00,
2013-06-05 20:32:00,65.2,61.2,29.78,North,0,0.0,0.0,87,0.00,,,0.00,0.00,VWS V14.01,2013-06-06 00:32:00,
2013-06-05 20:33:00,65.2,61.2,29.78,North,0,0.0,0.0,87,0.00,,,0.00,0.00,VWS V14.01,2013-06-06 00:33:00,
2013-06-05 20:34:00,65.2,61.2,29.78,North,0,0.0,0.0,87,0.00,,,0.00,0.00,VWS V14.01,2013-06-06 00:34:00,
2013-06-05 20:35:00,65.2,61.2,29.78,North,0,0.0,0.0,87,0.00,,,0.00,0.00,VWS V14.01,2013-06-06 00:35:00,
2013-06-05 20:36:00,65.0,61.0,29.78,North,0,0.0,0.0,87,0.00,,,0.00,0.00,VWS V14.01,2013-06-06 00:36:00,
2013-06-05 20:37:00,65.0,61.0,29.78,North,0,0.0,0.0,87,0.00,,,0.00,0.00,VWS V14.01,2013-06-06 00:37:00,
2013-06-05 20:38:00,65.0,61.0,29.78,North,0,0.0,0.0,87,0.00,,,0.00,0.00,VWS V14.01,2013-06-06 00:38:00,
2013-06-05 20:39:00,65.0,61.0,29.78,North,0,0.0,0.0,87,0.00,,,0.00,0.00,VWS V14.01,2013-06-06 00:39:00,
2013-06-05 20:40:00,65.0,61.0,29.78,North,0,0.0,0.0,87,0.00,,,0.00,0.00,VWS V14.01,2013-06-06 00:40:00,
2013-06-05 20:41:00,65.0,61.0,29.78,North,0,0.0,0.0,87,0.00,,,0.00,0.00,VWS V14.01,2013-06-06 00:41:00,
2013-06-05 20:42:00,65.0,61.0,29.78,North,0,0.0,0.0,87,0.00,,,0.00,0.00,VWS V14.01,2013-06-06 00:42:00,
2013-06-05 20:43:00,65.0,61.0,29.78,North,0,0.0,0.0,87,0.00,,,0.00,0.00,VWS V14.01,2013-06-06 00:43:00,
2013-06-05 20:44:00,65.0,61.0,29.78,North,0,0.0,0.0,87,0.00,,,0.00,0.00,VWS V14.01,2013-06-06 00:44:00,
2013-06-05 20:45:00,65.0,61.0,29.78,North,0,0.0,0.0,87,0.00,,,0.00,0.00,VWS V14.01,2013-06-06 00:45:00,
2013-06-05 20:46:00,65.0,61.0,29.78,North,0,0.0,0.0,87,0.00,,,0.00,0.00,VWS V14.01,2013-06-06 00:46:00,
2013-06-05 20:47:00,64.8,60.8,29.78,North,0,0.0,0.0,87,0.00,,,0.00,0.00,VWS V14.01,2013-06-06 00:47:00,
2013-06-05 20:48:00,64.8,60.8,29.78,North,0,0.0,0.0,87,0.00,,,0.00,0.00,VWS V14.01,2013-06-06 00:48:00,
2013-06-05 20:49:00,64.8,60.8,29.78,North,0,0.0,0.0,87,0.00,,,0.00,0.00,VWS V14.01,2013-06-06 00:49:00,
2013-06-05 20:50:00,64.8,60.8,29.78,North,0,0.0,0.0,87,0.00,,,0.00,0.00,VWS V14.01,2013-06-06 00:50:00,
2013-06-05 20:51:00,64.8,60.8,29.78,North,0,0.0,0.0,87,0.00,,,0.00,0.00,VWS V14.01,2013-06-06 00:51:00,
2013-06-05 20:52:00,64.8,60.8,29.78,North,0,0.0,0.0,87,0.00,,,0.00,0.00,VWS V14.01,2013-06-06 00:52:00,
2013-06-05 20:53:00,64.8,60.8,29.78,North,0,0.0,0.0,87,0.00,,,0.00,0.00,VWS V14.01,2013-06-06 00:53:00,
2013-06-05 20:54:00,64.8,60.8,29.78,North,0,0.0,0.0,87,0.00,,,0.00,0.00,VWS V14.01,2013-06-06 00:54:00,
2013-06-05 20:55:00,64.8,60.8,29.78,North,0,0.0,0.0,87,0.00,,,0.00,0.00,VWS V14.01,2013-06-06 00:55:00,
2013-06-05 20:56:00,64.8,60.8,29.78,North,0,0.0,0.0,87,0.00,,,0.00,0.00,VWS V14.01,2013-06-06 00:56:00,
2013-06-05 20:57:00,64.7,60.8,29.78,North,0,0.0,0.0,87,0.00,,,0.00,0.00,VWS V14.01,2013-06-06 00:57:00,
2013-06-05 20:58:00,64.7,60.8,29.78,North,0,0.0,0.0,87,0.00,,,0.00,0.00,VWS V14.01,2013-06-06 00:58:00,
2013-06-05 20:59:00,64.7,60.8,29.78,North,0,0.0,0.0,87,0.00,,,0.00,0.00,VWS V14.01,2013-06-06 00:59:00,
2013-06-05 21:00:00,64.7,60.8,29.79,North,0,0.0,0.0,87,0.00,,,0.00,0.00,VWS V14.01,2013-06-06 01:00:00,
2013-06-05 21:01:00,64.7,60.8,29.79,North,0,0.0,0.0,87,0.00,,,0.00,0.00,VWS V14.01,2013-06-06 01:01:00,
2013-06-05 21:02:00,64.7,60.8,29.79,North,0,0.0,0.0,87,0.00,,,0.00,0.00,VWS V14.01,2013-06-06 01:02:00,
2013-06-05 21:03:00,64.7,60.8,29.79,North,0,0.0,0.0,87,0.00,,,0.00,0.00,VWS V14.01,2013-06-06 01:03:00,
2013-06-05 21:04:00,64.7,60.8,29.79,North,0,0.0,0.0,87,0.00,,,0.00,0.00,VWS V14.01,2013-06-06 01:04:00,
2013-06-05 21:05:00,64.5,60.5,29.79,North,0,0.0,0.0,87,0.00,,,0.00,0.00,VWS V14.01,2013-06-06 01:05:00,
2013-06-05 21:06:00,64.5,60.5,29.79,North,0,0.0,0.0,87,0.00,,,0.00,0.00,VWS V14.01,2013-06-06 01:06:00,
2013-06-05 21:07:00,64.5,60.5,29.79,North,0,0.0,0.0,87,0.00,,,0.00,0.00,VWS V14.01,2013-06-06 01:07:00,
2013-06-05 21:08:00,64.5,60.5,29.79,North,0,0.0,0.0,87,0.00,,,0.00,0.00,VWS V14.01,2013-06-06 01:08:00,
2013-06-05 21:09:00,64.5,60.5,29.79,North,0,0.0,0.0,87,0.00,,,0.00,0.00,VWS V14.01,2013-06-06 01:09:00,
2013-06-05 21:10:00,64.5,60.5,29.79,North,0,0.0,0.0,87,0.00,,,0.00,0.00,VWS V14.01,2013-06-06 01:10:00,
2013-06-05 21:11:00,64.5,60.5,29.79,North,0,0.0,0.0,87,0.00,,,0.00,0.00,VWS V14.01,2013-06-06 01:11:00,
2013-06-05 21:12:00,64.4,60.5,29.79,North,0,0.0,0.0,87,0.00,,,0.00,0.00,VWS V14.01,2013-06-06 01:12:00,
2013-06-05 21:13:00,64.3,60.3,29.79,North,0,0.0,0.0,87,0.00,,,0.00,0.00,VWS V14.01,2013-06-06 01:13:00,
2013-06-05 21:14:00,64.3,60.3,29.79,North,0,0.0,0.0,87,0.00,,,0.00,0.00,VWS V14.01,2013-06-06 01:14:00,
2013-06-05 21:15:00,64.3,60.3,29.79,North,0,0.0,0.0,87,0.00,,,0.00,0.00,VWS V14.01,2013-06-06 01:15:00,
2013-06-05 21:16:00,64.3,60.3,29.79,North,0,0.0,0.0,87,0.00,,,0.00,0.00,VWS V14.01,2013-06-06 01:16:00,
2013-06-05 21:17:00,64.3,60.3,29.79,North,0,0.0,0.0,87,0.00,,,0.00,0.00,VWS V14.01,2013-06-06 01:17:00,
2013-06-05 21:18:00,64.3,60.3,29.79,North,0,0.0,0.0,87,0.00,,,0.00,0.00,VWS V14.01,2013-06-06 01:18:00,
2013-06-05 21:19:00,64.3,60.3,29.79,North,0,0.0,0.0,87,0.00,,,0.00,0.00,VWS V14.01,2013-06-06 01:19:00,
2013-06-05 21:20:00,64.3,60.3,29.79,North,0,0.0,0.0,87,0.00,,,0.00,0.00,VWS V14.01,2013-06-06 01:20:00,
2013-06-05 21:21:00,64.3,60.3,29.79,North,0,0.0,0.0,87,0.00,,,0.00,0.00,VWS V14.01,2013-06-06 01:21:00,
2013-06-05 21:22:00,64.3,60.3,29.79,North,0,0.0,0.0,87,0.00,,,0.00,0.00,VWS V14.01,2013-06-06 01:22:00,
2013-06-05 21:23:00,64.3,60.3,29.79,North,0,0.0,0.0,87,0.00,,,0.00,0.00,VWS V14.01,2013-06-06 01:23:00,
2013-06-05 21:24:00,64.3,60.3,29.79,North,0,0.0,0.0,87,0.00,,,0.00,0.00,VWS V14.01,2013-06-06 01:24:00,
2013-06-05 21:25:00,64.3,60.3,29.79,North,0,0.0,0.0,87,0.00,,,0.00,0.00,VWS V14.01,2013-06-06 01:25:00,
2013-06-05 21:26:00,64.3,60.3,29.79,North,0,0.0,0.0,87,0.00,,,0.00,0.00,VWS V14.01,2013-06-06 01:26:00,
2013-06-05 21:27:00,64.3,60.3,29.79,North,0,0.0,0.0,87,0.00,,,0.00,0.00,VWS V14.01,2013-06-06 01:27:00,
2013-06-05 21:28:00,64.3,60.3,29.79,North,0,0.0,0.0,87,0.00,,,0.00,0.00,VWS V14.01,2013-06-06 01:28:00,
2013-06-05 21:29:00,64.3,60.3,29.79,North,0,0.0,0.0,87,0.00,,,0.00,0.00,VWS V14.01,2013-06-06 01:29:00,
2013-06-05 21:30:00,64.3,60.3,29.79,North,0,0.0,0.0,87,0.00,,,0.00,0.00,VWS V14.01,2013-06-06 01:30:00,
2013-06-05 21:31:00,64.3,60.3,29.79,North,0,0.0,0.0,87,0.00,,,0.00,0.00,VWS V14.01,2013-06-06 01:31:00,
2013-06-05 21:32:00,64.3,60.3,29.79,North,0,0.0,0.0,87,0.00,,,0.00,0.00,VWS V14.01,2013-06-06 01:32:00,
2013-06-05 21:33:00,64.3,60.3,29.79,North,0,0.0,0.0,87,0.00,,,0.00,0.00,VWS V14.01,2013-06-06 01:33:00,
2013-06-05 21:34:00,64.3,60.3,29.79,North,0,0.0,0.0,87,0.00,,,0.00,0.00,VWS V14.01,2013-06-06 01:34:00,
2013-06-05 21:35:00,64.3,60.3,29.79,North,0,0.0,0.0,87,0.00,,,0.00,0.00,VWS V14.01,2013-06-06 01:35:00,
2013-06-05 21:36:00,64.3,60.3,29.79,North,0,0.0,0.0,87,0.00,,,0.00,0.00,VWS V14.01,2013-06-06 01:36:00,
2013-06-05 21:37:00,64.3,60.3,29.79,North,0,0.0,0.0,87,0.00,,,0.00,0.00,VWS V14.01,2013-06-06 01:37:00,
2013-06-05 21:38:00,64.3,60.3,29.79,North,0,0.0,0.0,87,0.00,,,0.00,0.00,VWS V14.01,2013-06-06 01:38:00,
2013-06-05 21:39:00,64.3,60.3,29.79,North,0,0.0,0.0,87,0.00,,,0.00,0.00,VWS V14.01,2013-06-06 01:39:00,
2013-06-05 21:40:00,64.3,60.3,29.79,North,0,0.0,0.0,87,0.00,,,0.00,0.00,VWS V14.01,2013-06-06 01:40:00,
2013-06-05 21:41:00,64.3,60.3,29.79,North,0,0.0,0.0,87,0.00,,,0.00,0.00,VWS V14.01,2013-06-06 01:41:00,
2013-06-05 21:42:00,64.3,60.3,29.79,North,0,0.0,0.0,87,0.00,,,0.00,0.00,VWS V14.01,2013-06-06 01:42:00,
2013-06-05 21:43:00,64.3,60.3,29.79,North,0,0.0,0.0,87,0.00,,,0.00,0.00,VWS V14.01,2013-06-06 01:43:00,
2013-06-05 21:44:00,64.3,60.3,29.79,North,0,0.0,0.0,87,0.00,,,0.00,0.00,VWS V14.01,2013-06-06 01:44:00,
2013-06-05 21:45:00,64.3,60.3,29.80,North,0,0.0,0.0,87,0.00,,,0.00,0.00,VWS V14.01,2013-06-06 01:45:00,
2013-06-05 21:46:00,64.3,60.3,29.80,North,0,0.0,0.0,87,0.00,,,0.00,0.00,VWS V14.01,2013-06-06 01:46:00,
2013-06-05 21:47:00,64.3,60.3,29.80,North,0,0.0,0.0,87,0.00,,,0.00,0.00,VWS V14.01,2013-06-06 01:47:00,
2013-06-05 21:48:00,64.3,60.3,29.80,North,0,0.0,0.0,87,0.00,,,0.00,0.00,VWS V14.01,2013-06-06 01:48:00,
2013-06-05 21:49:00,64.3,60.3,29.80,North,0,0.0,0.0,87,0.00,,,0.00,0.00,VWS V14.01,2013-06-06 01:49:00,
2013-06-05 21:50:00,64.3,60.3,29.80,North,0,0.0,0.0,87,0.00,,,0.00,0.00,VWS V14.01,2013-06-06 01:50:00,
2013-06-05 21:51:00,64.3,60.3,29.80,North,0,0.0,0.0,87,0.00,,,0.00,0.00,VWS V14.01,2013-06-06 01:51:00,
2013-06-05 21:52:00,64.3,60.3,29.80,North,0,0.0,0.0,87,0.00,,,0.00,0.00,VWS V14.01,2013-06-06 01:52:00,
2013-06-05 21:53:00,64.3,60.3,29.80,North,0,0.0,0.0,87,0.00,,,0.00,0.00,VWS V14.01,2013-06-06 01:53:00,
2013-06-05 21:54:00,64.3,60.3,29.80,North,0,0.0,0.0,87,0.00,,,0.00,0.00,VWS V14.01,2013-06-06 01:54:00,
2013-06-05 21:55:00,64.3,60.3,29.80,North,0,0.0,0.0,87,0.00,,,0.00,0.00,VWS V14.01,2013-06-06 01:55:00,
2013-06-05 21:56:00,64.3,60.3,29.80,North,0,0.0,0.0,87,0.00,,,0.00,0.00,VWS V14.01,2013-06-06 01:56:00,
2013-06-05 21:57:00,64.3,60.3,29.80,North,0,0.0,0.0,87,0.00,,,0.00,0.00,VWS V14.01,2013-06-06 01:57:00,
2013-06-05 21:58:00,64.3,60.3,29.80,North,0,0.0,0.0,87,0.00,,,0.00,0.00,VWS V14.01,2013-06-06 01:58:00,
2013-06-05 21:59:00,64.3,60.3,29.80,North,0,0.0,0.0,87,0.00,,,0.00,0.00,VWS V14.01,2013-06-06 01:59:00,
2013-06-05 22:00:00,64.4,60.5,29.80,North,0,0.0,0.0,87,0.00,,,0.00,0.00,VWS V14.01,2013-06-06 02:00:00,
2013-06-05 22:01:00,64.4,60.5,29.80,North,0,0.0,0.0,87,0.00,,,0.00,0.00,VWS V14.01,2013-06-06 02:01:00,
2013-06-05 22:02:00,64.5,60.5,29.80,North,0,0.0,0.0,87,0.00,,,0.00,0.00,VWS V14.01,2013-06-06 02:02:00,
2013-06-05 22:03:00,64.5,60.5,29.80,North,0,0.0,0.0,87,0.00,,,0.00,0.00,VWS V14.01,2013-06-06 02:03:00,
2013-06-05 22:04:00,64.5,60.5,29.80,North,0,0.0,0.0,87,0.00,,,0.00,0.00,VWS V14.01,2013-06-06 02:04:00,
2013-06-05 22:05:00,64.5,60.5,29.80,North,0,0.0,0.0,87,0.00,,,0.00,0.00,VWS V14.01,2013-06-06 02:05:00,
2013-06-05 22:06:00,64.5,60.5,29.80,North,0,0.0,0.0,87,0.00,,,0.00,0.00,VWS V14.01,2013-06-06 02:06:00,
2013-06-05 22:07:00,64.5,60.5,29.80,North,0,0.0,0.0,87,0.00,,,0.00,0.00,VWS V14.01,2013-06-06 02:07:00,
2013-06-05 22:08:00,64.5,60.5,29.80,North,0,0.0,0.0,87,0.00,,,0.00,0.00,VWS V14.01,2013-06-06 02:08:00,
2013-06-05 22:09:00,64.5,60.5,29.80,North,0,0.0,0.0,87,0.00,,,0.00,0.00,VWS V14.01,2013-06-06 02:09:00,
2013-06-05 22:10:00,64.5,60.5,29.80,North,0,0.0,0.0,87,0.00,,,0.00,0.00,VWS V14.01,2013-06-06 02:10:00,
2013-06-05 22:11:00,64.5,60.5,29.80,North,0,0.0,0.0,87,0.00,,,0.00,0.00,VWS V14.01,2013-06-06 02:11:00,
2013-06-05 22:12:00,64.5,60.5,29.80,North,0,0.0,0.0,87,0.00,,,0.00,0.00,VWS V14.01,2013-06-06 02:12:00,
2013-06-05 22:13:00,64.5,60.5,29.80,North,0,0.0,0.0,87,0.00,,,0.00,0.00,VWS V14.01,2013-06-06 02:13:00,
2013-06-05 22:14:00,64.5,60.5,29.80,North,0,0.0,0.0,87,0.00,,,0.00,0.00,VWS V14.01,2013-06-06 02:14:00,
2013-06-05 22:15:00,64.5,60.5,29.79,North,0,0.0,0.0,87,0.00,,,0.00,0.00,VWS V14.01,2013-06-06 02:15:00,
2013-06-05 22:16:00,64.5,60.5,29.79,North,0,0.0,0.0,87,0.00,,,0.00,0.00,VWS V14.01,2013-06-06 02:16:00,
2013-06-05 22:17:00,64.5,60.5,29.79,North,0,0.0,0.0,87,0.00,,,0.00,0.00,VWS V14.01,2013-06-06 02:17:00,
2013-06-05 22:18:00,64.5,60.5,29.79,North,0,0.0,0.0,87,0.00,,,0.00,0.00,VWS V14.01,2013-06-06 02:18:00,
2013-06-05 22:19:00,64.5,60.5,29.79,North,0,0.0,0.0,87,0.00,,,0.00,0.00,VWS V14.01,2013-06-06 02:19:00,
2013-06-05 22:20:00,64.5,60.5,29.79,North,0,0.0,0.0,87,0.00,,,0.00,0.00,VWS V14.01,2013-06-06 02:20:00,
2013-06-05 22:21:00,64.5,60.5,29.79,North,0,0.0,0.0,87,0.00,,,0.00,0.00,VWS V14.01,2013-06-06 02:21:00,
2013-06-05 22:22:00,64.5,60.5,29.79,North,0,0.0,0.0,87,0.00,,,0.00,0.00,VWS V14.01,2013-06-06 02:22:00,
2013-06-05 22:23:00,64.5,60.5,29.79,North,0,0.0,0.0,87,0.00,,,0.00,0.00,VWS V14.01,2013-06-06 02:23:00,
2013-06-05 22:24:00,64.5,60.5,29.79,North,0,0.0,0.0,87,0.00,,,0.00,0.00,VWS V14.01,2013-06-06 02:24:00,
2013-06-05 22:25:00,64.5,60.5,29.79,North,0,0.0,0.0,87,0.00,,,0.00,0.00,VWS V14.01,2013-06-06 02:25:00,
2013-06-05 22:26:00,64.5,60.5,29.79,North,0,0.0,0.0,87,0.00,,,0.00,0.00,VWS V14.01,2013-06-06 02:26:00,
2013-06-05 22:27:00,64.5,60.5,29.79,North,0,0.0,0.0,87,0.00,,,0.00,0.00,VWS V14.01,2013-06-06 02:27:00,
2013-06-05 22:28:00,64.5,60.5,29.79,North,0,0.0,0.0,87,0.00,,,0.00,0.00,VWS V14.01,2013-06-06 02:28:00,
2013-06-05 22:29:00,64.5,60.5,29.79,North,0,0.0,0.0,87,0.00,,,0.00,0.00,VWS V14.01,2013-06-06 02:29:00,
2013-06-05 22:30:00,64.5,60.5,29.80,North,0,0.0,0.0,87,0.00,,,0.00,0.00,VWS V14.01,2013-06-06 02:30:00,
2013-06-05 22:31:00,64.5,60.5,29.80,North,0,0.0,0.0,87,0.00,,,0.00,0.00,VWS V14.01,2013-06-06 02:31:00,
2013-06-05 22:32:00,64.5,60.5,29.80,North,0,0.0,0.0,87,0.00,,,0.00,0.00,VWS V14.01,2013-06-06 02:32:00,
2013-06-05 22:33:00,64.5,60.5,29.80,North,0,0.0,0.0,87,0.00,,,0.00,0.00,VWS V14.01,2013-06-06 02:33:00,
2013-06-05 22:34:00,64.5,60.5,29.80,North,0,0.0,0.0,87,0.00,,,0.00,0.00,VWS V14.01,2013-06-06 02:34:00,
2013-06-05 22:35:00,64.5,60.5,29.80,North,0,0.0,0.0,87,0.00,,,0.00,0.00,VWS V14.01,2013-06-06 02:35:00,
2013-06-05 22:36:00,64.5,60.5,29.80,North,0,0.0,0.0,87,0.00,,,0.00,0.00,VWS V14.01,2013-06-06 02:36:00,
2013-06-05 22:37:00,64.5,60.5,29.80,North,0,0.0,0.0,87,0.00,,,0.00,0.00,VWS V14.01,2013-06-06 02:37:00,
2013-06-05 22:38:00,64.5,60.5,29.80,North,0,0.0,0.0,87,0.00,,,0.00,0.00,VWS V14.01,2013-06-06 02:38:00,
2013-06-05 22:39:00,64.5,60.5,29.80,North,0,0.0,0.0,87,0.00,,,0.00,0.00,VWS V14.01,2013-06-06 02:39:00,
2013-06-05 22:40:00,64.5,60.5,29.80,North,0,0.0,0.0,87,0.00,,,0.00,0.00,VWS V14.01,2013-06-06 02:40:00,
2013-06-05 22:41:00,64.5,60.5,29.80,North,0,0.0,0.0,87,0.00,,,0.00,0.00,VWS V14.01,2013-06-06 02:41:00,
2013-06-05 22:42:00,64.5,60.5,29.80,North,0,0.0,0.0,87,0.00,,,0.00,0.00,VWS V14.01,2013-06-06 02:42:00,
2013-06-05 22:43:00,64.5,60.5,29.80,North,0,0.0,0.0,87,0.00,,,0.00,0.00,VWS V14.01,2013-06-06 02:43:00,
2013-06-05 22:44:00,64.5,60.5,29.80,North,0,0.0,0.0,87,0.00,,,0.00,0.00,VWS V14.01,2013-06-06 02:44:00,
2013-06-05 22:45:00,64.5,60.5,29.79,North,0,0.0,0.0,87,0.00,,,0.00,0.00,VWS V14.01,2013-06-06 02:45:00,
2013-06-05 22:46:00,64.5,60.5,29.79,North,0,0.0,0.0,87,0.00,,,0.00,0.00,VWS V14.01,2013-06-06 02:46:00,
2013-06-05 22:47:00,64.5,60.5,29.79,North,0,0.0,0.0,87,0.00,,,0.00,0.00,VWS V14.01,2013-06-06 02:47:00,
2013-06-05 22:48:00,64.5,60.5,29.79,North,0,0.0,0.0,87,0.00,,,0.00,0.00,VWS V14.01,2013-06-06 02:48:00,
2013-06-05 22:49:00,64.5,60.5,29.79,North,0,0.0,0.0,87,0.00,,,0.00,0.00,VWS V14.01,2013-06-06 02:49:00,
2013-06-05 22:50:00,64.5,60.5,29.79,North,0,0.0,0.0,87,0.00,,,0.00,0.00,VWS V14.01,2013-06-06 02:50:00,
2013-06-05 22:51:00,64.5,60.5,29.79,North,0,0.0,0.0,87,0.00,,,0.00,0.00,VWS V14.01,2013-06-06 02:51:00,
2013-06-05 22:52:00,64.5,60.5,29.79,North,0,0.0,0.0,87,0.00,,,0.00,0.00,VWS V14.01,2013-06-06 02:52:00,
2013-06-05 22:53:00,64.5,60.5,29.79,North,0,0.0,0.0,87,0.00,,,0.00,0.00,VWS V14.01,2013-06-06 02:53:00,
2013-06-05 22:54:00,64.5,60.5,29.79,North,0,0.0,0.0,87,0.00,,,0.00,0.00,VWS V14.01,2013-06-06 02:54:00,
2013-06-05 22:55:00,64.5,60.5,29.79,North,0,0.0,0.0,87,0.00,,,0.00,0.00,VWS V14.01,2013-06-06 02:55:00,
2013-06-05 22:56:00,64.5,60.5,29.79,North,0,0.0,0.0,87,0.00,,,0.00,0.00,VWS V14.01,2013-06-06 02:56:00,
2013-06-05 22:57:00,64.5,60.5,29.79,North,0,0.0,0.0,87,0.00,,,0.00,0.00,VWS V14.01,2013-06-06 02:57:00,
2013-06-05 22:58:00,64.5,60.5,29.79,North,0,0.0,0.0,87,0.00,,,0.00,0.00,VWS V14.01,2013-06-06 02:58:00,
2013-06-05 22:59:00,64.5,60.5,29.79,North,0,0.0,0.0,87,0.00,,,0.00,0.00,VWS V14.01,2013-06-06 02:59:00,
2013-06-05 23:00:00,64.5,60.5,29.79,North,0,0.0,0.0,87,0.00,,,0.00,0.00,VWS V14.01,2013-06-06 03:00:00,
2013-06-05 23:01:00,64.5,60.5,29.79,North,0,0.0,0.0,87,0.00,,,0.00,0.00,VWS V14.01,2013-06-06 03:01:00,
2013-06-05 23:02:00,64.5,60.5,29.79,North,0,0.0,0.0,87,0.00,,,0.00,0.00,VWS V14.01,2013-06-06 03:02:00,
2013-06-05 23:03:00,64.5,60.5,29.79,North,0,0.0,0.0,87,0.00,,,0.00,0.00,VWS V14.01,2013-06-06 03:03:00,
2013-06-05 23:04:00,64.5,60.5,29.79,North,0,0.0,0.0,87,0.00,,,0.00,0.00,VWS V14.01,2013-06-06 03:04:00,
2013-06-05 23:05:00,64.5,60.5,29.79,North,0,0.0,0.0,87,0.00,,,0.00,0.00,VWS V14.01,2013-06-06 03:05:00,
2013-06-05 23:06:00,64.5,60.5,29.79,North,0,0.0,0.0,87,0.00,,,0.00,0.00,VWS V14.01,2013-06-06 03:06:00,
2013-06-05 23:07:00,64.5,60.5,29.79,North,0,0.0,0.0,87,0.00,,,0.00,0.00,VWS V14.01,2013-06-06 03:07:00,
2013-06-05 23:08:00,64.5,60.5,29.79,North,0,0.0,0.0,87,0.00,,,0.00,0.00,VWS V14.01,2013-06-06 03:08:00,
2013-06-05 23:09:00,64.4,60.5,29.79,North,0,0.0,0.0,87,0.00,,,0.00,0.00,VWS V14.01,2013-06-06 03:09:00,
2013-06-05 23:10:00,64.3,60.3,29.79,North,0,0.0,0.0,87,0.00,,,0.00,0.00,VWS V14.01,2013-06-06 03:10:00,
2013-06-05 23:11:00,64.3,60.3,29.79,North,0,0.0,0.0,87,0.00,,,0.00,0.00,VWS V14.01,2013-06-06 03:11:00,
2013-06-05 23:12:00,64.3,60.3,29.79,North,0,0.0,0.0,87,0.00,,,0.00,0.00,VWS V14.01,2013-06-06 03:12:00,
2013-06-05 23:13:00,64.3,60.3,29.79,North,0,0.0,0.0,87,0.00,,,0.00,0.00,VWS V14.01,2013-06-06 03:13:00,
2013-06-05 23:14:00,64.3,60.3,29.79,North,0,0.0,0.0,87,0.00,,,0.00,0.00,VWS V14.01,2013-06-06 03:14:00,
2013-06-05 23:15:00,64.3,60.3,29.78,North,0,0.0,0.0,87,0.00,,,0.00,0.00,VWS V14.01,2013-06-06 03:15:00,
2013-06-05 23:16:00,64.3,60.3,29.78,North,0,0.0,0.0,87,0.00,,,0.00,0.00,VWS V14.01,2013-06-06 03:16:00,
2013-06-05 23:17:00,64.3,60.3,29.78,North,0,0.0,0.0,87,0.00,,,0.00,0.00,VWS V14.01,2013-06-06 03:17:00,
2013-06-05 23:18:00,64.3,60.7,29.78,North,0,0.0,0.0,88,0.00,,,0.00,0.00,VWS V14.01,2013-06-06 03:18:00,
2013-06-05 23:19:00,64.3,60.7,29.78,North,0,0.0,0.0,88,0.00,,,0.00,0.00,VWS V14.01,2013-06-06 03:19:00,
2013-06-05 23:20:00,64.3,60.7,29.78,North,0,0.0,0.0,88,0.00,,,0.00,0.00,VWS V14.01,2013-06-06 03:20:00,
2013-06-05 23:21:00,64.3,60.7,29.78,North,0,0.0,0.0,88,0.00,,,0.00,0.00,VWS V14.01,2013-06-06 03:21:00,
2013-06-05 23:22:00,64.3,60.7,29.78,North,0,0.0,0.0,88,0.00,,,0.00,0.00,VWS V14.01,2013-06-06 03:22:00,
2013-06-05 23:23:00,64.3,60.7,29.78,North,0,0.0,0.0,88,0.00,,,0.00,0.00,VWS V14.01,2013-06-06 03:23:00,
2013-06-05 23:24:00,64.3,60.7,29.78,North,0,0.0,0.0,88,0.00,,,0.00,0.00,VWS V14.01,2013-06-06 03:24:00,
2013-06-05 23:25:00,64.3,60.7,29.78,North,0,0.0,0.0,88,0.00,,,0.00,0.00,VWS V14.01,2013-06-06 03:25:00,
2013-06-05 23:26:00,64.3,60.7,29.78,North,0,0.0,0.0,88,0.00,,,0.00,0.00,VWS V14.01,2013-06-06 03:26:00,
2013-06-05 23:27:00,64.3,60.7,29.78,North,0,0.0,0.0,88,0.00,,,0.00,0.00,VWS V14.01,2013-06-06 03:27:00,
2013-06-05 23:28:00,64.3,60.7,29.78,North,0,0.0,0.0,88,0.00,,,0.00,0.00,VWS V14.01,2013-06-06 03:28:00,
2013-06-05 23:29:00,64.3,60.7,29.78,North,0,0.0,0.0,88,0.00,,,0.00,0.00,VWS V14.01,2013-06-06 03:29:00,
2013-06-05 23:30:00,64.3,60.7,29.77,North,0,0.0,0.0,88,0.00,,,0.00,0.00,VWS V14.01,2013-06-06 03:30:00,
2013-06-05 23:31:00,64.3,60.7,29.77,North,0,0.0,0.0,88,0.00,,,0.00,0.00,VWS V14.01,2013-06-06 03:31:00,
2013-06-05 23:32:00,64.3,60.7,29.77,North,0,0.0,0.0,88,0.00,,,0.00,0.00,VWS V14.01,2013-06-06 03:32:00,
2013-06-05 23:33:00,64.3,60.7,29.77,North,0,0.0,0.0,88,0.00,,,0.00,0.00,VWS V14.01,2013-06-06 03:33:00,
2013-06-05 23:34:00,64.2,60.6,29.77,North,0,0.0,0.0,88,0.00,,,0.00,0.00,VWS V14.01,2013-06-06 03:34:00,
2013-06-05 23:35:00,64.2,60.6,29.77,North,0,0.0,0.0,88,0.00,,,0.00,0.00,VWS V14.01,2013-06-06 03:35:00,
2013-06-05 23:36:00,64.2,60.6,29.77,North,0,0.0,0.0,88,0.00,,,0.00,0.00,VWS V14.01,2013-06-06 03:36:00,
2013-06-05 23:37:00,64.2,60.6,29.77,North,0,0.0,0.0,88,0.00,,,0.00,0.00,VWS V14.01,2013-06-06 03:37:00,
2013-06-05 23:38:00,64.2,60.6,29.77,North,0,0.0,0.0,88,0.00,,,0.00,0.00,VWS V14.01,2013-06-06 03:38:00,
2013-06-05 23:39:00,64.2,60.6,29.77,North,0,0.0,0.0,88,0.00,,,0.00,0.00,VWS V14.01,2013-06-06 03:39:00,
2013-06-05 23:40:00,64.2,60.6,29.77,North,0,0.0,0.0,88,0.00,,,0.00,0.00,VWS V14.01,2013-06-06 03:40:00,
2013-06-05 23:41:00,64.2,60.6,29.77,North,0,0.0,0.0,88,0.00,,,0.00,0.00,VWS V14.01,2013-06-06 03:41:00,
2013-06-05 23:42:00,64.2,60.6,29.77,North,0,0.0,0.0,88,0.00,,,0.00,0.00,VWS V14.01,2013-06-06 03:42:00,
2013-06-05 23:43:00,64.2,60.6,29.77,North,0,0.0,0.0,88,0.00,,,0.00,0.00,VWS V14.01,2013-06-06 03:43:00,
2013-06-05 23:44:00,64.2,60.6,29.77,North,0,0.0,0.0,88,0.00,,,0.00,0.00,VWS V14.01,2013-06-06 03:44:00,
2013-06-05 23:45:00,64.1,60.5,29.77,North,0,0.0,0.0,88,0.00,,,0.00,0.00,VWS V14.01,2013-06-06 03:45:00,
2013-06-05 23:46:00,64.0,60.4,29.77,North,0,0.0,0.0,88,0.00,,,0.00,0.00,VWS V14.01,2013-06-06 03:46:00,
2013-06-05 23:47:00,64.0,60.4,29.77,North,0,0.0,0.0,88,0.00,,,0.00,0.00,VWS V14.01,2013-06-06 03:47:00,
2013-06-05 23:48:00,64.0,60.4,29.77,North,0,0.0,0.0,88,0.00,,,0.00,0.00,VWS V14.01,2013-06-06 03:48:00,
2013-06-05 23:49:00,64.0,60.4,29.77,North,0,0.0,0.0,88,0.00,,,0.00,0.00,VWS V14.01,2013-06-06 03:49:00,
2013-06-05 23:50:00,64.0,60.4,29.77,North,0,0.0,0.0,88,0.00,,,0.00,0.00,VWS V14.01,2013-06-06 03:50:00,
2013-06-05 23:51:00,64.0,60.4,29.77,North,0,0.0,0.0,88,0.00,,,0.00,0.00,VWS V14.01,2013-06-06 03:51:00,
2013-06-05 23:52:00,64.0,60.4,29.77,North,0,0.0,0.0,88,0.00,,,0.00,0.00,VWS V14.01,2013-06-06 03:52:00,
2013-06-05 23:53:00,64.0,60.4,29.77,North,0,0.0,0.0,88,0.00,,,0.00,0.00,VWS V14.01,2013-06-06 03:53:00,
2013-06-05 23:54:00,64.0,60.4,29.77,North,0,0.0,0.0,88,0.00,,,0.00,0.00,VWS V14.01,2013-06-06 03:54:00,
2013-06-05 23:55:00,64.0,60.4,29.77,North,0,0.0,0.0,88,0.00,,,0.00,0.00,VWS V14.01,2013-06-06 03:55:00,
2013-06-05 23:56:00,64.0,60.4,29.77,North,0,0.0,0.0,88,0.00,,,0.00,0.00,VWS V14.01,2013-06-06 03:56:00,
2013-06-05 23:57:00,64.0,60.4,29.77,North,0,0.0,0.0,88,0.00,,,0.00,0.00,VWS V14.01,2013-06-06 03:57:00,
2013-06-05 23:58:00,64.0,60.4,29.77,North,0,0.0,0.0,88,0.00,,,0.00,0.00,VWS V14.01,2013-06-06 03:58:00,
2013-06-05 23:59:00,64.0,60.4,29.77,North,0,0.0,0.0,88,0.00,,,0.00,0.00,VWS V14.01,2013-06-06 03:59:00,